[[{"header":{"parameterUnit":"m.s-1","parameterCategory":1,"la1":30.6,"la2":29.2853,"lo1":-89.7004,"lo2":-87.6739,"dy":0.0162,"dx":0.0183,"nx":112,"ny":82,"refTime":"2023-10-13T12:00:00:Z","depth":0,"parameterNumber":2,"parameterNumberName":"U-component_of_WINDS"},"data":[0.0,0.0,0.0,0.0,0.0,0.0,0.0,0.0,0.0,0.0,0.0,0.0,0.0,0.0,0.0,0.0,0.0,0.0,0.0,0.0,0.0,0.0,0.0,0.0,0.0,0.0,0.0,0.0,0.0,0.0,0.0,0.0,0.0,0.0,0.0,0.0,0.0,0.0,0.0,0.0,0.0,0.0,0.0,0.0,0.0,0.0,0.0,0.0,0.0,0.0,0.0,0.0,0.0,0.0,0.0,0.0,0.0,0.0,0.0,0.0,0.0,0.0,0.0,0.0,0.0,0.0,0.0,0.0,0.0,0.0,0.0,0.0,0.0,0.0,0.0,0.0,0.0,0.0,0.0,0.0,0.0,0.0,0.0,0.0,0.0,0.0,0.0,0.0,0.0,0.0,0.0,-1.7227,-1.8436,-1.9207,-1.9657,-1.9708,-1.9265,-1.8254,0.0,0.0,0.0,0.0,0.0,0.0,0.0,0.0,0.0,0.0,0.0,0.0,0.0,0.0,0.0,0.0,0.0,0.0,0.0,0.0,0.0,0.0,0.0,0.0,0.0,0.0,0.0,0.0,0.0,0.0,0.0,0.0,0.0,0.0,0.0,0.0,0.0,0.0,0.0,0.0,0.0,0.0,0.0,0.0,0.0,0.0,0.0,0.0,0.0,0.0,0.0,0.0,0.0,0.0,0.0,0.0,0.0,0.0,0.0,0.0,0.0,0.0,0.0,0.0,0.0,0.0,0.0,0.0,0.0,0.0,0.0,0.0,0.0,0.0,0.0,0.0,0.0,0.0,0.0,0.0,0.0,0.0,0.0,0.0,0.0,0.0,0.0,0.0,0.0,0.0,0.0,0.0,0.0,0.0,0.0,0.0,0.0,0.0,0.0,0.0,0.0,0.0,0.0,0.0,-1.6094,-1.8405,-1.9209,-1.9603,-1.969,-1.9708,-1.9265,-1.8254,0.0,0.0,0.0,0.0,0.0,0.0,0.0,0.0,0.0,0.0,0.0,0.0,0.0,0.0,0.0,0.0,0.0,0.0,0.0,0.0,0.0,0.0,0.0,0.0,0.0,0.0,0.0,0.0,0.0,0.0,0.0,0.0,0.0,0.0,0.0,0.0,0.0,0.0,0.0,0.0,0.0,0.0,0.0,0.0,0.0,0.0,0.0,0.0,0.0,0.0,0.0,0.0,0.0,0.0,0.0,0.0,0.0,0.0,0.0,0.0,0.0,0.0,0.0,0.0,0.0,0.0,0.0,0.0,0.0,0.0,0.0,0.0,0.0,0.0,0.0,0.0,0.0,0.0,0.0,0.0,0.0,0.0,0.0,0.0,0.0,0.0,0.0,0.0,0.0,0.0,0.0,0.0,0.0,0.0,0.0,0.0,0.0,0.0,0.0,0.0,0.0,0.0,0.0,-1.6736,-1.8215,-1.883,-1.9715,-2.0094,-1.9738,-1.9708,-1.9265,-1.8254,-1.7893,0.0,0.0,0.0,0.0,0.0,0.0,0.0,0.0,0.0,0.0,0.0,0.0,0.0,0.0,0.0,0.0,0.0,0.0,0.0,0.0,0.0,0.0,0.0,0.0,0.0,0.0,0.0,0.0,0.0,0.0,0.0,0.0,0.0,0.0,0.0,0.0,0.0,0.0,0.0,0.0,0.0,0.0,0.0,0.0,0.0,0.0,0.0,0.0,0.0,0.0,0.0,0.0,0.0,0.0,0.0,0.0,0.0,0.0,0.0,0.0,0.0,0.0,0.0,0.0,0.0,0.0,0.0,0.0,0.0,0.0,0.0,0.0,0.0,0.0,0.0,0.0,0.0,0.0,0.0,0.0,0.0,0.0,0.0,0.0,0.0,0.0,0.0,0.0,0.0,0.0,0.0,0.0,0.0,0.0,0.0,0.0,0.0,0.0,0.0,0.0,0.0,0.0,-1.7854,-1.9143,-1.8881,-1.9699,-2.0112,-1.9727,-1.9568,-1.9144,-1.8269,-1.7893,0.0,0.0,0.0,0.0,0.0,0.0,0.0,0.0,0.0,0.0,0.0,0.0,0.0,0.0,0.0,0.0,0.0,0.0,0.0,0.0,0.0,0.0,0.0,0.0,0.0,0.0,0.0,0.0,0.0,0.0,0.0,0.0,0.0,0.0,0.0,0.0,0.0,0.0,0.0,0.0,0.0,0.0,0.0,0.0,0.0,0.0,0.0,0.0,0.0,0.0,0.0,0.0,0.0,0.0,0.0,0.0,0.0,0.0,0.0,0.0,0.0,0.0,0.0,0.0,0.0,0.0,0.0,0.0,0.0,0.0,0.0,0.0,0.0,0.0,0.0,0.0,0.0,0.0,0.0,0.0,0.0,0.0,0.0,0.0,0.0,0.0,0.0,0.0,0.0,0.0,0.0,0.0,0.0,0.0,0.0,0.0,0.0,0.0,0.0,0.0,0.0,0.0,-1.6869,-1.7654,-1.8607,-1.8906,-1.9216,-1.9658,-1.9243,-1.8747,-1.8223,-1.7893,0.0,0.0,0.0,0.0,0.0,0.0,0.0,0.0,0.0,0.0,0.0,0.0,0.0,0.0,0.0,0.0,0.0,0.0,0.0,0.0,0.0,0.0,0.0,0.0,0.0,0.0,0.0,0.0,0.0,0.0,0.0,0.0,0.0,0.0,0.0,0.0,0.0,0.0,0.0,0.0,0.0,0.0,0.0,0.0,0.0,0.0,0.0,0.0,0.0,0.0,0.0,0.0,0.0,0.0,0.0,0.0,0.0,0.0,0.0,0.0,0.0,0.0,0.0,0.0,0.0,0.0,0.0,0.0,0.0,0.0,0.0,0.0,0.0,0.0,0.0,0.0,0.0,0.0,0.0,0.0,0.0,0.0,0.0,0.0,0.0,0.0,0.0,0.0,0.0,0.0,0.0,0.0,0.0,0.0,0.0,0.0,0.0,0.0,0.0,0.0,0.0,0.0,-1.7231,-1.7849,0.0,-1.9121,-1.9503,-1.9753,-1.9224,-1.8635,-1.7983,0.0,0.0,0.0,0.0,0.0,0.0,0.0,0.0,0.0,0.0,0.0,0.0,0.0,0.0,0.0,0.0,0.0,0.0,0.0,0.0,0.0,0.0,0.0,0.0,0.0,0.0,0.0,0.0,0.0,0.0,0.0,0.0,0.0,0.0,0.0,0.0,0.0,0.0,0.0,0.0,0.0,0.0,0.0,0.0,0.0,0.0,0.0,0.0,0.0,0.0,0.0,0.0,0.0,0.0,0.0,0.0,0.0,0.0,0.0,0.0,0.0,0.0,0.0,0.0,0.0,0.0,0.0,0.0,0.0,0.0,0.0,0.0,0.0,0.0,0.0,0.0,0.0,0.0,0.0,0.0,0.0,0.0,0.0,0.0,0.0,0.0,0.0,0.0,0.0,0.0,0.0,0.0,0.0,0.0,0.0,0.0,0.0,0.0,0.0,0.0,0.0,0.0,-1.6346,-1.7003,-1.7548,0.0,-1.8473,-1.8959,-1.9396,-1.8928,-1.8405,-1.7989,0.0,0.0,0.0,0.0,0.0,0.0,0.0,0.0,0.0,0.0,0.0,0.0,0.0,0.0,0.0,0.0,0.0,0.0,0.0,0.0,0.0,0.0,0.0,0.0,0.0,0.0,0.0,0.0,0.0,0.0,0.0,0.0,0.0,0.0,0.0,0.0,0.0,0.0,0.0,0.0,0.0,0.0,0.0,0.0,0.0,0.0,0.0,0.0,0.0,0.0,0.0,0.0,0.0,0.0,0.0,0.0,0.0,0.0,0.0,0.0,0.0,0.0,0.0,0.0,0.0,0.0,0.0,0.0,0.0,0.0,0.0,0.0,0.0,0.0,0.0,0.0,0.0,0.0,0.0,0.0,0.0,0.0,0.0,0.0,0.0,0.0,0.0,0.0,0.0,0.0,0.0,0.0,0.0,0.0,0.0,0.0,0.0,0.0,0.0,0.0,0.0,0.0,-1.5107,-1.59,-1.6492,-1.6492,-1.6694,-1.7315,-1.8573,-1.82,-1.7991,0.0,0.0,0.0,0.0,0.0,0.0,0.0,0.0,0.0,0.0,0.0,0.0,0.0,0.0,0.0,0.0,0.0,0.0,0.0,0.0,0.0,0.0,0.0,0.0,0.0,0.0,0.0,0.0,0.0,0.0,0.0,0.0,0.0,0.0,0.0,0.0,0.0,0.0,0.0,0.0,0.0,0.0,0.0,0.0,0.0,0.0,0.0,0.0,0.0,0.0,0.0,0.0,0.0,0.0,0.0,0.0,0.0,0.0,0.0,0.0,0.0,0.0,0.0,0.0,0.0,0.0,0.0,0.0,0.0,0.0,0.0,0.0,0.0,0.0,0.0,0.0,0.0,0.0,0.0,0.0,0.0,0.0,0.0,0.0,0.0,0.0,0.0,0.0,0.0,0.0,0.0,0.0,0.0,0.0,0.0,0.0,0.0,0.0,0.0,0.0,0.0,0.0,0.0,0.0,-1.5469,-1.5921,-1.6436,-1.6553,-1.6956,-1.7844,-1.7436,-1.7027,-1.6749,0.0,0.0,0.0,0.0,0.0,0.0,0.0,0.0,0.0,0.0,0.0,0.0,0.0,0.0,0.0,0.0,0.0,0.0,0.0,0.0,0.0,0.0,0.0,0.0,0.0,0.0,0.0,0.0,0.0,0.0,0.0,0.0,0.0,0.0,0.0,0.0,0.0,0.0,0.0,0.0,0.0,0.0,0.0,0.0,0.0,0.0,0.0,0.0,0.0,0.0,0.0,0.0,0.0,0.0,0.0,0.0,0.0,0.0,0.0,0.0,0.0,0.0,0.0,0.0,0.0,0.0,0.0,0.0,0.0,0.0,0.0,0.0,0.0,0.0,0.0,0.0,0.0,0.0,0.0,0.0,0.0,0.0,0.0,0.0,0.0,0.0,0.0,0.0,0.0,0.0,0.0,0.0,0.0,0.0,0.0,0.0,0.0,0.0,0.0,0.0,0.0,0.0,-1.4609,-1.4845,-1.5216,-1.5979,-1.6065,-1.6368,-1.7118,-1.6885,-1.6573,-1.6322,0.0,0.0,0.0,0.0,0.0,0.0,0.0,0.0,0.0,0.0,0.0,0.0,0.0,0.0,0.0,0.0,0.0,0.0,0.0,0.0,0.0,0.0,0.0,0.0,0.0,0.0,0.0,0.0,0.0,0.0,0.0,0.0,0.0,0.0,0.0,0.0,0.0,0.0,0.0,0.0,0.0,0.0,0.0,0.0,0.0,0.0,0.0,0.0,0.0,0.0,0.0,0.0,0.0,0.0,0.0,0.0,0.0,0.0,0.0,0.0,0.0,0.0,0.0,0.0,0.0,0.0,0.0,0.0,0.0,0.0,0.0,0.0,0.0,0.0,0.0,0.0,0.0,0.0,0.0,0.0,0.0,0.0,0.0,0.0,0.0,0.0,0.0,0.0,0.0,0.0,0.0,0.0,0.0,0.0,0.0,0.0,0.0,0.0,0.0,0.0,0.0,0.0,-1.38,-1.4013,-1.4362,-1.5108,-1.5235,-1.5575,-1.6226,-1.634,-1.6421,-1.643,0.0,0.0,0.0,0.0,0.0,0.0,0.0,0.0,0.0,0.0,0.0,0.0,0.0,0.0,0.0,0.0,0.0,0.0,0.0,0.0,0.0,0.0,0.0,0.0,0.0,0.0,0.0,0.0,0.0,0.0,0.0,0.0,0.0,0.0,0.0,0.0,0.0,0.0,0.0,0.0,0.0,0.0,0.0,0.0,0.0,0.0,0.0,0.0,0.0,0.0,0.0,0.0,0.0,0.0,0.0,0.0,0.0,0.0,0.0,0.0,-1.9569,0.0,0.0,0.0,0.0,0.0,0.0,0.0,0.0,0.0,0.0,0.0,0.0,0.0,0.0,0.0,0.0,0.0,0.0,0.0,0.0,0.0,0.0,0.0,0.0,0.0,0.0,0.0,0.0,0.0,0.0,0.0,0.0,0.0,0.0,0.0,0.0,0.0,0.0,0.0,0.0,0.0,-1.2338,-1.2898,-1.3312,-1.3485,-1.4085,-1.4501,-1.4678,-1.5274,-1.5537,-1.5284,0.0,0.0,0.0,0.0,0.0,0.0,0.0,0.0,0.0,0.0,0.0,0.0,0.0,0.0,0.0,0.0,0.0,0.0,0.0,0.0,0.0,0.0,0.0,0.0,0.0,0.0,0.0,0.0,0.0,0.0,0.0,0.0,0.0,0.0,0.0,0.0,0.0,0.0,0.0,0.0,0.0,0.0,0.0,0.0,0.0,0.0,0.0,0.0,0.0,0.0,0.0,0.0,0.0,0.0,0.0,0.0,0.0,0.0,0.0,0.0,0.0,-1.8865,0.0,0.0,0.0,0.0,0.0,0.0,0.0,0.0,0.0,0.0,0.0,0.0,0.0,0.0,0.0,0.0,0.0,0.0,0.0,0.0,0.0,0.0,0.0,0.0,0.0,0.0,0.0,0.0,0.0,0.0,0.0,0.0,0.0,0.0,0.0,0.0,0.0,0.0,0.0,0.0,-1.1867,-1.2223,-1.2573,-1.2948,-1.3364,-1.3606,-1.3606,-1.4004,-1.418,-1.4007,-1.408,0.0,0.0,0.0,0.0,0.0,0.0,0.0,0.0,0.0,0.0,0.0,0.0,0.0,0.0,0.0,0.0,0.0,0.0,0.0,0.0,0.0,0.0,0.0,0.0,0.0,0.0,0.0,0.0,0.0,0.0,0.0,0.0,0.0,0.0,0.0,0.0,0.0,0.0,0.0,0.0,0.0,0.0,0.0,0.0,0.0,0.0,0.0,0.0,0.0,0.0,0.0,0.0,0.0,0.0,-1.7986,-1.7708,-1.6816,-1.5767,-1.4743,-1.7367,-1.8208,-1.7686,0.0,0.0,0.0,0.0,0.0,0.0,0.0,0.0,0.0,0.0,0.0,0.0,0.0,0.0,0.0,0.0,0.0,0.0,0.0,0.0,0.0,0.0,0.0,0.0,0.0,-0.7639,-0.7521,0.0,0.0,0.0,0.0,0.0,0.0,0.0,0.0,0.0,0.0,0.0,0.0,-1.101,-1.1092,-1.1377,-1.2058,-1.2373,-1.2565,-1.2565,-1.2818,-1.3009,-1.3009,-1.3151,-1.3552,0.0,0.0,0.0,0.0,0.0,0.0,0.0,0.0,0.0,0.0,0.0,0.0,0.0,0.0,0.0,0.0,0.0,0.0,0.0,0.0,0.0,0.0,0.0,0.0,0.0,0.0,0.0,0.0,0.0,0.0,0.0,0.0,-1.7963,-1.8722,0.0,0.0,0.0,0.0,0.0,0.0,0.0,0.0,0.0,0.0,0.0,0.0,0.0,0.0,-1.5781,-1.6232,-1.6499,-1.6541,-1.6392,-1.6338,-1.6287,-1.6138,-1.5939,-1.5749,-1.5495,0.0,-1.4528,-1.4864,0.0,0.0,0.0,0.0,0.0,0.0,0.0,0.0,0.0,0.0,0.0,0.0,0.0,0.0,0.0,0.0,0.0,0.0,0.0,0.0,0.0,0.0,-0.8471,-0.8403,-0.7898,-0.7399,0.0,-0.7116,-0.6928,-0.7018,0.0,0.0,0.0,0.0,0.0,0.0,0.0,0.0,-0.783,-0.8176,-0.8533,-0.8656,-0.9945,-1.0833,-1.0833,-1.2151,-1.3009,-1.3009,-1.3011,-1.3177,-1.3461,-1.3291,0.0,0.0,0.0,0.0,0.0,0.0,0.0,0.0,0.0,0.0,0.0,0.0,0.0,0.0,0.0,0.0,0.0,0.0,0.0,0.0,0.0,0.0,0.0,0.0,0.0,0.0,0.0,0.0,0.0,-1.6324,-1.6898,-1.7293,-1.7334,-1.7085,0.0,0.0,0.0,0.0,0.0,0.0,0.0,0.0,0.0,-1.4705,-1.5685,-1.5976,-1.5405,-1.6062,-1.6524,-1.6737,-1.6134,-1.5755,-1.5576,-1.4954,-1.4589,-1.4406,-1.4052,-1.3379,-1.2663,-1.3886,-1.4618,-1.4934,0.0,0.0,0.0,0.0,0.0,-1.1803,-0.9743,0.0,0.0,0.0,0.0,0.0,0.0,0.0,0.0,0.0,0.0,0.0,0.0,0.0,0.0,-0.7155,-0.6857,-0.66,-0.6335,-0.6094,-0.602,0.0,-0.6254,-0.6379,-0.7041,0.0,0.0,0.0,0.0,0.0,-0.7385,-0.7704,-0.7994,-0.7994,-0.8656,-0.9099,-0.9099,-0.9762,-1.0198,-1.0198,-1.0198,-1.0664,-1.1669,-1.1645,-1.1881,0.0,0.0,0.0,0.0,0.0,0.0,0.0,0.0,0.0,0.0,0.0,0.0,0.0,0.0,0.0,0.0,0.0,0.0,0.0,0.0,0.0,0.0,0.0,0.0,0.0,0.0,0.0,0.0,-1.5245,-1.5634,-1.5884,-1.5867,-1.5635,0.0,0.0,0.0,0.0,0.0,0.0,-1.4041,-1.4474,-1.448,-1.397,-1.4958,-1.5389,-1.5065,-1.5417,-1.5744,-1.6003,-1.492,-1.431,-1.4056,-1.322,-1.2713,-1.2519,-1.2519,-1.206,-1.1375,-1.2926,-1.3545,-1.3479,-1.3175,-1.2856,-1.2292,-1.0566,-1.0181,-1.0163,-0.7866,-0.7702,-0.8428,-0.777,0.0,-0.8408,-0.8339,0.0,0.0,0.0,0.0,-0.7941,-0.7139,0.0,-0.6899,-0.6235,-0.6088,-0.6047,-0.5891,-0.5414,-0.5243,0.0,-0.5828,-0.5851,-0.6609,0.0,0.0,0.0,0.0,-0.708,-0.6874,-0.7122,-0.7344,-0.7344,-0.754,-0.7665,-0.7665,-0.7864,-0.7994,-0.7994,-0.7994,-0.8565,-0.9825,-0.9857,-1.0325,-1.1271,0.0,0.0,0.0,0.0,0.0,0.0,0.0,0.0,0.0,0.0,0.0,0.0,0.0,0.0,0.0,0.0,0.0,0.0,0.0,0.0,0.0,0.0,0.0,0.0,0.0,0.0,0.0,0.0,0.0,-1.5236,-1.5274,0.0,0.0,0.0,0.0,-1.31,-1.3044,-1.3148,-1.3353,-1.3673,-1.3786,-1.3615,-1.3992,-1.4196,-1.4183,-1.3068,-1.2517,-1.2535,-1.1423,-1.0859,-1.0849,-1.0763,-1.0758,-1.0747,-1.0747,-1.0704,-1.0711,-1.1352,-1.155,-1.1219,-0.9762,-0.9788,-1.0414,-0.8537,-0.8314,-0.8706,-0.738,-0.7322,-0.7689,-0.6689,-0.6844,-0.7346,-0.7068,-0.7667,0.0,0.0,-0.7164,-0.7143,-0.6133,-0.6101,-0.6325,-0.6286,-0.6286,-0.6245,-0.6051,-0.4985,-0.4383,0.0,-0.5351,-0.5357,-0.6099,0.0,-0.6147,-0.588,-0.6082,-0.5977,-0.5128,-0.531,-0.5524,-0.5524,-0.6268,-0.6752,-0.6752,-0.7535,-0.7994,-0.7994,-0.7994,-0.8027,-0.8118,-0.8118,-0.8146,-0.8232,-0.8725,0.0,0.0,0.0,0.0,0.0,0.0,0.0,0.0,0.0,0.0,0.0,0.0,0.0,0.0,0.0,0.0,0.0,0.0,0.0,0.0,0.0,0.0,0.0,0.0,0.0,0.0,0.0,0.0,-1.4326,-1.438,0.0,0.0,-1.3595,-1.3228,-1.3187,-1.3165,-1.3229,-1.3487,-1.3617,-1.3406,-1.2782,-1.2893,-1.2595,-1.1869,-1.1429,-1.1209,-1.1209,-1.0778,-1.0611,-1.0611,-1.0611,-1.0611,-1.0611,-1.0611,-1.0178,-0.9527,-0.9724,-1.0119,-1.048,-0.9707,-0.9666,-0.9817,-0.8517,-0.8186,-0.8234,-0.7049,-0.6765,-0.6888,-0.6443,-0.6451,-0.6643,-0.6529,-0.6753,-0.6974,-0.6619,-0.6078,-0.553,-0.5185,-0.4663,-0.4256,-0.4256,-0.4256,-0.4206,-0.413,-0.3764,-0.3515,-0.3793,-0.3539,-0.3364,-0.3755,-0.3875,-0.3881,-0.3695,-0.3818,-0.3833,-0.3512,-0.3603,-0.3647,-0.3647,-0.3941,-0.437,-0.4905,-0.5233,-0.5698,-0.6305,-0.6338,-0.6564,-0.7144,-0.7177,-0.7437,-0.7994,-0.8201,-0.7839,0.0,0.0,0.0,0.0,0.0,0.0,0.0,0.0,0.0,0.0,0.0,0.0,0.0,0.0,0.0,0.0,0.0,0.0,0.0,0.0,0.0,0.0,0.0,0.0,0.0,0.0,-1.302,-1.3504,-1.3531,-1.3633,-1.3896,-1.3368,-1.2945,-1.2858,-1.2785,-1.2732,-1.2582,-1.26,-1.2331,-1.1724,-1.1724,-1.1338,-1.0611,-1.0221,-1.0009,-1.0009,-0.9614,-0.944,-0.944,-0.944,-0.9372,-0.9294,-0.9386,-0.894,-0.8158,-0.8273,-0.864,-0.9152,-0.8893,-0.8809,-0.8669,-0.8014,-0.7729,-0.7581,-0.6824,-0.6555,-0.6497,-0.6402,-0.61,-0.5747,-0.5747,-0.5512,-0.5237,-0.5237,-0.4727,-0.4178,-0.4178,-0.3632,-0.3085,-0.3085,-0.3085,-0.3085,-0.3085,-0.2815,-0.2556,-0.2482,-0.2442,-0.246,-0.256,-0.2654,-0.2668,-0.2587,-0.2647,-0.2695,-0.2695,-0.2684,-0.2702,-0.2702,-0.2713,-0.2945,-0.3513,-0.3748,-0.4034,-0.448,-0.4674,-0.4948,-0.5325,-0.556,-0.5922,-0.6491,-0.6755,-0.6927,-0.6971,0.0,0.0,0.0,0.0,0.0,0.0,0.0,0.0,0.0,0.0,0.0,0.0,0.0,0.0,0.0,0.0,0.0,0.0,0.0,0.0,0.0,0.0,0.0,-1.1619,-1.214,-1.2567,-1.2819,-1.282,-1.2841,-1.3074,-1.3101,-1.2766,-1.194,-1.1875,-1.1478,-1.0644,-1.0595,-1.059,-1.0547,-1.0547,-1.0504,-1.0461,-0.9401,-0.8846,-0.8846,-0.7621,-0.7051,-0.7051,-0.7007,-0.6854,-0.6604,-0.6884,-0.6847,-0.6611,-0.689,-0.7007,-0.7007,-0.7051,-0.7011,-0.6893,-0.6893,-0.6841,-0.6705,-0.6654,-0.6559,-0.6438,-0.6398,-0.5622,-0.4657,-0.4654,-0.3908,-0.3086,-0.3085,-0.3085,-0.3046,-0.3046,-0.3046,-0.3007,-0.3007,-0.3007,-0.3007,-0.3007,-0.2222,-0.1553,-0.1553,-0.2228,-0.2766,-0.2625,-0.2621,-0.2606,-0.262,-0.2623,0.0,-0.2626,-0.2607,-0.2624,-0.2622,-0.2623,-0.2641,-0.2644,-0.3179,-0.3279,-0.2734,-0.3242,-0.3317,-0.2737,-0.3269,-0.3574,-0.3576,-0.4278,-0.559,-0.754,0.0,0.0,0.0,0.0,0.0,0.0,0.0,0.0,0.0,0.0,0.0,0.0,0.0,0.0,0.0,0.0,0.0,0.0,0.0,0.0,0.0,0.0,-0.9787,-1.1579,-1.1978,-1.2033,-1.1903,-1.1887,-1.1644,-1.1084,-1.1024,-1.0997,-1.0974,-1.0947,-1.0845,-1.0605,-1.0438,-0.9929,-0.905,-0.9008,-0.8597,-0.7777,-0.7635,-0.7577,-0.7577,-0.6425,-0.5849,-0.5849,-0.4952,-0.4522,-0.4476,-0.4528,-0.4519,-0.4476,-0.4528,-0.455,-0.4727,-0.6425,-0.7071,-0.7038,-0.7038,-0.6947,-0.6707,-0.5621,-0.5306,-0.5188,-0.4311,-0.3798,-0.3522,-0.3544,-0.3325,-0.3114,-0.31,-0.2579,-0.1996,-0.1996,-0.1449,-0.0862,-0.0862,-0.0862,-0.0862,-0.0862,-0.0621,-0.0425,-0.0431,-0.0624,-0.0767,-0.0738,-0.0732,-0.0724,-0.0735,0.0,0.0,-0.0739,-0.0742,-0.074,-0.0758,-0.0752,-0.0985,-0.1638,-0.185,-0.2161,0.0,-0.2871,-0.2865,-0.2709,-0.2869,-0.294,-0.2933,-0.2921,-0.3222,0.0,0.0,0.0,0.0,0.0,0.0,0.0,0.0,0.0,0.0,0.0,0.0,0.0,0.0,0.0,0.0,0.0,0.0,0.0,0.0,0.0,0.0,-0.8953,-0.9307,-1.0974,-1.1079,-1.0985,-1.0971,-1.095,-1.0796,-1.0398,-1.0376,-1.0218,-0.9913,-0.9879,-0.9662,-0.9183,-0.8973,-0.8526,-0.772,-0.7343,-0.6761,-0.5948,-0.5722,-0.562,-0.562,-0.4952,-0.4641,-0.4641,-0.3927,-0.3536,0.0,-0.3544,-0.3534,-0.3396,-0.3544,-0.3614,0.0,0.0,0.0,0.0,0.0,-0.5579,-0.5415,-0.4556,-0.4231,-0.4119,-0.3398,-0.287,-0.2465,-0.2473,-0.2163,-0.1815,-0.1811,-0.1361,-0.0927,-0.0927,-0.0464,0.0,0.0,0.0,0.0,0.0,0.0,0.0,0.0,0.0,0.0,0.0652,0.0302,0.0,0.0,0.0,0.0,0.0,0.0,0.0,0.0,0.0,-0.0205,-0.0728,-0.0995,0.0,0.0,0.0,-0.1953,-0.1942,-0.1944,0.0,0.0,0.0,-0.2251,0.0,0.0,0.0,0.0,-0.3493,-0.3021,0.0,0.0,0.0,0.0,0.0,0.0,0.0,0.0,0.0,0.0,0.0,0.0,0.0,0.0,0.0,0.0,-0.8529,-0.8957,-0.9731,-0.9612,-0.9564,-1.0003,-1.007,-1.0102,-1.0202,-1.0221,-0.9788,-0.8759,-0.8715,-0.8233,-0.7139,0.0,0.0,0.0,0.0,-0.501,-0.4694,-0.3976,-0.3614,-0.3614,-0.3481,-0.3392,-0.3392,-0.326,-0.3018,-0.2749,-0.3075,-0.3017,-0.2794,-0.3078,-0.3215,-0.3215,-0.3481,-0.3614,-0.3612,-0.3551,-0.3556,0.0,0.0,0.0,0.0,-0.2956,-0.2231,-0.1436,-0.1432,-0.0749,0.0,0.0,0.0,0.0,0.0,0.0,0.0,0.0,0.0,0.0,0.0,0.0,0.0037,0.0156,0.0946,0.1637,0.1749,0.0983,0.0362,0.0346,0.0336,0.0,0.0362,0.0336,0.0341,0.034,0.0,0.0,0.0364,-0.0136,-0.0266,0.0141,-0.0437,-0.0793,-0.0813,-0.0782,-0.1065,-0.1577,-0.1719,-0.1922,-0.2228,-0.2354,-0.2062,-0.1447,-0.1895,-0.2213,0.0,0.0,0.0,0.0,0.0,0.0,0.0,0.0,0.0,0.0,0.0,0.0,0.0,0.0,0.0,-0.8005,-0.7652,-0.737,-0.7672,-0.7632,-0.7969,-0.9048,-0.9135,-0.8804,-0.7878,-0.7793,-0.7705,-0.7448,-0.7445,-0.736,-0.7095,-0.5964,0.0,-0.5238,-0.4137,-0.3505,-0.3434,-0.354,-0.3614,-0.357,0.0,0.0,-0.2102,-0.1121,-0.067,-0.0621,-0.067,-0.067,-0.0621,-0.0671,-0.0718,-0.0897,-0.2858,-0.3614,-0.3556,-0.3307,-0.3381,-0.342,-0.2193,-0.1908,-0.1913,-0.0936,-0.049,-0.0309,-0.0304,-0.0172,0.0,0.0,0.0,0.0,0.0,0.0,0.0,0.0,0.0,0.0,0.0,0.0,0.0272,0.1135,0.1439,0.1859,0.2653,0.2636,0.2496,0.2511,0.2498,0.251,0.25,0.2504,0.2492,0.2512,0.2516,0.2484,0.2503,0.2388,0.2021,0.1333,0.0358,-0.0178,-0.0179,-0.0183,-0.0221,-0.0328,-0.0374,-0.0419,-0.0499,-0.0502,-0.0467,-0.0314,-0.1269,-0.1277,0.0,0.0,0.0,0.0,0.0,0.0,0.0,0.0,0.0,0.0,0.0,-0.8143,0.0,0.0,-0.743,-0.7375,-0.7052,-0.6892,-0.7065,-0.7095,-0.7316,-0.7929,-0.8017,-0.7753,-0.7139,-0.7095,-0.6874,-0.6296,-0.6248,-0.598,-0.5395,-0.4637,-0.4154,-0.4024,-0.2996,-0.2357,-0.2181,-0.1928,-0.179,-0.179,-0.1165,-0.0897,-0.0897,-0.0269,0.0,0.0,0.0,0.0,0.0,0.0,0.0,-0.0135,-0.1344,-0.179,-0.1786,-0.1618,-0.1671,-0.1696,-0.0919,-0.0749,-0.0807,-0.018,0.0,0.0,0.0,0.0,0.0,0.0,0.0,0.0,0.0,0.0,0.0,0.0,0.0399,0.0796,0.0787,0.1214,0.1721,0.2229,0.2776,0.3322,0.3826,0.4334,0.4334,0.3279,0.3085,0.311,0.3114,0.3109,0.3094,0.3095,0.3092,0.3085,0.3086,0.3095,0.2885,0.2368,0.1853,0.1564,0.1546,0.1565,0.1537,0.1537,0.1556,0.1565,0.1565,0.1565,0.1575,0.1634,0.1154,0.0922,0.0,0.0,0.0,0.0,0.0,0.0,0.0,0.0,-0.9233,-0.8403,-0.8181,-0.8004,-0.7572,-0.7517,-0.7333,-0.6871,-0.6787,-0.6868,-0.7061,-0.6918,-0.6782,-0.6782,-0.6782,-0.6782,-0.6782,-0.6558,-0.6024,-0.5134,-0.5045,-0.4641,-0.3659,-0.3392,-0.3121,-0.2847,-0.1934,-0.1322,-0.1065,-0.0353,0.0135,0.0359,0.0359,0.0494,0.0718,0.0718,0.0718,0.0718,0.0718,0.0718,0.0718,0.0718,0.0718,0.0673,0.0449,0.0359,0.0314,0.009,0.0,0.0,0.0,0.0,0.0,0.0,0.0,0.0,0.0,0.0,0.0,0.0,0.0,0.0,0.0,0.0165,0.0329,0.0369,0.1185,0.1991,0.1994,0.2608,0.3224,0.342,0.4114,0.4766,0.496,0.5709,0.5709,0.3982,0.3709,0.3709,0.3709,0.3709,0.3709,0.3709,0.3709,0.3709,0.3709,0.3532,0.3419,0.3419,0.323,0.3102,0.3081,0.3085,0.3085,0.3085,0.3085,0.313,0.3146,0.3146,0.3225,0.3382,0.3642,0.3198,-1.2528,-1.119,-0.9941,-0.996,-0.9669,-0.9221,0.0,0.0,-0.8366,-0.7815,-0.7435,-0.7234,-0.7168,-0.7168,-0.7138,-0.7085,-0.7048,-0.7058,-0.7092,-0.6248,-0.5581,-0.5581,-0.5581,-0.5581,-0.5581,-0.4641,-0.3926,-0.3794,-0.3792,-0.3748,-0.3614,-0.2592,-0.1964,-0.1955,-0.0805,-0.0179,-0.0134,-0.0045,0.0539,0.1612,0.1612,0.2147,0.3213,0.3213,0.3213,0.3213,0.3213,0.3213,0.3213,0.3213,0.3213,0.3081,0.2013,0.1612,0.1478,0.0404,0.0,0.0,0.0,0.0,0.0,0.0,0.0,0.0,0.0,0.0,0.0,0.0,0.0,0.0,0.0,0.0776,0.1585,0.1595,0.2506,0.338,0.3371,0.3355,0.3628,0.4515,0.4715,0.5002,0.5944,0.6219,0.6222,0.5983,0.5944,0.5944,0.5944,0.5944,0.5944,0.5944,0.5944,0.5944,0.5944,0.5068,0.4513,0.4513,0.3618,0.3115,0.3085,0.3085,0.3085,0.3085,0.3085,0.3195,0.3387,0.3387,0.3428,0.3591,0.4681,0.4552,-1.0333,-1.0236,0.0,0.0,-0.9787,-0.9531,-0.8725,-0.8618,-0.8429,-0.7515,-0.718,-0.7095,-0.7095,-0.6957,-0.6681,0.0,-0.5947,-0.5642,-0.5156,-0.4639,-0.4374,-0.4374,-0.3713,-0.3572,-0.4306,-0.3915,-0.3314,-0.2587,-0.2556,-0.2236,-0.1522,-0.1031,-0.0763,-0.0763,0.0403,0.1031,0.1031,0.1746,0.237,0.2858,0.2858,0.3126,0.3614,0.3614,0.3614,0.3614,0.3614,0.3614,0.3614,0.3614,0.3614,0.357,0.3037,0.2858,0.2637,0.0718,0.0,0.0,0.0,0.0,0.0,0.0,0.0,0.0,0.0,0.0,0.0,0.0,0.0494,0.1029,0.1064,0.1943,0.285,0.2834,0.3672,0.4464,0.449,0.4901,0.5448,0.5864,0.59,0.6025,0.6475,0.648,0.6422,0.6422,0.6354,0.63,0.63,0.63,0.63,0.63,0.63,0.63,0.63,0.5906,0.5628,0.5628,0.5198,0.496,0.496,0.496,0.4992,0.5057,0.5099,0.5159,0.5322,0.5322,0.5388,0.5551,0.6034,0.6054,-0.8825,0.0,0.0,-0.9489,-0.9377,-0.9121,-0.8543,-0.8408,-0.816,-0.7371,-0.7204,-0.708,-0.6757,-0.6511,0.0,-0.5063,-0.4696,-0.4301,-0.3707,-0.3298,-0.3094,-0.3102,-0.2059,-0.1661,-0.2509,-0.2593,-0.2267,-0.1369,-0.132,-0.0762,0.0449,0.0494,0.0628,0.0986,0.1835,0.228,0.228,0.317,0.3748,0.4105,0.4105,0.4283,0.455,0.455,0.455,0.455,0.455,0.455,0.455,0.455,0.455,0.455,0.4239,0.4105,0.3838,0.1746,0.0762,0.0494,0.0494,0.0269,0.0,0.0,0.0,0.0,0.0,0.0225,0.0494,0.0494,0.1344,0.228,0.228,0.317,0.4092,0.4077,0.4887,0.5645,0.5642,0.6234,0.6763,0.6763,0.6729,0.6702,0.6702,0.661,0.6536,0.6536,0.6487,0.6392,0.631,0.63,0.63,0.63,0.63,0.63,0.63,0.63,0.63,0.63,0.63,0.6317,0.6358,0.6358,0.6426,0.6573,0.6536,0.661,0.6763,0.6763,0.6841,0.6943,0.6943,0.6997,0.0,0.0,-0.7416,-0.8255,-0.7727,-0.7009,-0.7149,-0.7139,-0.7183,-0.7378,-0.7409,-0.7034,-0.5844,-0.5625,-0.5197,-0.3882,-0.3644,-0.3643,-0.3599,-0.2612,-0.1863,-0.1875,-0.081,-0.0081,0.0,-0.012,-0.0086,-0.0045,-0.0045,0.0494,0.17,0.1746,0.2281,0.3436,0.3525,0.3525,0.3525,0.357,0.4194,0.5359,0.5359,0.5935,0.7007,0.7007,0.7007,0.7007,0.7007,0.7007,0.7007,0.7007,0.7007,0.6871,0.5758,0.5359,0.5179,0.3927,0.2769,0.1746,0.1746,0.0986,0.0,0.0,0.0,0.0,0.0,0.0807,0.1746,0.1746,0.2637,0.3525,0.3525,0.4463,0.5359,0.5354,0.6198,0.7044,0.7037,0.6974,0.6879,0.6879,0.6803,0.6702,0.6702,0.6698,0.6695,0.6695,0.6688,0.6583,0.6337,0.63,0.63,0.63,0.63,0.63,0.63,0.63,0.63,0.63,0.63,0.6361,0.6501,0.6504,0.6536,0.6692,0.6695,0.677,0.6879,0.6879,0.6953,0.7088,0.7088,0.7092,0.0,0.0,-0.7656,-0.7432,-0.721,-0.7038,-0.7085,-0.7221,-0.7079,-0.6253,-0.677,-0.6755,-0.4652,-0.492,-0.4786,-0.2739,-0.2391,-0.2133,-0.1325,-0.0859,-0.0618,-0.0598,-0.0263,0.0,0.0,0.0,0.0,0.0,0.0738,0.1389,0.179,0.2547,0.317,0.357,0.4374,0.4776,0.4776,0.5534,0.6113,0.6517,0.6517,0.6738,0.7095,0.7095,0.7095,0.7095,0.7095,0.7095,0.7095,0.7095,0.7095,0.7051,0.6694,0.6517,0.6473,0.6065,0.5176,0.4065,0.326,0.2191,0.121,0.121,0.121,0.121,0.121,0.2057,0.2992,0.2992,0.3883,0.4776,0.4776,0.5667,0.6517,0.6517,0.6827,0.7095,0.7095,0.7058,0.7024,0.7024,0.6984,0.695,0.695,0.6873,0.6817,0.6715,0.6702,0.6664,0.6566,0.6552,0.6552,0.6552,0.6552,0.6552,0.6552,0.6552,0.6552,0.6552,0.6552,0.6573,0.662,0.6624,0.706,0.801,0.7225,0.7684,0.9345,0.7799,0.7872,0.9396,0.7834,0.807,-0.6398,-0.6835,-0.7518,-0.7092,-0.6718,-0.6485,-0.6487,-0.6246,-0.5823,-0.4973,-0.5506,-0.5469,-0.3392,-0.3655,-0.3518,-0.1465,-0.1177,-0.0869,-0.0097,0.0,0.0,0.0,0.0,0.0,0.0,0.0,0.0,0.0444,0.1188,0.2013,0.2841,0.3624,0.4305,0.4814,0.5622,0.6027,0.6027,0.6738,0.7095,0.7095,0.7095,0.7095,0.7095,0.7095,0.7007,0.6909,0.7028,0.7004,0.6912,0.7031,0.7095,0.7095,0.7095,0.7095,0.7095,0.7095,0.665,0.5847,0.4641,0.3438,0.2458,0.2458,0.2458,0.2458,0.2458,0.3304,0.4239,0.4239,0.5087,0.6027,0.6027,0.6561,0.7095,0.7095,0.7095,0.7095,0.7095,0.7095,0.7095,0.7095,0.7095,0.7095,0.7095,0.7021,0.6927,0.6871,0.6858,0.6944,0.7281,0.7308,0.7473,0.7926,0.7555,0.7473,0.7926,0.7967,0.7967,0.7967,0.7967,0.795,0.801,0.8014,0.843,0.9379,0.8623,0.9022,1.0611,0.9209,0.9283,1.0732,0.9309,0.9584,-0.6408,-0.6684,-0.6844,-0.6882,-0.6118,-0.5305,-0.5319,-0.4426,-0.3642,-0.3683,-0.3756,-0.3391,0.0,0.0,-0.1563,-0.0238,0.0,0.0,0.0,0.0,0.0,0.0,0.0,0.0,0.0,0.0,0.0,0.1354,0.0,0.2444,0.4792,0.4959,0.5653,0.7041,0.7095,0.7095,0.7095,0.7095,0.7095,0.7095,0.7095,0.7095,0.7095,0.7095,0.6909,0.6569,0.6956,0.6898,0.6579,0.6963,0.7095,0.7095,0.7095,0.7095,0.7095,0.7095,0.7095,0.6962,0.5849,0.4688,0.3703,0.3703,0.3703,0.3703,0.3703,0.4552,0.5492,0.5492,0.6248,0.7098,0.7105,0.7109,0.7109,0.7115,0.7119,0.7119,0.7119,0.7119,0.7115,0.7109,0.7102,0.7139,0.7183,0.7183,0.7228,0.7272,0.7312,0.7635,0.835,0.8427,0.8882,1.007,0.9209,0.8959,1.0111,1.0238,1.0238,1.0238,1.0238,1.0285,1.0402,1.0418,1.0525,1.0707,1.0669,1.0679,1.0819,1.1035,1.1182,1.1321,1.1444,1.1553,-0.4418,-0.489,-0.5588,-0.4723,-0.4289,-0.407,-0.4045,-0.3912,-0.3463,-0.2492,-0.3122,-0.3148,0.0,0.0,0.0,-0.0182,0.0,0.0,0.0,0.0,0.0,0.0,0.0,0.0,0.0,0.0905,0.0,0.0,0.2945,0.3664,0.519,0.6063,0.6708,0.7095,0.7095,0.7095,0.7095,0.7095,0.7095,0.7095,0.7095,0.7095,0.7095,0.7095,0.7034,0.6933,0.7048,0.7031,0.6937,0.7048,0.7095,0.7095,0.7095,0.7095,0.7095,0.7095,0.7095,0.7051,0.6782,0.5891,0.4956,0.4956,0.4956,0.4956,0.4956,0.5755,0.665,0.665,0.6874,0.7122,0.7282,0.7312,0.7339,0.7455,0.7482,0.7482,0.7482,0.7482,0.7451,0.7333,0.7217,0.7404,0.8281,0.8452,0.8711,0.957,1.0433,1.0431,0.897,0.8789,0.9215,1.0359,1.0226,1.0141,1.0486,1.0486,1.0486,1.0486,1.0486,1.0512,1.0562,1.0567,1.1058,1.2216,1.1432,1.1921,1.3869,1.2203,1.2281,1.3982,1.2303,1.2562,-0.4543,-0.4736,-0.509,-0.3881,-0.322,-0.2812,-0.2812,-0.244,-0.1902,-0.1178,-0.1617,0.0,0.0,0.0,0.0,0.0,0.0,0.0,0.0,0.0,0.0,0.0,0.0524,0.0,0.0891,0.208,0.3307,0.0,0.44,0.4862,0.5999,0.6652,0.7034,0.7095,0.7095,0.7095,0.7095,0.7095,0.7095,0.7095,0.7095,0.7095,0.7095,0.7095,0.6991,0.6858,0.0,0.6987,0.6861,0.7014,0.7095,0.7095,0.7095,0.7095,0.7095,0.7095,0.7095,0.7105,0.7217,0.6834,0.6284,0.618,0.6201,0.6293,0.6293,0.6744,0.7343,0.7343,0.7343,0.736,0.7448,0.7472,0.7492,0.758,0.76,0.76,0.76,0.76,0.7577,0.7489,0.74,0.7521,0.8197,0.8332,0.873,0.992,1.0672,1.0982,1.082,1.0562,1.0826,1.1997,1.1643,1.1558,1.2083,1.2132,1.2132,1.2132,1.223,1.2293,1.2293,1.2441,1.2927,1.3749,1.3126,1.3517,1.5008,1.378,1.3887,1.5157,1.3958,1.4186,-0.5197,-0.49,-0.4643,-0.3438,-0.2321,-0.1577,-0.1577,-0.0742,0.0,0.0,0.0,0.0,0.0,0.0,0.0,0.0,0.0,0.0,0.0,0.0,0.0048,0.0237,0.1281,0.2029,0.2255,0.345,0.4662,0.5738,0.58,0.6112,0.694,0.6953,0.6991,0.7092,0.7095,0.7095,0.7095,0.7095,0.7095,0.7095,0.7095,0.7095,0.7095,0.7095,0.6929,0.6583,0.0,0.0,0.6593,0.6937,0.7095,0.7095,0.7095,0.7095,0.7098,0.7119,0.7125,0.7149,0.735,0.7446,0.738,0.7244,0.7292,0.7446,0.7446,0.7495,0.76,0.76,0.76,0.7604,0.7624,0.7628,0.7634,0.7651,0.7658,0.7658,0.7658,0.7641,0.7628,0.7628,0.7611,0.7647,0.7785,0.7969,0.852,0.9798,1.0117,1.0992,1.3166,1.2853,1.2875,1.4074,1.3273,1.3089,1.4117,1.4202,1.4202,1.4202,1.4436,1.4583,1.4583,1.4874,1.5028,1.5068,1.5068,1.5082,1.5122,1.5331,1.5451,1.5464,1.5712,1.5784,-0.3012,-0.2426,-0.2148,-0.0942,-0.0461,-0.0332,-0.0332,-0.0142,0.0,0.0,0.0,0.0,0.0,0.0,0.0,0.0,0.0,0.0,0.0,0.0,0.0424,0.0,0.0,0.0,0.0,0.0,0.0,0.0,0.0,0.0,0.7495,0.7363,0.7248,0.7098,0.7095,0.7095,0.7095,0.7095,0.7095,0.7095,0.7095,0.7095,0.7095,0.7095,0.7055,0.6987,0.0,0.0,0.6987,0.7065,0.7095,0.7095,0.7095,0.7095,0.7112,0.7285,0.7329,0.7353,0.7506,0.756,0.7556,0.7529,0.7539,0.756,0.756,0.758,0.76,0.76,0.76,0.7628,0.7743,0.7773,0.7804,0.7884,0.7914,0.7914,0.7914,0.7865,0.7773,0.7773,0.7678,0.7922,0.8839,0.9904,1.1053,1.2233,1.3341,1.4224,1.4636,1.3726,1.353,1.4721,1.467,1.4625,1.481,1.4854,1.4854,1.4854,1.4901,1.4928,1.4928,1.4981,1.5122,1.5317,1.5317,1.5438,1.5678,1.5732,1.5752,1.5711,1.5758,1.5784,-0.244,-0.1805,-0.1526,-0.0318,0.0,0.0,0.0,0.0,0.0,0.0,0.0,0.0,0.0,0.0,0.0,0.0,0.0,0.0,0.0,0.0,0.0,0.0,0.0,0.0,0.0,0.0,0.0,0.0,0.0,0.0,0.7712,0.757,0.7421,0.7265,0.7261,0.7221,0.7095,0.7095,0.7095,0.7095,0.7095,0.7095,0.7095,0.7095,0.7095,0.7095,0.7095,0.0,0.681,0.7001,0.696,0.6824,0.7139,0.7261,0.7278,0.7434,0.7492,0.7512,0.7658,0.7709,0.7723,0.7801,0.7773,0.7709,0.7709,0.7767,0.7828,0.7828,0.7828,0.7845,0.7864,0.788,0.7897,0.7971,0.7988,0.7988,0.7988,0.7931,0.788,0.788,0.7875,0.7969,0.8538,0.916,1.0248,1.2141,1.2952,1.39,1.5226,1.4895,1.4687,1.4952,1.5008,1.5008,1.5008,1.5008,1.5008,1.5008,1.5149,1.519,1.519,1.5337,1.5478,1.5618,1.5618,1.5691,1.5784,1.5784,1.5784,1.5784,1.5784,1.5784,-0.2363,-0.1591,-0.117,-0.023,0.0,0.0,0.0,0.0,0.0,0.0,0.0,0.0,0.0,0.0,0.0,0.0,0.0,0.0,0.0,0.0,0.0,0.0,0.0,0.0,0.0,0.0,0.0,0.0,0.0,0.0,0.7807,0.7706,0.756,0.7422,0.7415,0.7295,0.7098,0.7095,0.7095,0.7095,0.7095,0.7095,0.7095,0.7095,0.7095,0.7095,0.7095,0.0,0.0,0.6956,0.6895,0.6617,0.7194,0.7436,0.7438,0.759,0.7645,0.7665,0.7811,0.7862,0.7879,0.7951,0.7911,0.7862,0.7862,0.7894,0.7988,0.7988,0.7988,0.7988,0.7988,0.7988,0.7988,0.7988,0.7988,0.7988,0.7988,0.7988,0.7988,0.7988,0.7988,0.7988,0.7988,0.8233,0.9213,1.1556,1.2139,1.3156,1.5486,1.5784,1.5658,1.5197,1.515,1.515,1.515,1.515,1.515,1.515,1.5364,1.5491,1.5491,1.5705,1.5784,1.5784,1.5784,1.5784,1.5784,1.5784,1.5784,1.5784,1.5784,1.5784,-0.2087,-0.0985,-0.0135,-0.0046,0.0,0.0,0.0,0.0,0.0,0.0,0.0,0.0,0.0,0.0,0.0,0.0,0.0,0.0,0.0,0.0,0.0,0.0,0.0,0.0,0.0,0.0,0.0,0.0,0.0,0.0,0.0,0.7797,0.7662,0.7426,0.7415,0.7295,0.7098,0.7095,0.7095,0.7095,0.7095,0.7095,0.7095,0.7095,0.7095,0.7095,0.0,0.0,0.0,0.6956,0.6916,0.6725,0.7235,0.7455,0.7597,0.774,0.779,0.7814,0.7917,0.7968,0.7971,0.7985,0.7982,0.7968,0.7968,0.7978,0.7988,0.7988,0.7988,0.7988,0.7988,0.7988,0.7988,0.7988,0.7988,0.7988,0.7988,0.7988,0.7988,0.7988,0.7988,0.7988,0.7988,0.9019,1.0288,1.1707,1.2958,1.422,1.5635,1.5784,1.5758,1.5711,1.5752,1.5752,1.5752,1.5752,1.5752,1.5752,1.5724,1.5744,1.5744,1.5764,1.5784,1.5784,1.5784,1.5784,1.5784,1.5784,1.5784,1.5784,1.5784,1.5784,-0.1208,-0.0352,0.0,0.0,0.0,0.0,0.0,0.0,0.0,0.0,0.0,0.0,0.0,0.0,0.0,0.0,0.0,0.0,0.0,0.0,0.0,0.0,0.0,0.0,0.0,0.0,0.0,0.0,0.0,0.0,0.0,0.7897,0.7851,0.7641,0.7553,0.7434,0.7282,0.7142,0.7095,0.7095,0.7095,0.7095,0.7095,0.7095,0.7095,0.7095,0.0,0.0,0.0,0.6943,0.6892,0.6386,0.7285,0.7675,0.7743,0.7892,0.7897,0.7907,0.7968,0.7988,0.7988,0.7988,0.7988,0.7988,0.7988,0.7988,0.7988,0.7988,0.7988,0.7988,0.7988,0.7988,0.7988,0.7988,0.7988,0.7988,0.7988,0.7988,0.7988,0.7988,0.7988,0.7988,0.7988,0.8432,0.9509,1.1604,1.2334,1.3445,1.5534,1.5784,1.5784,1.5784,1.5784,1.5784,1.5784,1.5784,1.5784,1.5784,1.5784,1.5784,1.5784,1.5784,1.5784,1.5784,1.5784,1.5784,1.5784,1.5784,1.5784,1.5784,1.5784,1.5784,-0.1061,-0.0482,-0.0457,-0.0095,0.0,0.0,0.0,0.0,0.0,0.0,0.0,0.0,0.0,0.0,0.0,0.0,0.0,0.0,0.0,0.0,0.0,0.0,0.0,0.0,0.0,0.0,0.0,0.0,0.0,0.0,0.0,0.7988,0.7921,0.7818,0.7675,0.7526,0.7419,0.7217,0.7095,0.7095,0.7095,0.7028,0.6946,0.7038,0.7024,0.6949,0.0,0.0,0.0,0.701,0.697,0.6414,0.7431,0.7838,0.7892,0.7948,0.7988,0.7988,0.7988,0.7988,0.7988,0.7988,0.7988,0.7988,0.7988,0.7988,0.7988,0.7988,0.7988,0.7988,0.7988,0.7988,0.7988,0.7988,0.7988,0.7988,0.7988,0.7988,0.7988,0.7988,0.7988,0.7988,0.7988,0.7988,0.8775,1.1019,1.1653,1.2721,1.4949,1.5581,1.5784,1.5784,1.5784,1.5784,1.5784,1.5784,1.5784,1.5784,1.5784,1.5784,1.5784,1.5784,1.5784,1.5784,1.5784,1.5784,1.5784,1.5784,1.5784,1.5784,1.5784,1.5784,-0.214,-0.1699,-0.1485,-0.0284,0.0,0.0,0.0,0.0,0.0,0.0,0.0,0.0,0.0,0.0,0.0,0.0,0.0,0.0,0.0,0.0,0.0,0.0,0.0,0.0,0.0,0.0,0.0,0.0,0.0,0.0,0.0,0.7988,0.7921,0.7818,0.7675,0.7526,0.7419,0.7217,0.7095,0.7095,0.7095,0.6909,0.6535,0.6939,0.6898,0.0,0.0,0.0,0.0,0.7183,0.7275,0.7129,0.7631,0.7902,0.7988,0.7988,0.7988,0.7988,0.7988,0.7988,0.7988,0.7988,0.7988,0.7988,0.7988,0.7988,0.7988,0.7988,0.7988,0.7988,0.7988,0.7988,0.7988,0.7988,0.7988,0.7988,0.7988,0.7988,0.7988,0.7988,0.7988,0.7988,0.7988,0.7988,0.8482,0.9805,1.1068,1.2382,1.3734,1.4997,1.5784,1.5784,1.5784,1.5784,1.5784,1.5784,1.5784,1.5784,1.5784,1.5784,1.5784,1.5784,1.5784,1.5784,1.5784,1.5784,1.5784,1.5784,1.5784,1.5784,1.5784,1.5784,-0.2849,-0.2522,-0.2473,-0.2213,-0.16,-0.11,-0.1077,0.0,0.0,0.0,0.0,0.0,0.0,0.0,0.0,0.0,0.0,0.0,0.0,0.0,0.0,0.0,0.0,0.0,0.0,0.0,0.0,0.0,0.0,0.0,0.0,0.0,0.7968,0.7921,0.7729,0.7577,0.7529,0.7223,0.7095,0.7095,0.7095,0.6905,0.6528,0.6936,0.0,0.0,0.0,0.0,0.0,0.7404,0.7461,0.7149,0.7702,0.7948,0.7988,0.7988,0.7988,0.7988,0.7988,0.7988,0.7988,0.7988,0.7988,0.7988,0.7988,0.7988,0.7988,0.7988,0.7988,0.7988,0.7988,0.7988,0.7988,0.7988,0.7988,0.7988,0.7988,0.7988,0.7988,0.7988,0.7988,0.7988,0.7988,0.7988,0.8432,0.9801,1.1068,1.2377,1.3728,1.4997,1.5784,1.5784,1.5784,1.5784,1.5784,1.5784,1.5784,1.5784,1.5784,1.5784,1.5784,1.5784,1.5784,1.5784,1.5784,1.5784,1.5784,1.5784,1.5784,1.5784,1.5784,1.5784,0.0,-0.3521,-0.3515,-0.3175,-0.2625,0.0,0.0,0.0,-0.061,-0.0592,-0.0279,0.0,0.0,0.0,0.0,0.0,0.0,0.0,0.0,0.0,0.0,0.0,0.0,0.0,0.0,0.0,0.0,0.0,0.0,0.0,0.0,0.0,0.7965,0.7907,0.7723,0.76,0.76,0.725,0.7095,0.7095,0.7095,0.6905,0.6528,0.6936,0.0,0.0,0.0,0.0,0.0,0.7597,0.7678,0.7469,0.7843,0.7988,0.7988,0.7988,0.7686,0.7335,0.7839,0.7686,0.7335,0.7839,0.7637,0.7235,0.7235,0.7587,0.7988,0.7988,0.7988,0.7988,0.7988,0.7988,0.7988,0.7988,0.7988,0.7988,0.7988,0.7988,0.7988,0.7988,0.7988,0.7988,0.7988,0.7988,0.8283,0.9118,1.0337,1.1653,1.2958,1.4268,1.5289,1.573,1.5784,1.5784,1.5784,1.5784,1.5784,1.5784,1.5784,1.5784,1.5784,1.5784,1.5784,1.5784,1.5784,1.5784,1.5784,1.5784,1.5784,1.5784,1.5784,1.5784,0.0,0.0,0.0,0.0,0.0,0.0,0.0,0.0,0.0,-0.1614,-0.0735,0.0,0.0,0.0,0.0,0.0,0.0,0.0,0.0,0.0,0.0,0.0,0.0,0.0,0.0,0.0,0.0,0.0,0.0,0.0,0.0,0.0,0.7921,0.7818,0.7675,0.7594,0.7584,0.7243,0.7085,0.7065,0.7085,0.6895,0.6497,0.6926,0.0,0.0,0.0,0.0,0.0,0.777,0.7913,0.7988,0.7988,0.7988,0.7988,0.7988,0.7132,0.6179,0.7437,0.6983,0.6079,0.7335,0.6933,0.5979,0.5879,0.6783,0.7839,0.7839,0.7939,0.7988,0.7988,0.7988,0.7988,0.7988,0.7988,0.7988,0.7988,0.7988,0.7988,0.7988,0.7988,0.7988,0.7988,0.7988,0.7988,0.7988,0.9118,1.044,1.1609,1.3006,1.4364,1.5534,1.573,1.5784,1.5784,1.5784,1.5784,1.5784,1.5784,1.5784,1.5784,1.5784,1.5784,1.5784,1.5784,1.5784,1.5784,1.5784,1.5784,1.5784,1.5784,1.5784,-0.5355,0.0,-0.552,-0.5348,-0.48,0.0,0.0,0.0,0.0,0.0,0.0,0.0,0.0,0.0,0.0,0.0,0.0,0.0,0.0,0.0,0.0,0.0,0.0,0.0,0.0,0.0,0.0,0.0,0.0,0.0,0.0,0.0,0.7921,0.7818,0.7675,0.7543,0.7424,0.7234,0.6984,0.6807,0.6991,0.6745,0.6156,0.6788,0.0,0.0,0.0,0.0,0.7773,0.7874,0.7958,0.7988,0.7988,0.7988,0.7988,0.7988,0.7132,0.6029,0.6379,0.5575,0.4518,0.4818,0.5422,0.5827,0.477,0.5422,0.6481,0.6481,0.7185,0.7988,0.7988,0.7988,0.7988,0.7988,0.7988,0.7988,0.7988,0.7988,0.7988,0.7988,0.7988,0.7988,0.7988,0.7988,0.7988,0.7988,0.9118,1.0096,1.0386,1.2474,1.4022,1.4316,1.5242,1.5784,1.5784,1.5784,1.5784,1.5784,1.5784,1.5784,1.5784,1.5784,1.5784,1.5784,1.5784,1.5784,1.5784,1.5784,1.5784,1.5784,1.5784,1.5784,-0.5498,-0.5593,-0.5789,-0.6146,-0.5765,-0.5348,0.0,0.0,0.0,0.0,0.0,0.0,-0.0084,0.0,0.0,0.0,0.0,0.0,0.0,0.0,0.0,0.0,0.0,0.0,0.0,0.0,0.0,0.0,0.0,0.0,0.0,0.0,0.7868,0.7719,0.7573,0.7455,0.7415,0.7217,0.695,0.6705,0.6957,0.6815,0.6356,0.6852,0.0,0.0,0.0,0.0,0.7814,0.7831,0.787,0.7988,0.7988,0.7637,0.7083,0.7083,0.5827,0.4271,0.4872,0.4618,0.4016,0.4016,0.4067,0.4019,0.3316,0.3568,0.4422,0.5677,0.6983,0.7988,0.7988,0.7988,0.7988,0.7988,0.7988,0.7988,0.7988,0.7988,0.7988,0.7988,0.7988,0.7988,0.7988,0.7988,0.7988,0.7988,0.863,0.9312,0.9899,1.1258,1.2571,1.3776,1.4513,1.5146,1.573,1.5784,1.5784,1.5784,1.5784,1.5784,1.5784,1.5784,1.5784,1.5784,1.5784,1.5784,1.5784,1.5784,1.5784,1.5784,1.5784,1.5784,-0.5395,-0.5508,-0.5728,-0.6337,-0.6234,-0.6111,0.0,0.0,0.0,0.0,0.0,0.0,0.0,0.0,0.0,0.0,0.0,0.0,0.0,0.0,0.0,0.0,0.0,0.0,0.0,0.0,0.0,0.0,0.0,0.0,0.0,0.0,0.0,0.757,0.7441,0.7405,0.7336,0.7207,0.695,0.6705,0.6957,0.6943,0.6712,0.7031,0.0,0.0,0.0,0.0,0.7789,0.7474,0.7472,0.7686,0.7484,0.6681,0.5677,0.5677,0.4121,0.2113,0.3065,0.3516,0.3665,0.3465,0.2764,0.1962,0.1762,0.1862,0.2515,0.4972,0.6681,0.7739,0.7939,0.7988,0.7988,0.7988,0.7988,0.7988,0.7988,0.7988,0.7988,0.7988,0.7988,0.7988,0.7988,0.7988,0.7988,0.7988,0.7988,0.8432,0.9558,0.985,1.0872,1.3049,1.3488,1.4118,1.5391,1.5486,1.5581,1.5778,1.5784,1.5784,1.5784,1.5784,1.5784,1.5784,1.5784,1.5784,1.5784,1.5784,1.5784,1.5784,1.5784,1.5784,-0.5395,-0.5508,-0.5701,-0.6214,-0.6162,-0.6111,0.0,0.0,0.0,0.0,0.0,0.0,0.0,0.0,0.0,0.0,0.0,0.0,0.0,0.0,0.0,0.0,0.0,0.0,0.0,0.0,0.0,0.0,0.0,0.0,0.0,0.0,0.0,0.746,0.7429,0.7309,0.7132,0.7109,0.695,0.6705,0.6957,0.6943,0.6715,0.7143,0.7421,0.0,0.0,0.7821,0.7902,0.6732,0.625,0.6179,0.507,0.4468,0.4316,0.4316,0.3316,0.1862,0.0958,0.136,0.2113,0.1008,0.126,0.1812,0.0656,0.1109,0.2314,0.3867,0.5272,0.6581,0.7686,0.7988,0.7988,0.7988,0.7988,0.7988,0.7988,0.7988,0.7988,0.7988,0.7988,0.7988,0.7988,0.7988,0.7988,0.7988,0.7988,0.8088,0.8283,0.9316,1.0145,1.0583,1.1556,1.277,1.407,1.4166,1.4657,1.573,1.5784,1.5784,1.5784,1.5784,1.5784,1.5784,1.5784,1.5784,1.5784,1.5784,1.5784,1.5784,1.5784,1.5784,-0.5395,-0.5508,-0.5735,-0.6346,-0.6325,-0.6335,0.0,0.0,0.0,0.0,0.0,0.0,0.0,0.0,0.0,0.0,0.0,0.0,0.0,0.0,0.0,0.0,0.0,0.0,0.0,0.0,0.0,0.0,0.0,0.0,0.0,0.0,0.0,0.0,0.7288,0.7214,0.7095,0.7095,0.695,0.6705,0.6957,0.6943,0.6715,0.7166,0.7455,0.755,0.0,0.6684,0.6822,0.5308,0.4784,0.487,0.4218,0.3565,0.2815,0.2113,0.1461,0.0807,0.0202,0.0404,0.0807,0.0202,0.0404,0.0807,0.0202,0.0454,0.136,0.3416,0.497,0.6331,0.7637,0.7988,0.7988,0.7988,0.7988,0.7988,0.7988,0.7988,0.7988,0.7988,0.7988,0.7988,0.7988,0.7988,0.7988,0.7988,0.7988,0.7988,0.7988,0.8531,0.9217,0.9899,1.0534,1.1697,1.3728,1.3926,1.4459,1.573,1.5784,1.5784,1.5784,1.5784,1.5784,1.5784,1.5784,1.5784,1.5784,1.5784,1.5784,1.5784,1.5784,1.5784,-0.5395,-0.5532,-0.5793,-0.6437,0.0,0.0,0.0,0.0,0.0,0.0,0.0,0.0,0.0,0.0,0.0,0.0,0.0,0.0,0.0,0.0,0.0,0.0,0.0,0.0,0.0,0.0,0.0,0.0,0.0,0.0,0.0,0.0,0.0,0.0,0.7204,0.7095,0.7095,0.7095,0.6984,0.6807,0.6991,0.6977,0.6817,0.7234,0.7346,0.707,0.599,0.555,0.5413,0.3846,0.3329,0.3515,0.3165,0.2414,0.141,0.0404,0.0,0.0,0.0,0.0,0.0,0.0,0.0,0.0,0.0,0.0,0.0504,0.2864,0.452,0.5927,0.7587,0.7988,0.7988,0.7988,0.7988,0.7988,0.7988,0.7988,0.7988,0.7988,0.7988,0.7988,0.7988,0.7988,0.7988,0.7988,0.7988,0.7988,0.7988,0.7988,0.8382,0.941,0.9509,1.0578,1.3199,1.3728,1.4459,1.573,1.5784,1.5784,1.5784,1.5784,1.5784,1.5784,1.5784,1.5784,1.5784,1.5784,1.5784,1.5784,1.5784,1.5635,-0.5395,-0.5603,-0.5867,-0.6245,-0.6317,0.0,0.0,0.0,0.0,0.0,0.0,0.0,0.0,0.0,0.0,0.0,0.0,0.0,0.0,0.0,0.0,0.0,0.0,0.0,0.0,0.0,0.0,0.0,0.0,0.0,0.0,0.0,0.0,0.0,0.0,0.7095,0.7095,0.7095,0.7085,0.7065,0.7085,0.7085,0.7075,0.7438,0.6917,0.5745,0.5904,0.5255,0.4016,0.2657,0.2108,0.2013,0.0756,0.0252,0.0151,0.0051,0.0,0.0,0.0,0.0,0.0,0.0,0.0,0.0,0.0,0.0,0.0303,0.1762,0.3115,0.4718,0.7332,0.7988,0.7988,0.7988,0.7988,0.7988,0.7988,0.7988,0.7988,0.7988,0.7988,0.7988,0.7988,0.7988,0.7988,0.7988,0.7988,0.7988,0.7988,0.7988,0.8038,0.8137,0.8137,0.9213,1.1799,1.3199,1.4459,1.573,1.5784,1.5784,1.5784,1.5784,1.5784,1.5784,1.5784,1.5784,1.5784,1.5784,1.5784,1.5784,1.5784,1.5146,-0.5511,-0.5586,-0.583,-0.6508,0.0,0.0,0.0,0.0,0.0,0.0,0.0,0.0,0.0,0.0,0.0,0.0,0.0,0.0,0.0,0.0,0.0,0.0,0.0,0.0,0.0,0.0,0.0,0.0,0.0,0.0,0.0,0.0,0.0,0.0,0.0,0.7095,0.7095,0.7095,0.7095,0.7095,0.7095,0.7095,0.7061,0.6565,0.607,0.5509,0.4102,0.3217,0.2665,0.131,0.0756,0.0706,0.0202,0.0,0.0,0.0,0.0,0.0,0.0,0.0,0.0,0.0,0.0,0.0,0.0,0.0,0.0303,0.1611,0.2363,0.3367,0.6077,0.7385,0.7988,0.7988,0.7988,0.7988,0.7988,0.7988,0.7988,0.7988,0.7988,0.7988,0.7988,0.7988,0.7988,0.7988,0.7988,0.7988,0.7988,0.7988,0.7988,0.7988,0.8726,0.9657,1.0632,1.2668,1.4118,1.4609,1.5343,1.5784,1.5784,1.5784,1.5784,1.5784,1.5784,1.5784,1.5784,1.5784,1.5391,1.4609,1.4609,1.3926,-0.5549,-0.5657,-0.5898,0.0,0.0,0.0,0.0,0.0,0.0,0.0,0.0,0.0,0.0,0.0,0.0,0.0,0.0,0.0,0.0,0.0,0.0,0.0,0.0,0.0,0.0,0.0,0.0,0.0,0.0,0.0,0.0,0.0,0.0,0.0,0.0,0.0,0.5977,0.5977,0.5977,0.5977,0.5977,0.6201,0.6523,0.5493,0.4789,0.4326,0.272,0.1762,0.131,0.0353,0.0,0.0,0.0,0.0,0.0,0.0,0.0,0.0,0.0,0.0,0.0,0.0,0.0,0.0,0.0,0.0,0.0202,0.1109,0.1661,0.2414,0.4271,0.6027,0.7385,0.7385,0.7686,0.7988,0.7988,0.7988,0.7988,0.7988,0.7988,0.7988,0.7988,0.7988,0.7988,0.7988,0.7988,0.7988,0.7988,0.7988,0.7988,0.7988,0.8821,0.9558,0.9948,1.1648,1.2861,1.3247,1.4076,1.4758,1.5194,1.4806,1.4567,1.4567,1.4567,1.4567,1.4567,1.4567,1.4124,1.3247,1.3247,1.2571,-0.5555,-0.5806,-0.6064,0.0,0.0,0.0,0.0,0.0,0.0,0.0,0.0,0.0,0.0,0.0,0.0,0.0,0.0,0.0,0.0,0.0,0.0,0.0,0.0,0.0,0.0,0.0,0.0,0.0,0.0,0.0,0.0,0.0,0.0,0.0,0.0,0.0,0.3614,0.3614,0.3614,0.3614,0.357,0.4196,0.5366,0.4287,0.304,0.1812,0.1931,0.1209,0.0,0.0,0.0,0.0,0.0,0.0,0.0,0.0,0.0,0.0,0.0,0.0,0.0,0.0,0.0,0.0,0.0,0.0,0.0,0.0,0.0958,0.1962,0.1962,0.3969,0.5979,0.5979,0.7033,0.7988,0.7988,0.7988,0.7988,0.7988,0.7988,0.7988,0.7988,0.7988,0.7988,0.7988,0.7988,0.7988,0.7988,0.7988,0.7988,0.7988,0.7988,0.8531,0.985,0.9998,1.0534,1.1804,1.1896,1.2474,1.3824,1.2624,1.1896,1.1896,1.1896,1.1896,1.1896,1.1896,1.1896,1.1896,1.1896,1.1214,-0.6122,-0.6044,0.0,0.0,0.0,0.0,0.0,0.0,0.0,0.0,0.0,0.0,0.0,0.0,0.0,0.0,0.0,0.0,0.0,0.0,0.0,0.0,0.0,0.0,0.0,0.0,0.0,0.0,0.0,0.0,0.0,0.0,0.0,0.0,0.0,0.0,0.3614,0.3614,0.3614,0.357,0.2726,0.2949,0.4111,0.2939,0.2188,0.1765,0.0943,0.0353,0.0,0.0,0.0,0.0,0.0,0.0,0.0,0.0,0.0,0.0,0.0,0.0,0.0,0.0,0.0,0.0,0.0,0.0,0.0,0.0,0.0303,0.0605,0.0605,0.1863,0.367,0.5527,0.6282,0.6833,0.7789,0.7988,0.7988,0.7988,0.7988,0.7988,0.7988,0.7988,0.7988,0.7988,0.7988,0.7988,0.7988,0.7988,0.7988,0.7988,0.7988,0.8137,0.8577,0.946,1.0145,1.0534,1.0583,1.1116,1.2431,1.2091,1.1896,1.1896,1.1896,1.1896,1.1896,1.1896,1.1458,1.0583,1.0583,0.985,-0.5602,0.0,0.0,0.0,0.0,0.0,0.0,0.0,0.0,0.0,0.0,0.0,0.0,0.0,0.0,0.0,0.0,0.0,0.0,0.0,0.0,0.0,0.0,0.0,0.0,0.0,0.0,0.0,0.0,0.0,0.0,0.0,0.0,0.0,0.0,0.0,0.2191,0.2191,0.2191,0.2147,0.1433,0.1478,0.215,0.1402,0.1095,0.105,0.0298,0.0,0.0,0.0,0.0,0.0,0.0,0.0,0.0,0.0,0.0,0.0,0.0,0.0,0.0,0.0,0.0,0.0,0.0,0.0,0.0,0.0,0.0,0.0,0.0,0.0605,0.1762,0.392,0.4822,0.5575,0.693,0.7185,0.7385,0.7889,0.7988,0.7988,0.7988,0.7988,0.7988,0.7988,0.7988,0.7988,0.7988,0.7988,0.7988,0.7988,0.7988,0.7988,0.7988,0.8726,0.9217,0.9217,0.9217,0.9558,1.0337,1.0337,1.0337,1.0337,1.0337,1.0337,1.0337,1.0337,0.9948,0.9217,0.9217,0.8775,-0.4545,0.0,0.0,0.0,0.0,0.0,0.0,0.0,0.0,0.0,0.0,0.0,0.0,0.0,0.0,0.0,0.0,0.0,0.0,0.0,0.0,0.0,0.0,0.0,0.0,0.0,0.0,0.0,0.0,0.0,0.0,0.0,0.0,0.0,0.0,0.0,0.0,0.0,0.0,0.0,0.0,0.0,0.0,0.0,0.0,0.0,0.0,0.0,0.0,0.0,0.0,0.0,0.0,0.0,0.0,0.0,0.0,0.0,0.0,0.0,0.0,0.0,0.0,0.0,0.0,0.0,0.0,0.0,0.0,0.0,0.0,0.0,0.0303,0.1511,0.2865,0.4168,0.5525,0.5927,0.6379,0.7587,0.7939,0.7988,0.7988,0.7988,0.7988,0.7988,0.7988,0.7988,0.7988,0.7988,0.7988,0.7988,0.7988,0.7988,0.7988,0.7988,0.7988,0.7988,0.7988,0.7988,0.7988,0.7988,0.7988,0.7988,0.7988,0.7988,0.7988,0.7988,0.7988,0.7988,0.7988,0.7988,0.0,-0.4178,0.0,0.0,0.0,0.0,0.0,0.0,0.0,0.0,0.0,0.0,0.0,0.0,0.0,0.0,0.0,0.0,0.0,0.0,0.0,0.0,0.0,0.0,0.0,0.0,0.0,0.0,0.0,0.0,0.0,0.0,0.0,0.0,0.0,0.0,0.0,0.0,0.0,0.0,0.0,0.0,0.0,0.0,0.0,0.0,0.0,0.0,0.0,0.0,0.0,0.0,0.0,0.0,0.0,0.0,0.0,0.0,0.0,0.0,0.0,0.0,0.0,0.0,0.0,0.0,0.0,0.0,0.0,0.0,0.0,0.0,0.005,0.0353,0.146,0.2815,0.4117,0.5272,0.6079,0.6381,0.7285,0.7988,0.7988,0.7988,0.7988,0.7988,0.7988,0.7988,0.7988,0.7988,0.7988,0.7988,0.7988,0.7988,0.7988,0.7988,0.7988,0.7988,0.7988,0.7988,0.7988,0.7988,0.7988,0.7988,0.7988,0.7988,0.7988,0.7988,0.7988,0.7988,0.7988,0.7988,0.0,0.0,0.0,0.0,0.0,0.0,0.0,0.0,0.0,0.0,0.0,0.0,0.0,0.0,0.0,0.0,0.0,0.0,0.0,0.0,0.0,0.0,0.0,0.0,0.0,0.0,0.0,0.0,0.0,0.0,0.0,0.0,0.0,0.0,0.0,0.0,0.0,0.0,0.0,0.0,0.0,0.0,0.0,0.0,0.0,0.0,0.0,0.0,0.0,0.0,0.0,0.0,0.0,0.0,0.0,0.0,0.0,0.0,0.0,0.0,0.0,0.0,0.0,0.0,0.0,0.0,0.0,0.0,0.0,0.0,0.0,0.0,0.0,0.0,0.0555,0.141,0.2764,0.4117,0.5222,0.5879,0.7083,0.7988,0.7988,0.7988,0.7988,0.7988,0.7988,0.7988,0.7988,0.7988,0.7988,0.7988,0.7988,0.7988,0.7988,0.7988,0.7988,0.7988,0.7988,0.7988,0.7988,0.7988,0.7988,0.7988,0.7988,0.7988,0.7988,0.7988,0.7988,0.7988,0.7988,0.7988,0.0,0.0,0.0,0.0,0.0,0.0,0.0,0.0,0.0,0.0,0.0,0.0,0.0,0.0,0.0,0.0,0.0,0.0,0.0,0.0,0.0,0.0,0.0,0.0,0.0,0.0,0.0,0.0,0.0,0.0,0.0,0.0,0.0,0.0,0.0,0.0,0.0,0.0,0.0,0.0,0.0,0.0,0.0,0.0,0.0,0.0,0.0,0.0,0.0,0.0,0.0,0.0,0.0,0.0,0.0,0.0,0.0,0.0,0.0,0.0,0.0,0.0,0.0,0.0,0.0,0.0,0.0,0.0,0.0,0.0,0.0,0.0,0.0,0.0,0.0,0.0303,0.1411,0.2715,0.4067,0.5375,0.6933,0.7988,0.7988,0.7988,0.7988,0.7988,0.7988,0.7988,0.7988,0.7988,0.7988,0.7988,0.7988,0.7988,0.7988,0.7988,0.7988,0.7988,0.7988,0.7988,0.7988,0.7988,0.7889,0.7637,0.7637,0.7637,0.7637,0.7434,0.7332,0.7332,0.7332,0.7434,0.0,0.0,0.0,0.0,0.0,0.0,0.0,0.0,0.0,0.0,0.0,0.0,0.0,0.0,0.0,0.0,0.0,0.0,0.0,0.0,0.0,0.0,0.0,0.0,0.0,0.0,0.0,0.0,0.0,0.0,0.0,0.0,0.0,0.0,0.0,0.0,0.0,0.0,0.0,0.0,0.0,0.0,0.0,0.0,0.0,0.0,0.0,0.0,0.0,0.0,0.0,0.0,0.0,0.0,0.0,0.0,0.0,0.0,0.0,0.0,0.0,0.0,0.0,0.0,0.0,0.0,0.0,0.0,0.0,0.0,0.0,0.0,0.0,0.0,0.0,0.0051,0.0252,0.131,0.2665,0.4017,0.6274,0.7988,0.7988,0.7988,0.7988,0.7988,0.7988,0.7988,0.7988,0.7988,0.7988,0.7988,0.7988,0.7988,0.7988,0.7988,0.7988,0.7988,0.7988,0.7988,0.7988,0.7988,0.7434,0.6279,0.6279,0.6279,0.6279,0.512,0.4516,0.4516,0.4516,0.517,0.0,0.0,0.0,0.0,0.0,0.0,0.0,0.0,0.0,0.0,0.0,0.0,0.0,0.0,0.0,0.0,0.0,0.0,0.0,0.0,0.0,0.0,0.0,0.0,0.0,0.0,0.0,0.0,0.0,0.0,0.0,0.0,0.0,0.0,0.0,0.0,0.0,0.0,0.0,0.0,0.0,0.0,0.0,0.0,0.0,0.0,0.0,0.0,0.0,0.0,0.0,0.0,0.0,0.0,0.0,0.0,0.0,0.0,0.0,0.0,0.0,0.0,0.0,0.0,0.0,0.0,0.0,0.0,0.0,0.0,0.0,0.0,0.0,0.0,0.0,0.0,0.0,0.1058,0.2615,0.472,0.6077,0.7135,0.7889,0.7988,0.7988,0.7988,0.7988,0.7988,0.7988,0.7988,0.7988,0.7988,0.7988,0.7988,0.7988,0.7988,0.7988,0.7988,0.7988,0.7988,0.7988,0.7988,0.7385,0.6029,0.5979,0.5627,0.487,0.4268,0.4016,0.4016,0.4016,0.4316,0.0,0.0,0.0,0.0,0.0,0.0,0.0,0.0,0.0,0.0,0.0,0.0,0.0,0.0,0.0,0.0,0.0,0.0,0.0,0.0,0.0,0.0,0.0,0.0,0.0,0.0,0.0,0.0,0.0,0.0,0.0,0.0,0.0,0.0,0.0,0.0,0.0,0.0,0.0,0.0,0.0,0.0,0.0,0.0,0.0,0.0,0.0,0.0,0.0,0.0,0.0,0.0,0.0,0.0,0.0,0.0,0.0,0.0,0.0,0.0,0.0,0.0,0.0,0.0,0.0,0.0,0.0,0.0,0.0,0.0,0.0,0.0,0.0,0.0,0.0,0.0,0.0,0.1058,0.2615,0.4572,0.5527,0.6331,0.7335,0.7786,0.7988,0.7988,0.7988,0.7988,0.7988,0.7988,0.7988,0.7988,0.7988,0.7988,0.7988,0.7988,0.7988,0.7988,0.7988,0.7988,0.7988,0.7988,0.7232,0.5525,0.5475,0.4822,0.3515,0.3165,0.2964,0.2964,0.2964,0.3165,0.0,0.0,0.0,0.0,0.0,0.0,0.0,0.0,0.0,0.0,0.0,0.0,0.0,0.0,0.0,0.0,0.0,0.0,0.0,0.0,0.0,0.0,0.0,0.0,0.0,0.0,0.0,0.0,0.0,0.0,0.0,0.0,0.0,0.0,0.0,0.0,0.0,0.0,0.0,0.0,0.0,0.0,0.0,0.0,0.0,0.0,0.0,0.0,0.0,0.0,0.0,0.0,0.0,0.0,0.0,0.0,0.0,0.0,0.0,0.0,0.0,0.0,0.0,0.0,0.0,0.0,0.0,0.0,0.0,0.0,0.0,0.0,0.0,0.0,0.0,0.0,0.0,0.1058,0.2063,0.2163,0.4271,0.6029,0.6079,0.7132,0.7988,0.7988,0.7988,0.7988,0.7988,0.7988,0.7988,0.7988,0.7988,0.7988,0.7988,0.7988,0.7988,0.7988,0.7988,0.7988,0.7988,0.7988,0.6778,0.4166,0.4116,0.3466,0.2113,0.0807,0.0202,0.0202,0.0202,0.0907,0.0,0.0,0.0,0.0,0.0,0.0,0.0,0.0,0.0,0.0,0.0,0.0,0.0,0.0,0.0,0.0,0.0,0.0,0.0,0.0,0.0,0.0,0.0,0.0,0.0,0.0,0.0,0.0,0.0,0.0,0.0,0.0,0.0,0.0,0.0,0.0,0.0,0.0,0.0,0.0,0.0,0.0,0.0,0.0,0.0,0.0,0.0,0.0,0.0,0.0,0.0,0.0,0.0,0.0,0.0,0.0,0.0,0.0,0.0,0.0,0.0,0.0,0.0,0.0,0.0,0.0,0.0,0.0,0.0,0.0,0.0,0.0,0.0,0.0,0.0,0.0,0.0,0.0353,0.0958,0.1812,0.3466,0.497,0.5829,0.7132,0.7988,0.7988,0.7988,0.7988,0.7988,0.7988,0.7988,0.7988,0.7988,0.7988,0.7988,0.7988,0.7988,0.7988,0.7988,0.7988,0.7988,0.7988,0.6728,0.4066,0.4016,0.2914,0.0706,0.0252,0.0,0.0,0.0,0.0252,0.0,0.0,0.0,0.0,0.0,0.0,0.0,0.0,0.0,0.0,0.0,0.0,0.0,0.0,0.0,0.0,0.0,0.0,0.0,0.0,0.0,0.0,0.0,0.0,0.0,0.0,0.0,0.0,0.0,0.0,0.0,0.0,0.0,0.0,0.0,0.0,0.0,0.0,0.0,0.0,0.0,0.0,0.0,0.0,0.0,0.0,0.0,0.0,0.0,0.0,0.0,0.0,0.0,0.0,0.0,0.0,0.0,0.0,0.0,0.0,0.0,0.0,0.0,0.0,0.0,0.0,0.0,0.0,0.0,0.0,0.0,0.0,0.0,0.0,0.0,0.0,0.0,0.0,0.0252,0.1159,0.2414,0.3767,0.5122,0.6429,0.7484,0.7939,0.7988,0.7988,0.7988,0.7988,0.7988,0.7988,0.7988,0.7988,0.7988,0.7988,0.7988,0.7988,0.7988,0.7988,0.7988,0.7587,0.6276,0.4066,0.3565,0.2213,0.0,0.0,0.0,0.0,0.0,0.0,0.0,0.0,0.0,0.0,0.0,0.0,0.0,0.0,0.0,0.0,0.0,0.0,0.0,0.0,0.0,0.0,0.0,0.0,0.0,0.0,0.0,0.0,0.0,0.0,0.0,0.0,0.0,0.0,0.0,0.0,0.0,0.0,0.0,0.0,0.0,0.0,0.0,0.0,0.0,0.0,0.0,0.0,0.0,0.0,0.0,0.0,0.0,0.0,0.0,0.0,0.0,0.0,0.0,0.0,0.0,0.0,0.0,0.0,0.0,0.0,0.0,0.0,0.0,0.0,0.0,0.0,0.0,0.0,0.0,0.0,0.0,0.0,0.0,0.0,0.0,0.0,0.0,0.0,0.0,0.0,0.1109,0.2464,0.3765,0.5122,0.6481,0.7789,0.7988,0.7988,0.7988,0.7988,0.7988,0.7988,0.7988,0.7988,0.7988,0.7988,0.7988,0.7988,0.7988,0.7988,0.7988,0.6731,0.5375,0.4016,0.2665,0.136,0.0,0.0,0.0,0.0,0.0,0.0,-0.2029,0.0,0.0,0.0,0.0,0.0,0.0,0.0,0.0,0.0,0.0,0.0,0.0,0.0,0.0,0.0,0.0,0.0,0.0,0.0,0.0,0.0,0.0,0.0,0.0,0.0,0.0,0.0,0.0,0.0,0.0,0.0,0.0,0.0,0.0,0.0,0.0,0.0,0.0,0.0,0.0,0.0,0.0,0.0,0.0,0.0,0.0,0.0,0.0,0.0,0.0,0.0,0.0,0.0,0.0,0.0,0.0,0.0,0.0,0.0,0.0,0.0,0.0,0.0,0.0,0.0,0.0,0.0,0.0,0.0,0.0,0.0,0.0,0.0,0.0,0.0,0.0,0.0,0.0,0.0,0.1862,0.3565,0.3915,0.5922,0.7587,0.7939,0.7988,0.7988,0.7988,0.7988,0.7988,0.7988,0.7988,0.7988,0.7988,0.7988,0.7988,0.7988,0.7988,0.7988,0.7988,0.6731,0.5375,0.4016,0.2665,0.136,0.0,0.0,0.0,0.0,0.0,0.0,0.0,0.0,0.0,0.0,0.0,0.0,0.0,0.0,0.0,0.0,0.0,0.0,0.0,0.0,0.0,0.0,0.0,0.0,0.0,0.0,0.0,0.0,0.0,0.0,0.0,0.0,0.0,0.0,0.0,0.0,0.0,0.0,0.0,0.0,0.0,0.0,0.0,0.0,0.0,0.0,0.0,0.0,0.0,0.0,0.0,0.0,0.0,0.0,0.0,0.0,0.0,0.0,0.0,0.0,0.0,0.0,0.0,0.0,0.0,0.0,0.0,0.0,0.0,0.0,0.0,0.0,0.0,0.0,0.0,0.0,0.0,0.0,0.0,0.0,0.0,0.0,0.0,0.0,0.0,0.0,0.1711,0.3366,0.3915,0.5772,0.7335,0.7939,0.7988,0.7988,0.7988,0.7988,0.7988,0.7988,0.7988,0.7988,0.7988,0.7988,0.7988,0.7988,0.7988,0.7988,0.7988,0.6176,0.482,0.4016,0.2113,0.0756,0.0,0.0,0.0,0.0,0.0,0.0303,0.0,0.0,0.0,0.0,0.0,0.0,0.0,0.0,0.0,0.0,0.0,0.0,0.0,0.0,0.0,0.0,0.0,0.0,0.0,0.0,0.0,0.0,0.0,0.0,0.0,0.0,0.0,0.0,0.0,0.0,0.0,0.0,0.0,0.0,0.0,0.0,0.0,0.0,0.0,0.0,0.0,0.0,0.0,0.0,0.0,0.0,0.0,0.0,0.0,0.0,0.0,0.0,0.0,0.0,0.0,0.0,0.0,0.0,0.0,0.0,0.0,0.0,0.0,0.0,0.0,0.0,0.0,0.0,0.0,0.0,0.0,0.0,0.0,0.0,0.0,0.0,0.0,0.0,0.0,0.0,0.1209,0.2665,0.3966,0.5322,0.6631,0.7839,0.7988,0.7988,0.7988,0.7988,0.7988,0.7988,0.7988,0.7988,0.7988,0.7988,0.7988,0.7988,0.7988,0.7988,0.7988,0.542,0.4016,0.4016,0.136,0.0,0.0,0.0,0.0,0.0,0.0151,0.0857,0.0,0.0,0.0,0.0,0.0,0.0,0.0,0.0,0.0,0.0,0.0,0.0,0.0,0.0,0.0,0.0,0.0,0.0,0.0,0.0,0.0,0.0,0.0,0.0,0.0,0.0,0.0,0.0,0.0,0.0,0.0,0.0,0.0,0.0,0.0,0.0,0.0,0.0,0.0,0.0,0.0,0.0,0.0,0.0,0.0,0.0,0.0,0.0,0.0,0.0,0.0,0.0,0.0,0.0,0.0,0.0,0.0,0.0,0.0,0.0,0.0,0.0,0.0,0.0,0.0,0.0,0.0,0.0,0.0,0.0,0.0,0.0,0.0,0.0,0.0,0.0,0.0,0.0,0.0,0.0,0.1962,0.4017,0.5375,0.6731,0.7686,0.7939,0.7988,0.7988,0.7988,0.7988,0.7988,0.7988,0.7988,0.7988,0.7988,0.7988,0.7988,0.7988,0.7988,0.7988,0.7988,0.542,0.4016,0.4016,0.136,0.0,0.0,0.0,0.0,0.0051,0.1109,0.1762,0.0,0.0,0.0,-0.1318,0.0,0.0,0.0,0.0,0.0,0.0,0.0,0.0,0.0,0.0,0.0,0.0,0.0,0.0,0.0,0.0,0.0,0.0,0.0,0.0,0.0,0.0,0.0,0.0,0.0,0.0,0.0,0.0,0.0,0.0,0.0,0.0,0.0,0.0,0.0,0.0,0.0,0.0,0.0,0.0,0.0,0.0,0.0,0.0,0.0,0.0,0.0,0.0,0.0,0.0,0.0,0.0,0.0,0.0,0.0,0.0,0.0,0.0,0.0,0.0,0.0,0.0,0.0,0.0,0.0,0.0,0.0,0.0,0.0,0.0,0.0,0.0,0.0,0.0,0.0202,0.0857,0.2614,0.4216,0.487,0.6678,0.7988,0.7988,0.7988,0.7988,0.7988,0.7988,0.7988,0.7988,0.7988,0.7988,0.7988,0.7988,0.7988,0.7988,0.7988,0.7988,0.7988,0.6074,0.437,0.3015,0.1008,0.0353,0.1008,0.1008,0.1008,0.1008,0.2363,0.3366,0.0,0.0,0.0,0.0,0.0,-0.0189,0.0,0.0,0.0,0.0,0.0,0.0,0.0,0.0,0.0,0.0,0.0,0.0,0.0,0.0,0.0,0.0,0.0,0.0,0.0,0.0,0.0,0.0,0.0,0.0,0.0,0.0,0.0,0.0,0.0,0.0,0.0,0.0,0.0,0.0,0.0,0.0,0.0,0.0,0.0,0.0,0.0,0.0,0.0,0.0,0.0,0.0,0.0,0.0,0.0,0.0,0.0,0.0,0.0,0.0,0.0,0.0,0.0,0.0,0.0,0.0,0.0,0.0,0.0,0.0,0.0,0.0,0.0,0.0,0.0,0.0,0.0,0.0,0.0303,0.141,0.2914,0.4066,0.4318,0.6376,0.7988,0.7988,0.7988,0.7988,0.7988,0.7988,0.7988,0.7988,0.7988,0.7988,0.7988,0.7988,0.7988,0.7988,0.7988,0.7988,0.7988,0.6731,0.4872,0.2414,0.131,0.131,0.2363,0.2666,0.2615,0.2414,0.3767,0.497,0.0,0.0,0.0,0.0,-0.1529,0.0,0.0,0.0,0.0,0.0,0.0,0.0,0.0,0.0,0.0,0.0,0.0,0.0,0.0,0.0,0.0,0.0,0.0,0.0,0.0,0.0,0.0,0.0,0.0,0.0,0.0,0.0,0.0,0.0,0.0,0.0,0.0,0.0,0.0,0.0,0.0,0.0,0.0,0.0,0.0,0.0,0.0,0.0,0.0,0.0,0.0,0.0,0.0,0.0,0.0,0.0,0.0,0.0,0.0,0.0,0.0,0.0,0.0,0.0,0.0,0.0,0.0,0.0,0.0,0.0,0.0,0.0,0.0,0.0,0.0,0.0,0.0,0.0,0.0051,0.0202,0.2264,0.4368,0.5575,0.7033,0.7988,0.7988,0.7988,0.7988,0.7988,0.7988,0.7988,0.7988,0.7988,0.7988,0.7988,0.7988,0.7988,0.7988,0.7988,0.7988,0.7988,0.6731,0.5275,0.3815,0.3615,0.3615,0.3765,0.4972,0.4922,0.3815,0.5172,0.5879,0.0,0.0,0.0,0.0,0.0,0.0,0.0,0.0,0.0,0.0,0.0,0.0,0.0,0.0,0.0,0.0,0.0,0.0,0.0,0.0,0.0,0.0,0.0,0.0,0.0,0.0,0.0,0.0,0.0,0.0,0.0,0.0,0.0,0.0,0.0,0.0,0.0,0.0,0.0,0.0,0.0,0.0,0.0,0.0,0.0,0.0,0.0,0.0,0.0,0.0,0.0,0.0,0.0,0.0,0.0,0.0,0.0,0.0,0.0,0.0,0.0,0.0,0.0,0.0,0.0,0.0,0.0,0.0,0.0,0.0,0.0,0.0,0.0,0.0,0.0,0.0,0.0,0.0,0.0252,0.1008,0.2715,0.4418,0.5777,0.7132,0.7988,0.7988,0.7988,0.7988,0.7988,0.7988,0.7988,0.7988,0.7988,0.7988,0.7988,0.7988,0.7988,0.7988,0.7988,0.7988,0.7988,0.6731,0.5727,0.5172,0.4418,0.4368,0.5172,0.5727,0.6126,0.6326,0.688,0.7182,-0.4979,0.0,0.0,0.0,0.0,0.0,0.0,0.0,0.0,0.0,0.0,0.0,0.0,0.0,0.0,0.0,0.0,0.0,0.0,0.0,0.0,0.0,0.0,0.0,0.0,0.0,0.0,0.0,0.0,0.0,0.0,0.0,0.0,0.0,0.0,0.0,0.0,0.0,0.0,0.0,0.0,0.0,0.0,0.0,0.0,0.0,0.0,0.0,0.0,0.0,0.0,0.0,0.0,0.0,0.0,0.0,0.0,0.0,0.0,0.0,0.0,0.0,0.0,0.0,0.0,0.0,0.0,0.0,0.0,0.0,0.0,0.0,0.0,0.0,0.0,0.0,0.0,0.0,0.0303,0.126,0.2815,0.4316,0.5275,0.688,0.7988,0.7988,0.7988,0.7988,0.7988,0.7988,0.7988,0.7988,0.7988,0.7988,0.7988,0.7988,0.7988,0.7988,0.7988,0.7988,0.7988,0.7083,0.6531,0.6531,0.5572,0.5572,0.6531,0.6531,0.7036,0.7988,0.7988,0.7988,0.0,0.0,0.0,0.0,0.0,0.0,0.0,0.0,-0.0866,0.0,0.0,0.0,0.0,0.0,0.0,0.0,0.0,0.0,0.0,0.0,0.0,0.0,0.0,0.0,0.0,0.0,0.0,0.0,0.0,0.0,0.0,0.0,0.0,0.0,0.0,0.0,0.0,0.0,0.0,0.0,0.0,0.0,0.0,0.0,0.0,0.0,0.0,0.0,0.0,0.0,0.0,0.0,0.0,0.0,0.0,0.0,0.0,0.0,0.0,0.0,0.0,0.0,0.0,0.0,0.0,0.0,0.0,0.0,0.0,0.0,0.0,0.0,0.0,0.0,0.0,0.0,0.0,0.0,0.0,0.005,0.2213,0.4016,0.4066,0.6274,0.7988,0.7988,0.7988,0.7988,0.7988,0.7988,0.7988,0.7988,0.7988,0.7988,0.7988,0.7988,0.7988,0.7988,0.7988,0.7988,0.7988,0.7939,0.7939,0.7939,0.7889,0.7889,0.7939,0.7939,0.7939,0.7988,0.7988,0.7988,0.0,0.0,-0.5592,-0.5217,0.0,0.0,0.0,0.0,0.0,0.0,0.0,0.0,0.0,0.0,0.0,0.0,0.0,0.0,0.0,0.0,0.0,0.0,0.0,0.0,0.0,0.0,0.0,0.0,0.0,0.0,0.0,0.0,0.0,0.0,0.0,0.0,0.0,0.0,0.0,0.0,0.0,0.0,0.0,0.0,0.0,0.0,0.0,0.0,0.0,0.0,0.0,0.0,0.0,0.0,0.0,0.0,0.0,0.0,0.0,0.0,0.0,0.0,0.0,0.0,0.0,0.0,0.0,0.0,0.0,0.0,0.0,0.0,0.0,0.0,0.0,0.0,0.0,0.0,0.0252,0.1159,0.2764,0.4268,0.5172,0.683,0.7988,0.7988,0.7988,0.7988,0.7988,0.7988,0.7988,0.7988,0.7988,0.7988,0.7988,0.7988,0.7988,0.7988,0.7988,0.7988,0.7988,0.7988,0.7988,0.7988,0.7988,0.7988,0.7988,0.7988,0.7988,0.7988,0.7988,0.7988,-0.5911,-0.5962,0.0,0.0,-0.5269,0.0,-0.4272,0.0,0.0,0.0,0.0,0.0,0.0,0.0,0.0,0.0,0.0,0.0,0.0,0.0,0.0,0.0,0.0,0.0,0.0,0.0,0.0,0.0,0.0,0.0,0.0,0.0,0.0,0.0,0.0,0.0,0.0,0.0,0.0,0.0,0.0,0.0,0.0,0.0,0.0,0.0,0.0,0.0,0.0,0.0,0.0,0.0,0.0,0.0,0.0,0.0,0.0,0.0,0.0,0.0,0.0,0.0,0.0,0.0,0.0,0.0,0.0,0.0,0.0,0.0,0.0,0.0,0.0,0.0,0.0,0.0,0.0,0.0,0.0252,0.1109,0.2363,0.3717,0.5072,0.6379,0.7434,0.7939,0.7988,0.7988,0.7988,0.7988,0.7988,0.7988,0.7988,0.7988,0.7988,0.7988,0.7988,0.7988,0.7988,0.7988,0.7988,0.7988,0.7988,0.7988,0.7988,0.7988,0.7988,0.7988,0.7988,0.7992,0.8096,0.8123]},{"header":{"parameterUnit":"m.s-1","parameterCategory":1,"la1":30.6,"la2":29.2853,"lo1":-89.7004,"lo2":-87.6739,"dy":0.0162,"dx":0.0183,"nx":112,"ny":82,"refTime":"2023-10-13T12:00:00:Z","depth":0,"parameterNumber":3,"parameterNumberName":"V-component_of_WINDS"},"data":[0.0,0.0,0.0,0.0,0.0,0.0,0.0,0.0,0.0,0.0,0.0,0.0,0.0,0.0,0.0,0.0,0.0,0.0,0.0,0.0,0.0,0.0,0.0,0.0,0.0,0.0,0.0,0.0,0.0,0.0,0.0,0.0,0.0,0.0,0.0,0.0,0.0,0.0,0.0,0.0,0.0,0.0,0.0,0.0,0.0,0.0,0.0,0.0,0.0,0.0,0.0,0.0,0.0,0.0,0.0,0.0,0.0,0.0,0.0,0.0,0.0,0.0,0.0,0.0,0.0,0.0,0.0,0.0,0.0,0.0,0.0,0.0,0.0,0.0,0.0,0.0,0.0,0.0,0.0,0.0,0.0,0.0,0.0,0.0,0.0,0.0,0.0,0.0,0.0,0.0,0.0,1.8759,1.7882,1.6993,1.6531,1.65,1.581,1.4197,0.0,0.0,0.0,0.0,0.0,0.0,0.0,0.0,0.0,0.0,0.0,0.0,0.0,0.0,0.0,0.0,0.0,0.0,0.0,0.0,0.0,0.0,0.0,0.0,0.0,0.0,0.0,0.0,0.0,0.0,0.0,0.0,0.0,0.0,0.0,0.0,0.0,0.0,0.0,0.0,0.0,0.0,0.0,0.0,0.0,0.0,0.0,0.0,0.0,0.0,0.0,0.0,0.0,0.0,0.0,0.0,0.0,0.0,0.0,0.0,0.0,0.0,0.0,0.0,0.0,0.0,0.0,0.0,0.0,0.0,0.0,0.0,0.0,0.0,0.0,0.0,0.0,0.0,0.0,0.0,0.0,0.0,0.0,0.0,0.0,0.0,0.0,0.0,0.0,0.0,0.0,0.0,0.0,0.0,0.0,0.0,0.0,0.0,0.0,0.0,0.0,0.0,0.0,0.0,1.8514,1.9017,1.7602,1.6595,1.6522,1.65,1.581,1.4197,0.0,0.0,0.0,0.0,0.0,0.0,0.0,0.0,0.0,0.0,0.0,0.0,0.0,0.0,0.0,0.0,0.0,0.0,0.0,0.0,0.0,0.0,0.0,0.0,0.0,0.0,0.0,0.0,0.0,0.0,0.0,0.0,0.0,0.0,0.0,0.0,0.0,0.0,0.0,0.0,0.0,0.0,0.0,0.0,0.0,0.0,0.0,0.0,0.0,0.0,0.0,0.0,0.0,0.0,0.0,0.0,0.0,0.0,0.0,0.0,0.0,0.0,0.0,0.0,0.0,0.0,0.0,0.0,0.0,0.0,0.0,0.0,0.0,0.0,0.0,0.0,0.0,0.0,0.0,0.0,0.0,0.0,0.0,0.0,0.0,0.0,0.0,0.0,0.0,0.0,0.0,0.0,0.0,0.0,0.0,0.0,0.0,0.0,0.0,0.0,0.0,0.0,0.0,1.9042,1.9279,1.912,1.783,1.6861,1.6525,1.65,1.581,1.4197,1.4587,0.0,0.0,0.0,0.0,0.0,0.0,0.0,0.0,0.0,0.0,0.0,0.0,0.0,0.0,0.0,0.0,0.0,0.0,0.0,0.0,0.0,0.0,0.0,0.0,0.0,0.0,0.0,0.0,0.0,0.0,0.0,0.0,0.0,0.0,0.0,0.0,0.0,0.0,0.0,0.0,0.0,0.0,0.0,0.0,0.0,0.0,0.0,0.0,0.0,0.0,0.0,0.0,0.0,0.0,0.0,0.0,0.0,0.0,0.0,0.0,0.0,0.0,0.0,0.0,0.0,0.0,0.0,0.0,0.0,0.0,0.0,0.0,0.0,0.0,0.0,0.0,0.0,0.0,0.0,0.0,0.0,0.0,0.0,0.0,0.0,0.0,0.0,0.0,0.0,0.0,0.0,0.0,0.0,0.0,0.0,0.0,0.0,0.0,0.0,0.0,0.0,0.0,2.027,2.0041,1.994,1.8653,1.756,1.696,1.6786,1.5957,1.4209,1.4587,0.0,0.0,0.0,0.0,0.0,0.0,0.0,0.0,0.0,0.0,0.0,0.0,0.0,0.0,0.0,0.0,0.0,0.0,0.0,0.0,0.0,0.0,0.0,0.0,0.0,0.0,0.0,0.0,0.0,0.0,0.0,0.0,0.0,0.0,0.0,0.0,0.0,0.0,0.0,0.0,0.0,0.0,0.0,0.0,0.0,0.0,0.0,0.0,0.0,0.0,0.0,0.0,0.0,0.0,0.0,0.0,0.0,0.0,0.0,0.0,0.0,0.0,0.0,0.0,0.0,0.0,0.0,0.0,0.0,0.0,0.0,0.0,0.0,0.0,0.0,0.0,0.0,0.0,0.0,0.0,0.0,0.0,0.0,0.0,0.0,0.0,0.0,0.0,0.0,0.0,0.0,0.0,0.0,0.0,0.0,0.0,0.0,0.0,0.0,0.0,0.0,0.0,2.0971,2.1085,2.2224,2.0319,1.876,1.8211,1.7594,1.6332,1.4237,1.4587,0.0,0.0,0.0,0.0,0.0,0.0,0.0,0.0,0.0,0.0,0.0,0.0,0.0,0.0,0.0,0.0,0.0,0.0,0.0,0.0,0.0,0.0,0.0,0.0,0.0,0.0,0.0,0.0,0.0,0.0,0.0,0.0,0.0,0.0,0.0,0.0,0.0,0.0,0.0,0.0,0.0,0.0,0.0,0.0,0.0,0.0,0.0,0.0,0.0,0.0,0.0,0.0,0.0,0.0,0.0,0.0,0.0,0.0,0.0,0.0,0.0,0.0,0.0,0.0,0.0,0.0,0.0,0.0,0.0,0.0,0.0,0.0,0.0,0.0,0.0,0.0,0.0,0.0,0.0,0.0,0.0,0.0,0.0,0.0,0.0,0.0,0.0,0.0,0.0,0.0,0.0,0.0,0.0,0.0,0.0,0.0,0.0,0.0,0.0,0.0,0.0,0.0,2.2204,2.2389,0.0,2.147,2.0373,1.9496,1.8809,1.7646,1.584,0.0,0.0,0.0,0.0,0.0,0.0,0.0,0.0,0.0,0.0,0.0,0.0,0.0,0.0,0.0,0.0,0.0,0.0,0.0,0.0,0.0,0.0,0.0,0.0,0.0,0.0,0.0,0.0,0.0,0.0,0.0,0.0,0.0,0.0,0.0,0.0,0.0,0.0,0.0,0.0,0.0,0.0,0.0,0.0,0.0,0.0,0.0,0.0,0.0,0.0,0.0,0.0,0.0,0.0,0.0,0.0,0.0,0.0,0.0,0.0,0.0,0.0,0.0,0.0,0.0,0.0,0.0,0.0,0.0,0.0,0.0,0.0,0.0,0.0,0.0,0.0,0.0,0.0,0.0,0.0,0.0,0.0,0.0,0.0,0.0,0.0,0.0,0.0,0.0,0.0,0.0,0.0,0.0,0.0,0.0,0.0,0.0,0.0,0.0,0.0,0.0,0.0,2.2863,2.3618,2.4043,0.0,2.2965,2.2052,2.0983,2.0298,1.8935,1.6592,0.0,0.0,0.0,0.0,0.0,0.0,0.0,0.0,0.0,0.0,0.0,0.0,0.0,0.0,0.0,0.0,0.0,0.0,0.0,0.0,0.0,0.0,0.0,0.0,0.0,0.0,0.0,0.0,0.0,0.0,0.0,0.0,0.0,0.0,0.0,0.0,0.0,0.0,0.0,0.0,0.0,0.0,0.0,0.0,0.0,0.0,0.0,0.0,0.0,0.0,0.0,0.0,0.0,0.0,0.0,0.0,0.0,0.0,0.0,0.0,0.0,0.0,0.0,0.0,0.0,0.0,0.0,0.0,0.0,0.0,0.0,0.0,0.0,0.0,0.0,0.0,0.0,0.0,0.0,0.0,0.0,0.0,0.0,0.0,0.0,0.0,0.0,0.0,0.0,0.0,0.0,0.0,0.0,0.0,0.0,0.0,0.0,0.0,0.0,0.0,0.0,0.0,2.3885,2.514,2.6013,2.6013,2.4926,2.3778,2.2733,2.2079,2.0069,0.0,0.0,0.0,0.0,0.0,0.0,0.0,0.0,0.0,0.0,0.0,0.0,0.0,0.0,0.0,0.0,0.0,0.0,0.0,0.0,0.0,0.0,0.0,0.0,0.0,0.0,0.0,0.0,0.0,0.0,0.0,0.0,0.0,0.0,0.0,0.0,0.0,0.0,0.0,0.0,0.0,0.0,0.0,0.0,0.0,0.0,0.0,0.0,0.0,0.0,0.0,0.0,0.0,0.0,0.0,0.0,0.0,0.0,0.0,0.0,0.0,0.0,0.0,0.0,0.0,0.0,0.0,0.0,0.0,0.0,0.0,0.0,0.0,0.0,0.0,0.0,0.0,0.0,0.0,0.0,0.0,0.0,0.0,0.0,0.0,0.0,0.0,0.0,0.0,0.0,0.0,0.0,0.0,0.0,0.0,0.0,0.0,0.0,0.0,0.0,0.0,0.0,0.0,0.0,2.543,2.6367,2.6049,2.5673,2.5197,2.4504,2.3834,2.209,1.8848,0.0,0.0,0.0,0.0,0.0,0.0,0.0,0.0,0.0,0.0,0.0,0.0,0.0,0.0,0.0,0.0,0.0,0.0,0.0,0.0,0.0,0.0,0.0,0.0,0.0,0.0,0.0,0.0,0.0,0.0,0.0,0.0,0.0,0.0,0.0,0.0,0.0,0.0,0.0,0.0,0.0,0.0,0.0,0.0,0.0,0.0,0.0,0.0,0.0,0.0,0.0,0.0,0.0,0.0,0.0,0.0,0.0,0.0,0.0,0.0,0.0,0.0,0.0,0.0,0.0,0.0,0.0,0.0,0.0,0.0,0.0,0.0,0.0,0.0,0.0,0.0,0.0,0.0,0.0,0.0,0.0,0.0,0.0,0.0,0.0,0.0,0.0,0.0,0.0,0.0,0.0,0.0,0.0,0.0,0.0,0.0,0.0,0.0,0.0,0.0,0.0,0.0,2.4193,2.5777,2.6757,2.6332,2.6279,2.6068,2.5559,2.5151,2.3779,2.108,0.0,0.0,0.0,0.0,0.0,0.0,0.0,0.0,0.0,0.0,0.0,0.0,0.0,0.0,0.0,0.0,0.0,0.0,0.0,0.0,0.0,0.0,0.0,0.0,0.0,0.0,0.0,0.0,0.0,0.0,0.0,0.0,0.0,0.0,0.0,0.0,0.0,0.0,0.0,0.0,0.0,0.0,0.0,0.0,0.0,0.0,0.0,0.0,0.0,0.0,0.0,0.0,0.0,0.0,0.0,0.0,0.0,0.0,0.0,0.0,0.0,0.0,0.0,0.0,0.0,0.0,0.0,0.0,0.0,0.0,0.0,0.0,0.0,0.0,0.0,0.0,0.0,0.0,0.0,0.0,0.0,0.0,0.0,0.0,0.0,0.0,0.0,0.0,0.0,0.0,0.0,0.0,0.0,0.0,0.0,0.0,0.0,0.0,0.0,0.0,0.0,0.0,2.4641,2.6216,2.7225,2.6841,2.6791,2.6573,2.6157,2.6086,2.5106,2.2875,0.0,0.0,0.0,0.0,0.0,0.0,0.0,0.0,0.0,0.0,0.0,0.0,0.0,0.0,0.0,0.0,0.0,0.0,0.0,0.0,0.0,0.0,0.0,0.0,0.0,0.0,0.0,0.0,0.0,0.0,0.0,0.0,0.0,0.0,0.0,0.0,0.0,0.0,0.0,0.0,0.0,0.0,0.0,0.0,0.0,0.0,0.0,0.0,0.0,0.0,0.0,0.0,0.0,0.0,0.0,0.0,0.0,0.0,0.0,0.0,2.6751,0.0,0.0,0.0,0.0,0.0,0.0,0.0,0.0,0.0,0.0,0.0,0.0,0.0,0.0,0.0,0.0,0.0,0.0,0.0,0.0,0.0,0.0,0.0,0.0,0.0,0.0,0.0,0.0,0.0,0.0,0.0,0.0,0.0,0.0,0.0,0.0,0.0,0.0,0.0,0.0,0.0,2.5296,2.6739,2.7754,2.7648,2.7348,2.7129,2.7034,2.6724,2.5731,2.3819,0.0,0.0,0.0,0.0,0.0,0.0,0.0,0.0,0.0,0.0,0.0,0.0,0.0,0.0,0.0,0.0,0.0,0.0,0.0,0.0,0.0,0.0,0.0,0.0,0.0,0.0,0.0,0.0,0.0,0.0,0.0,0.0,0.0,0.0,0.0,0.0,0.0,0.0,0.0,0.0,0.0,0.0,0.0,0.0,0.0,0.0,0.0,0.0,0.0,0.0,0.0,0.0,0.0,0.0,0.0,0.0,0.0,0.0,0.0,0.0,0.0,2.6632,0.0,0.0,0.0,0.0,0.0,0.0,0.0,0.0,0.0,0.0,0.0,0.0,0.0,0.0,0.0,0.0,0.0,0.0,0.0,0.0,0.0,0.0,0.0,0.0,0.0,0.0,0.0,0.0,0.0,0.0,0.0,0.0,0.0,0.0,0.0,0.0,0.0,0.0,0.0,0.0,2.5521,2.7055,2.8075,2.7926,2.7707,2.7589,2.7589,2.7411,2.688,2.5932,2.5335,0.0,0.0,0.0,0.0,0.0,0.0,0.0,0.0,0.0,0.0,0.0,0.0,0.0,0.0,0.0,0.0,0.0,0.0,0.0,0.0,0.0,0.0,0.0,0.0,0.0,0.0,0.0,0.0,0.0,0.0,0.0,0.0,0.0,0.0,0.0,0.0,0.0,0.0,0.0,0.0,0.0,0.0,0.0,0.0,0.0,0.0,0.0,0.0,0.0,0.0,0.0,0.0,0.0,0.0,3.0842,3.0212,3.0651,3.037,2.9489,2.855,2.8649,2.9362,0.0,0.0,0.0,0.0,0.0,0.0,0.0,0.0,0.0,0.0,0.0,0.0,0.0,0.0,0.0,0.0,0.0,0.0,0.0,0.0,0.0,0.0,0.0,0.0,0.0,2.8263,2.7587,0.0,0.0,0.0,0.0,0.0,0.0,0.0,0.0,0.0,0.0,0.0,0.0,2.5626,2.7369,2.8517,2.8236,2.8121,2.8057,2.8057,2.7964,2.7897,2.7897,2.6964,2.6172,0.0,0.0,0.0,0.0,0.0,0.0,0.0,0.0,0.0,0.0,0.0,0.0,0.0,0.0,0.0,0.0,0.0,0.0,0.0,0.0,0.0,0.0,0.0,0.0,0.0,0.0,0.0,0.0,0.0,0.0,0.0,0.0,2.5833,2.7113,0.0,0.0,0.0,0.0,0.0,0.0,0.0,0.0,0.0,0.0,0.0,0.0,0.0,0.0,3.2808,3.3653,3.411,3.4198,3.427,3.4252,3.4147,3.4217,3.4181,3.3968,3.2577,0.0,3.0203,3.0561,0.0,0.0,0.0,0.0,0.0,0.0,0.0,0.0,0.0,0.0,0.0,0.0,0.0,0.0,0.0,0.0,0.0,0.0,0.0,0.0,0.0,0.0,3.1478,3.1637,3.0538,2.9677,0.0,2.7392,2.4772,2.574,0.0,0.0,0.0,0.0,0.0,0.0,0.0,0.0,2.6015,2.8051,2.9514,2.9458,2.8986,2.8687,2.8687,2.8196,2.7897,2.7897,2.7745,2.7168,2.6065,2.7026,0.0,0.0,0.0,0.0,0.0,0.0,0.0,0.0,0.0,0.0,0.0,0.0,0.0,0.0,0.0,0.0,0.0,0.0,0.0,0.0,0.0,0.0,0.0,0.0,0.0,0.0,0.0,0.0,0.0,2.5935,2.6912,2.754,2.7607,2.721,0.0,0.0,0.0,0.0,0.0,0.0,0.0,0.0,0.0,3.1179,3.307,3.397,3.3804,3.4942,3.574,3.6201,3.6452,3.6341,3.5929,3.6214,3.6109,3.5657,3.4999,3.4404,3.3758,3.2127,3.1349,3.1048,0.0,0.0,0.0,0.0,0.0,3.0155,2.891,0.0,0.0,0.0,0.0,0.0,0.0,0.0,0.0,0.0,0.0,0.0,0.0,0.0,0.0,3.3303,3.2787,3.2261,3.2215,2.9953,2.7873,0.0,2.6559,2.5584,2.5389,0.0,0.0,0.0,0.0,0.0,2.7442,2.8751,2.9705,2.9705,2.9458,2.9303,2.9303,2.9069,2.8898,2.8898,2.8898,2.8521,2.7659,2.8113,2.7653,0.0,0.0,0.0,0.0,0.0,0.0,0.0,0.0,0.0,0.0,0.0,0.0,0.0,0.0,0.0,0.0,0.0,0.0,0.0,0.0,0.0,0.0,0.0,0.0,0.0,0.0,0.0,0.0,2.6808,2.7845,2.8219,2.8699,2.8648,0.0,0.0,0.0,0.0,0.0,0.0,3.1911,3.2702,3.3104,3.3111,3.492,3.5605,3.5065,3.621,3.709,3.7701,3.8122,3.8021,3.747,3.7856,3.772,3.7146,3.7146,3.7257,3.7206,3.4118,3.2802,3.2744,3.2405,3.1522,3.0423,3.0362,3.0988,3.163,3.0143,3.1474,3.3648,3.2522,0.0,3.3411,3.2986,0.0,0.0,0.0,0.0,3.2762,3.3406,0.0,3.4293,3.448,3.4526,3.4295,3.341,3.1927,3.051,0.0,2.8173,2.695,2.6754,0.0,0.0,0.0,0.0,2.8529,2.8358,2.9243,2.9872,2.9872,2.9823,2.9771,2.9771,2.9739,2.9705,2.9705,2.9705,2.9505,2.9047,2.9037,2.8562,2.7549,0.0,0.0,0.0,0.0,0.0,0.0,0.0,0.0,0.0,0.0,0.0,0.0,0.0,0.0,0.0,0.0,0.0,0.0,0.0,0.0,0.0,0.0,0.0,0.0,0.0,0.0,0.0,0.0,0.0,2.9347,3.1144,0.0,0.0,0.0,0.0,2.9251,2.9298,3.051,3.3154,3.4057,3.5336,3.7154,3.8056,3.848,3.8444,3.8775,3.8956,3.9012,3.9352,3.9491,3.9453,3.9477,3.9458,3.9421,3.9421,3.9432,3.9289,3.7275,3.6354,3.613,3.5053,3.4274,3.3538,3.1723,3.2004,3.3214,3.2613,3.3546,3.5045,3.523,3.4603,3.3481,3.1882,3.1784,0.0,0.0,3.2481,3.3605,3.3089,3.4166,3.5416,3.5423,3.5423,3.5192,3.4314,3.2866,3.169,0.0,3.0154,2.8902,2.8695,0.0,2.8165,2.6524,2.7719,2.8581,2.8011,2.9367,3.0361,3.0361,3.0136,2.9991,2.9991,2.9804,2.9705,2.9705,2.9705,2.9696,2.9651,2.9651,2.9623,2.9559,2.854,0.0,0.0,0.0,0.0,0.0,0.0,0.0,0.0,0.0,0.0,0.0,0.0,0.0,0.0,0.0,0.0,0.0,0.0,0.0,0.0,0.0,0.0,0.0,0.0,0.0,0.0,0.0,0.0,2.9867,3.0663,0.0,0.0,3.136,3.1643,3.1935,3.3103,3.4462,3.5952,3.6299,3.7085,3.8479,3.8813,3.9054,3.9281,3.9371,3.9414,3.9414,3.9534,3.9599,3.9599,3.9599,3.9599,3.9599,3.9599,3.9712,3.9874,3.9182,3.8436,3.763,3.6707,3.6233,3.601,3.5476,3.5634,3.6024,3.5438,3.5633,3.6067,3.5633,3.5235,3.4781,3.4187,3.4143,3.4278,3.405,3.4468,3.4916,3.4693,3.5121,3.5626,3.5626,3.5626,3.5533,3.5227,3.4718,3.4156,3.3615,3.1678,3.0106,3.004,3.0458,3.024,2.8551,2.9244,2.9872,2.9676,3.0157,3.0525,3.0525,3.0449,3.0371,3.0328,3.0254,3.019,3.0148,3.0142,3.0073,2.9901,2.9893,2.9829,2.9705,2.9324,2.8147,0.0,0.0,0.0,0.0,0.0,0.0,0.0,0.0,0.0,0.0,0.0,0.0,0.0,0.0,0.0,0.0,0.0,0.0,0.0,0.0,0.0,0.0,0.0,0.0,0.0,0.0,2.9415,3.0781,3.1494,3.2215,3.3036,3.3401,3.3943,3.4852,3.6104,3.7239,3.8155,3.821,3.8524,3.9264,3.9264,3.9377,3.9599,3.9701,3.9775,3.9775,3.9853,3.9894,3.9894,3.9894,3.9609,3.9086,3.9666,3.9709,3.9438,3.9993,3.9795,3.9059,3.8518,3.8156,3.7928,3.8112,3.7991,3.7682,3.7271,3.6942,3.6615,3.6077,3.5733,3.5534,3.5534,3.5552,3.5574,3.5574,3.5605,3.5635,3.5635,3.5675,3.5707,3.5707,3.5707,3.5707,3.5707,3.5278,3.4906,3.4951,3.3348,3.1701,3.0812,3.1117,3.0881,2.9202,2.9157,2.9329,2.9329,2.9566,2.976,2.976,3.025,3.0581,3.0541,2.9981,2.9885,3.0434,2.993,2.9767,3.0198,2.9639,2.927,2.9129,2.8828,2.7782,2.6016,0.0,0.0,0.0,0.0,0.0,0.0,0.0,0.0,0.0,0.0,0.0,0.0,0.0,0.0,0.0,0.0,0.0,0.0,0.0,0.0,0.0,0.0,0.0,2.587,2.8774,3.1302,3.2232,3.3949,3.5399,3.6291,3.6364,3.6814,3.7869,3.7951,3.844,3.955,3.9542,3.9524,3.9535,3.9535,3.9547,3.9558,3.9924,4.011,4.011,4.0381,4.0504,4.0504,4.0512,3.9626,3.8183,3.98,3.9588,3.8222,3.9838,4.0512,4.0512,4.0504,4.0015,3.9342,3.9342,3.8796,3.8027,3.7976,3.7437,3.6745,3.6752,3.6266,3.5674,3.5654,3.5685,3.5726,3.5707,3.5707,3.571,3.571,3.571,3.5713,3.5713,3.5713,3.5713,3.5713,3.4479,3.3871,3.5571,3.5164,3.3734,3.1179,3.0728,3.0161,2.8513,2.7551,0.0,2.6962,2.771,2.8218,2.8199,2.9611,3.057,3.0609,2.9026,2.8779,3.0483,2.9019,2.8833,3.0522,2.8976,2.8094,2.8113,2.7205,2.7325,2.8512,0.0,0.0,0.0,0.0,0.0,0.0,0.0,0.0,0.0,0.0,0.0,0.0,0.0,0.0,0.0,0.0,0.0,0.0,0.0,0.0,0.0,0.0,3.1278,3.0764,3.1511,3.2949,3.519,3.5916,3.6652,3.7722,3.7821,3.8194,3.9074,3.9142,3.9272,3.958,3.8452,3.788,3.806,3.807,3.8185,3.844,3.9742,4.0389,4.0389,4.0568,4.0655,4.0655,4.0696,4.0471,4.0063,4.0529,4.0451,4.0063,4.0529,4.0723,4.0703,4.0568,4.0362,4.0169,4.0169,3.965,3.878,3.761,3.7458,3.781,3.7841,3.7719,3.7432,3.6802,3.6627,3.6508,3.5882,3.5766,3.5843,3.5843,3.5889,3.5927,3.5927,3.5927,3.5927,3.5927,3.5561,3.5408,3.5876,3.5756,3.5167,3.38,3.3566,3.3195,3.2101,0.0,0.0,3.0792,3.0929,3.0831,3.0205,2.9971,3.0081,3.062,2.9708,2.9511,0.0,3.0157,3.0098,3.0583,3.0137,3.0189,3.0818,2.9995,3.0023,0.0,0.0,0.0,0.0,0.0,0.0,0.0,0.0,0.0,0.0,0.0,0.0,0.0,0.0,0.0,0.0,0.0,0.0,0.0,0.0,0.0,0.0,3.2419,3.4286,3.4938,3.4741,3.5242,3.7185,3.7415,3.7805,3.8807,3.8894,3.9157,3.9759,3.9808,3.9861,3.9974,3.9061,3.8261,3.7734,3.8446,3.8592,3.8093,3.9766,4.0629,4.0629,4.0696,4.0732,4.0732,4.0788,4.0412,0.0,4.0509,4.0392,3.9816,4.0509,4.0797,0.0,0.0,0.0,0.0,0.0,4.0339,3.9789,3.8855,3.8636,3.8786,3.8836,3.8624,3.8241,3.7731,3.7379,3.6948,3.6068,3.5618,3.5398,3.5398,3.5427,3.5547,3.5918,3.5996,3.5996,3.5996,3.543,3.5137,3.5859,0.0,0.0,3.517,3.4628,3.375,3.2539,3.2031,3.1641,0.0,3.1426,3.1465,3.0957,3.1074,3.1366,3.1788,3.0394,0.0,0.0,0.0,3.0308,3.0661,3.0681,0.0,0.0,0.0,3.0738,0.0,0.0,0.0,0.0,3.0366,3.0004,0.0,0.0,0.0,0.0,0.0,0.0,0.0,0.0,0.0,0.0,0.0,0.0,0.0,0.0,0.0,0.0,3.4207,3.6093,3.8315,3.8022,3.7833,3.8507,3.859,3.8885,3.9626,3.9701,3.981,4.0129,4.0139,4.0241,4.0489,0.0,0.0,0.0,0.0,3.9724,3.8228,3.992,4.0797,4.0797,4.0809,4.0816,4.0816,4.0847,4.0023,3.8711,4.0195,4.0004,3.8747,4.0234,4.085,4.085,4.0809,4.0797,4.0778,4.0587,4.0645,0.0,0.0,0.0,0.0,3.9773,3.9292,3.8704,3.8606,3.8118,3.7402,3.6543,3.5742,3.5117,3.5019,3.498,3.5156,3.584,3.5996,3.5996,3.5996,3.4785,3.4141,3.5683,3.4694,3.4082,3.5602,3.4634,3.3142,3.1678,3.0779,0.0,3.0154,3.0838,3.1268,3.117,0.0,0.0,3.3377,3.1152,3.0507,3.2226,3.0817,3.0283,3.1063,3.1182,3.0489,2.8883,2.9696,3.0878,3.2365,3.3139,3.4333,3.583,3.2738,3.215,0.0,0.0,0.0,0.0,0.0,0.0,0.0,0.0,0.0,0.0,0.0,0.0,0.0,0.0,0.0,3.6296,3.7608,3.8818,3.9934,3.9961,3.9836,3.9785,3.9765,3.9919,4.0292,4.0328,4.0345,4.0433,4.0414,4.0449,4.0496,3.9316,0.0,3.8177,3.8548,3.8611,3.8284,3.9961,4.0797,4.0801,0.0,0.0,4.0962,4.1078,4.0951,4.0659,4.0971,4.0932,4.0659,4.0991,4.1126,4.1103,4.0877,4.0797,4.0645,3.9275,3.9641,4.0618,3.9372,3.972,4.0756,4.0868,4.0798,4.0526,3.9823,3.9511,0.0,3.834,3.7988,3.7676,3.6973,3.6797,3.666,3.6133,3.5996,3.5996,3.5996,3.5742,3.5585,3.5861,3.5635,3.5479,3.5702,3.5469,3.5146,3.4812,3.4637,3.4283,3.3638,3.3696,3.354,3.2834,3.2422,3.2464,3.3187,3.2138,3.1909,3.302,3.281,3.2714,3.289,3.3574,3.3788,3.3436,3.4275,3.488,3.5211,3.5387,3.5641,3.5956,3.5231,3.5465,0.0,0.0,0.0,0.0,0.0,0.0,0.0,0.0,0.0,0.0,0.0,3.3276,0.0,0.0,3.572,3.7504,3.8282,3.9084,4.0323,4.0496,4.0457,4.0321,4.0304,4.0356,4.0489,4.0496,4.0534,4.0609,4.0596,4.0617,4.0639,3.9927,3.9116,3.8285,3.9163,3.9246,3.8415,4.0129,4.0996,4.0996,4.1077,4.1103,4.1103,4.1171,4.1191,4.1191,4.1191,4.1191,4.1191,4.1191,4.1191,4.1191,4.1052,4.0996,4.0898,4.0065,4.0278,4.0883,4.0126,4.0403,4.1105,4.1171,4.1191,4.1113,4.0684,4.0254,3.9726,3.8848,3.8281,3.7851,3.7402,3.7305,3.7187,3.6758,3.6619,3.6476,3.6046,3.5897,3.5838,3.5809,3.5771,3.5725,3.5655,3.5616,3.5616,3.5689,3.5707,3.5548,3.5155,3.5097,3.4922,3.451,3.4059,3.3981,3.4413,3.3686,3.3391,3.3863,3.3934,3.4124,3.4536,3.4965,3.5201,3.5201,3.563,3.5845,3.5845,3.5845,3.6079,3.6506,3.6466,3.6727,0.0,0.0,0.0,0.0,0.0,0.0,0.0,0.0,3.3436,3.4017,3.4573,3.5195,3.6009,3.614,3.6656,3.8235,3.8488,3.895,4.0304,4.0527,4.053,4.053,4.053,4.053,4.053,4.0547,4.061,4.0713,4.0724,4.0732,4.0793,4.0816,4.0211,3.888,4.0266,4.0388,3.9048,4.0467,4.1191,4.1151,4.1151,4.1149,4.1126,4.1126,4.1126,4.1126,4.1126,4.1126,4.1126,4.1126,4.1126,4.1127,4.115,4.1151,4.1151,4.1191,4.1191,4.1191,4.1191,4.1191,4.1191,4.1191,4.1191,4.1191,4.1191,4.0703,4.0019,3.9297,3.8594,3.8027,3.7851,3.7793,3.7713,3.7557,3.7462,3.7212,3.6528,3.6156,3.5949,3.5931,3.576,3.56,3.5574,3.554,3.554,3.5638,3.5667,3.5667,3.5667,3.5667,3.5667,3.5667,3.5667,3.5667,3.5667,3.5076,3.4715,3.4715,3.4733,3.5019,3.5668,3.5707,3.5707,3.5707,3.5707,3.5781,3.5956,3.5956,3.64,3.7249,3.7401,3.75,2.7731,2.7266,2.8367,3.0998,3.2906,3.3824,0.0,0.0,3.7736,3.6377,3.803,3.9757,3.9888,3.9888,3.9973,4.0181,4.0227,4.0285,4.0477,4.0596,4.0674,4.0674,4.0674,4.0674,4.0674,4.0732,4.0768,4.08,4.0781,4.0785,4.0797,4.0914,4.089,4.0695,4.1008,4.1093,4.0898,4.1094,4.1149,4.1023,4.1023,4.0959,4.0831,4.0831,4.0831,4.0831,4.0831,4.0831,4.0831,4.0831,4.0831,4.086,4.0986,4.1023,4.1048,4.115,4.1191,4.1191,4.1191,4.1191,4.1191,4.1191,4.1191,4.1191,4.1191,4.1133,4.1035,4.0937,4.084,4.0586,3.9805,3.9524,3.9245,3.8463,3.8238,3.8151,3.8054,3.7408,3.6833,3.6775,3.6119,3.5588,3.5522,3.5494,3.5514,3.5515,3.5522,3.5522,3.5522,3.5522,3.5522,3.5522,3.5522,3.5522,3.5522,3.5499,3.5476,3.5476,3.5539,3.5606,3.5707,3.5707,3.5707,3.5707,3.5707,3.607,3.6856,3.6856,3.7304,3.8171,3.882,3.919,3.0009,3.0702,0.0,0.0,3.5897,3.6854,3.6872,3.828,3.9441,3.889,3.9707,4.0496,4.0496,3.9708,3.9398,0.0,3.9792,3.9521,4.0533,4.0713,4.0762,4.0762,3.9925,3.935,3.9316,4.02,4.0411,3.9466,4.0349,4.0955,4.1026,4.1081,4.1126,4.1126,4.1092,4.1081,4.1081,4.1017,4.0947,4.0877,4.0877,4.0857,4.0797,4.0797,4.0797,4.0797,4.0797,4.0797,4.0797,4.0797,4.0797,4.0801,4.0864,4.0877,4.0911,4.1126,4.1191,4.1191,4.1191,4.1191,4.1191,4.1191,4.1191,4.1191,4.1191,4.1191,4.1191,4.1191,4.1149,4.1003,4.0631,4.0442,4.0133,3.9292,3.9027,3.8806,3.8292,3.7868,3.7576,3.7553,3.725,3.6993,3.6957,3.6519,3.6192,3.6192,3.5808,3.55,3.55,3.55,3.55,3.55,3.55,3.55,3.55,3.5528,3.5534,3.5534,3.5579,3.5574,3.5574,3.5574,3.5806,3.627,3.6284,3.6709,3.7574,3.7574,3.8038,3.8883,3.9206,3.9618,3.2232,0.0,0.0,3.7026,3.8141,3.8926,3.9976,4.0204,4.0335,4.0765,4.0854,4.0935,4.1207,4.0258,0.0,4.1233,4.0431,4.0082,4.1338,4.1333,4.1036,4.0545,3.9282,3.805,3.7044,3.8917,3.9916,3.9214,4.033,4.1087,4.113,4.1149,4.1128,4.1082,4.0994,4.0933,4.0933,4.0854,4.0785,4.077,4.077,4.0752,4.0723,4.0723,4.0723,4.0723,4.0723,4.0723,4.0723,4.0723,4.0723,4.0723,4.0757,4.077,4.0796,4.1017,4.1106,4.1149,4.1149,4.1171,4.1191,4.1191,4.1191,4.1191,4.1191,4.1171,4.1149,4.1149,4.1052,4.0933,4.0933,4.0854,4.0634,4.0047,3.9799,3.954,3.8909,3.8542,3.8354,3.8354,3.8161,3.8007,3.8007,3.7488,3.7065,3.7065,3.6558,3.6019,3.5558,3.55,3.55,3.55,3.55,3.55,3.55,3.55,3.55,3.55,3.55,3.5596,3.5827,3.5827,3.6212,3.7038,3.7065,3.7488,3.8354,3.8354,3.8796,3.9631,3.9631,3.9938,0.0,0.0,3.4705,3.802,3.9067,3.95,4.0288,4.0489,4.0739,4.1577,4.175,4.2033,4.2944,4.3091,4.3106,4.3283,4.3284,4.3265,4.3308,4.2713,4.1638,3.9936,3.9054,3.7265,0.0,3.664,3.9355,4.0996,4.1152,4.1149,4.1,4.1017,4.0952,4.0813,4.0805,4.0805,4.0805,4.0801,4.0761,4.0703,4.0703,4.0623,4.0512,4.0512,4.0512,4.0512,4.0512,4.0512,4.0512,4.0512,4.0512,4.0515,4.0649,4.0703,4.0707,4.0788,4.0883,4.1017,4.1017,4.1082,4.1191,4.1191,4.1191,4.1191,4.1191,4.1105,4.1017,4.1017,4.0911,4.0805,4.0805,4.0752,4.0703,4.0665,4.0564,4.0466,4.0427,3.9804,3.9265,3.9265,3.8584,3.8007,3.8007,3.7988,3.7969,3.7969,3.793,3.7334,3.5712,3.55,3.55,3.55,3.55,3.55,3.55,3.55,3.55,3.55,3.55,3.5846,3.6635,3.6654,3.7065,3.795,3.7969,3.8392,3.9265,3.9265,3.9688,4.0458,4.0458,4.0477,0.0,0.0,3.681,3.8687,3.9623,4.0169,4.0439,4.095,4.147,4.184,4.1858,4.1762,4.1635,4.1565,4.1601,4.1785,4.1317,4.1566,4.3359,4.1436,4.0464,4.2144,4.0136,0.0,0.0,0.0,0.0,3.7793,3.9817,4.1051,4.0996,4.0917,4.0854,4.0801,4.0762,4.0736,4.0736,4.066,4.0597,4.0574,4.0574,4.0537,4.0496,4.0496,4.0496,4.0496,4.0496,4.0496,4.0496,4.0496,4.0496,4.0504,4.0545,4.0574,4.0581,4.0584,4.0688,4.0814,4.0847,4.0957,4.1076,4.1076,4.1076,4.1076,4.1076,4.0964,4.0867,4.0867,4.0792,4.0736,4.0736,4.0642,4.0574,4.0574,4.0523,4.0496,4.0496,4.0285,4.0092,4.0092,3.9861,3.9669,3.9669,3.9227,3.8661,3.8084,3.8007,3.7796,3.7238,3.7161,3.7161,3.7161,3.7161,3.7161,3.7161,3.7161,3.7161,3.7161,3.7161,3.7276,3.7546,3.7565,3.7863,3.8512,3.8746,3.9076,3.9495,3.9889,4.0034,3.9905,4.03,4.0572,3.4311,3.6435,3.8452,3.9465,4.0145,4.0658,4.0954,4.1485,4.2099,4.2818,4.291,4.2619,4.1933,4.1774,4.1786,4.1947,4.1487,4.1944,4.4297,4.2461,4.1465,4.3047,4.1035,0.0,0.0,0.0,0.0,3.7028,3.8888,4.0086,3.9997,3.9914,4.0121,4.0673,4.0648,4.063,4.063,4.0537,4.0496,4.0496,4.0496,4.0496,4.0496,4.0496,3.9996,3.9181,4.0112,3.9977,3.92,4.0131,4.0496,4.0496,4.0496,4.0496,4.0496,4.0496,4.0552,4.0636,4.0732,4.0832,4.0922,4.0922,4.0922,4.0922,4.0922,4.0843,4.0757,4.0757,4.0699,4.063,4.063,4.0566,4.0496,4.0496,4.0496,4.0496,4.0496,4.0496,4.0496,4.0496,4.0496,4.0496,4.0496,4.0073,3.9534,3.8969,3.8892,3.8639,3.7901,3.7816,3.7784,3.7691,3.7767,3.7784,3.7691,3.7683,3.7683,3.7683,3.7683,3.7806,3.8093,3.8112,3.8422,3.9066,3.9299,3.947,3.9599,4.0289,4.0412,4.0052,4.0727,4.1104,3.7048,3.8645,3.9569,4.0315,4.0636,4.0986,4.1811,4.2112,4.2696,4.432,4.4608,4.4323,0.0,0.0,4.339,4.3554,4.3535,4.4121,4.5918,4.5371,4.4219,0.0,0.0,0.0,0.0,0.0,0.0,3.8765,0.0,3.8575,3.8334,3.8313,3.8987,4.0446,4.0496,4.0496,4.0496,4.0496,4.0496,4.0496,4.0496,4.0496,4.0496,4.0496,3.9181,3.7019,3.945,3.9123,3.7077,3.9488,4.0496,4.0496,4.0496,4.0496,4.0496,4.0496,4.0496,4.0519,4.0655,4.0747,4.0789,4.0789,4.0789,4.0789,4.0789,4.0742,4.0686,4.0686,4.0596,4.0516,4.0554,4.0573,4.0573,4.0612,4.0631,4.0631,4.0631,4.0631,4.0612,4.0573,4.0535,4.0489,4.0481,4.0481,4.0473,4.0465,4.0438,3.9742,3.786,3.7622,3.7538,3.7257,3.7459,3.7499,3.7246,3.7231,3.7231,3.7231,3.7231,3.7563,3.832,3.8377,3.8772,3.9614,3.9644,3.9682,3.9684,4.0476,4.084,4.0822,4.1619,4.2015,3.6983,3.8775,4.0397,4.0664,4.1242,4.1794,4.2013,4.3084,4.4004,4.3894,4.3286,4.2364,0.0,0.0,0.0,4.1601,4.1289,0.0,4.4023,4.3105,0.0,0.0,0.0,4.3144,4.3359,4.3682,0.0,0.0,4.0831,4.0852,4.0095,3.9972,4.0087,4.0496,4.0496,4.0496,4.0496,4.0496,4.0496,4.0496,4.0496,4.0496,4.0496,4.0496,4.015,3.9573,4.0227,4.0131,3.9592,4.0227,4.0496,4.0496,4.0496,4.0496,4.0496,4.0496,4.0496,4.0504,4.053,4.063,4.0735,4.0735,4.0735,4.0735,4.0735,4.0629,4.0552,4.0552,4.0534,4.065,4.1296,4.147,4.1623,4.2277,4.2431,4.2431,4.2431,4.2431,4.2258,4.1585,4.0931,4.0441,4.0251,4.0195,4.012,3.9863,3.9626,3.9445,3.9442,3.9443,3.9325,3.8999,3.9014,3.9036,3.8965,3.8965,3.8965,3.8965,3.8965,3.9059,3.9248,3.9267,3.9537,4.0115,4.0365,4.057,4.071,4.1362,4.1461,4.1043,4.17,4.2071,3.8384,3.964,4.0718,4.0773,4.1496,4.2191,4.2191,4.2978,4.3572,4.3167,4.2332,0.0,0.0,0.0,0.0,0.0,0.0,0.0,4.3398,4.2891,4.2656,0.0,4.3669,0.0,4.5362,4.5362,4.4506,0.0,4.1859,4.108,4.014,4.0017,4.015,4.0496,4.0496,4.0496,4.0496,4.0496,4.0496,4.0496,4.0496,4.0496,4.0496,4.0496,3.99,3.8892,0.0,3.9881,3.8911,4.0035,4.0496,4.0496,4.0496,4.0496,4.0496,4.0496,4.0496,4.0554,4.0931,4.1115,4.1124,4.0745,4.088,4.1182,4.1182,4.1407,4.1643,4.1643,4.1643,4.1739,4.2239,4.2374,4.2489,4.2989,4.3104,4.3104,4.3104,4.3104,4.297,4.247,4.197,4.1591,4.1443,4.1416,4.1294,4.0924,4.0714,4.0632,4.0736,4.0117,3.9541,3.9242,3.9308,3.9333,3.9216,3.9221,3.9221,3.9221,3.9538,3.9744,3.9744,4.0066,4.0384,4.0648,4.0853,4.0993,4.1095,4.179,4.1961,4.1644,4.2328,4.2706,4.0153,4.0643,4.0752,4.0832,4.1674,4.249,4.249,4.2532,4.2539,4.2422,0.0,0.0,3.9023,0.0,3.918,4.0918,0.0,4.1621,4.2851,4.3418,4.3613,4.3378,4.3497,4.425,4.5902,4.5749,4.5308,4.4711,4.2615,4.0893,3.9869,3.9688,3.99,4.0477,4.0496,4.0496,4.0496,4.0496,4.0496,4.0496,4.0496,4.0496,4.0496,4.0496,3.9296,3.7334,0.0,0.0,3.7392,3.9592,4.0496,4.0496,4.0496,4.0496,4.0516,4.0631,4.0669,4.0804,4.1681,4.1962,4.1854,4.1085,4.1354,4.1962,4.1962,4.2508,4.3104,4.3104,4.3104,4.3124,4.3239,4.3258,4.3297,4.3393,4.3431,4.3431,4.3431,4.3335,4.3258,4.3258,4.3162,4.3096,4.3052,4.2998,4.2833,4.2438,4.2343,4.2124,4.1599,4.0305,3.9333,3.9065,3.9242,3.9262,3.905,3.9019,3.9019,3.9019,3.9662,4.0065,4.0065,4.0728,4.115,4.126,4.126,4.1297,4.1407,4.2121,4.2451,4.2488,4.3167,4.3515,3.9945,4.0396,4.0979,4.1102,4.2302,4.3456,4.3456,4.3476,0.0,0.0,0.0,3.918,3.9609,3.9082,0.0,4.0918,0.0,0.0,0.0,0.0,4.3142,0.0,0.0,0.0,0.0,0.0,0.0,0.0,0.0,0.0,4.2508,4.1758,4.1104,4.0516,4.0496,4.0496,4.0496,4.0496,4.0496,4.0496,4.0496,4.0496,4.0496,4.0496,4.0265,3.9881,0.0,0.0,3.9881,4.0323,4.0496,4.0496,4.0496,4.0496,4.0593,4.1316,4.1566,4.17,4.2566,4.2874,4.2854,4.2701,4.2758,4.2874,4.2874,4.2989,4.3104,4.3104,4.3104,4.3258,4.3912,4.4085,4.4259,4.4998,4.5171,4.5171,4.5171,4.4605,4.4085,4.4085,4.3547,4.3007,4.2728,4.2474,4.2169,4.1801,4.1522,4.1311,4.1188,4.1171,4.103,4.0722,4.0719,4.0735,4.0689,4.0673,4.0673,4.0673,4.0802,4.0875,4.0875,4.1022,4.1407,4.2084,4.2084,4.2415,4.3075,4.3222,4.3277,4.3313,4.3441,4.3515,3.9886,4.0331,4.1124,4.1698,4.2773,4.3476,4.2598,0.0,0.0,0.0,0.0,3.7363,3.7793,0.0,0.0,0.0,0.0,0.0,0.0,0.0,0.0,0.0,0.0,0.0,0.0,0.0,0.0,0.0,0.0,0.0,4.3739,4.2931,4.2085,4.12,4.1181,4.095,4.0496,4.0496,4.0496,4.0496,4.0496,4.0496,4.0496,4.0496,4.0496,4.0496,4.0496,0.0,3.8623,3.9958,3.9727,3.87,4.0489,4.1181,4.1277,4.2162,4.2489,4.2604,4.3431,4.372,4.3797,4.4239,4.4085,4.372,4.372,4.4047,4.4393,4.4393,4.4393,4.4489,4.4883,4.4979,4.5075,4.5498,4.5594,4.5594,4.5594,4.5267,4.4979,4.4979,4.4662,4.4348,4.4182,4.4038,4.3737,4.323,4.3035,4.2779,4.2408,4.2505,4.2205,4.122,4.1095,4.1095,4.1095,4.1095,4.1095,4.1095,4.148,4.1735,4.1735,4.2139,4.2525,4.291,4.291,4.3112,4.3515,4.3515,4.3515,4.3515,4.3515,4.3515,4.0067,4.0496,4.1253,4.2167,4.3066,4.3301,4.1797,4.1328,0.0,0.0,0.0,3.6113,3.6484,0.0,0.0,0.0,0.0,0.0,0.0,0.0,0.0,0.0,0.0,0.0,0.0,0.0,0.0,0.0,0.0,0.0,4.4278,4.3701,4.2874,4.1827,4.1788,4.1373,4.0516,4.0496,4.0496,4.0496,4.0496,4.0496,4.0496,4.0496,4.0496,4.0496,4.0496,0.0,0.0,3.945,3.9104,3.7288,4.0538,4.1904,4.2181,4.3047,4.3355,4.347,4.4297,4.4586,4.4682,4.5383,4.5152,4.4586,4.4586,4.5056,4.5594,4.5594,4.5594,4.5594,4.5594,4.5594,4.5594,4.5594,4.5594,4.5594,4.5594,4.5594,4.5594,4.5594,4.5594,4.5594,4.5594,4.5531,4.5283,4.4682,4.4527,4.4237,4.358,4.3515,4.302,4.1754,4.1625,4.1625,4.1625,4.1625,4.1625,4.1625,4.2213,4.2561,4.2561,4.3149,4.3515,4.3515,4.3515,4.3515,4.3515,4.3515,4.3515,4.3515,4.3515,4.3515,4.0669,4.1023,4.1386,4.2207,4.3066,4.3457,4.2519,0.0,0.0,0.0,3.7168,3.6484,3.8066,3.8359,0.0,0.0,0.0,0.0,0.0,0.0,0.0,0.0,0.0,0.0,0.0,0.0,0.0,0.0,0.0,0.0,0.0,4.422,4.3451,4.1846,4.1788,4.1373,4.0516,4.0496,4.0496,4.0496,4.0496,4.0496,4.0496,4.0496,4.0496,4.0496,0.0,0.0,0.0,3.945,3.9477,3.8142,4.0769,4.2277,4.3085,4.3893,4.4182,4.4316,4.519,4.5479,4.5498,4.5575,4.5556,4.5479,4.5479,4.5537,4.5594,4.5594,4.5594,4.5594,4.5594,4.5594,4.5594,4.5594,4.5594,4.5594,4.5594,4.5594,4.5594,4.5594,4.5594,4.5594,4.5594,4.5342,4.5011,4.4663,4.4276,4.3927,4.3548,4.3515,4.3441,4.3313,4.3277,4.3277,4.3277,4.3277,4.3277,4.3277,4.3349,4.3404,4.3404,4.346,4.3515,4.3515,4.3515,4.3515,4.3515,4.3515,4.3515,4.3515,4.3515,4.3515,3.9552,4.0369,4.1523,4.2851,4.3437,4.334,4.1992,0.0,0.0,3.7617,3.6484,3.6211,3.6914,3.7031,3.7617,0.0,0.0,0.0,0.0,0.0,0.0,0.0,0.0,0.0,0.0,0.0,0.0,0.0,0.0,0.0,0.0,4.5075,4.4528,4.3335,4.2835,4.2162,4.1296,4.0766,4.0496,4.0496,4.0496,4.0496,4.0496,4.0496,4.0496,4.0496,0.0,0.0,0.0,3.9373,3.9084,3.6219,4.1316,4.3528,4.3912,4.4759,4.5075,4.5133,4.5479,4.5594,4.5594,4.5594,4.5594,4.5594,4.5594,4.5594,4.5594,4.5594,4.5594,4.5594,4.5594,4.5594,4.5594,4.5594,4.5594,4.5594,4.5594,4.5594,4.5594,4.5594,4.5594,4.5594,4.5594,4.5495,4.5222,4.467,4.4474,4.415,4.3563,4.3515,4.3515,4.3515,4.3515,4.3515,4.3515,4.3515,4.3515,4.3515,4.3515,4.3515,4.3515,4.3515,4.3515,4.3515,4.3515,4.3515,4.3515,4.3515,4.3515,4.3515,4.3515,4.3515,3.8892,4.0192,4.1872,4.334,4.3516,4.2949,0.0,0.0,3.959,3.6601,3.5996,3.5996,3.5996,3.5996,3.6562,0.0,0.0,0.0,0.0,0.0,0.0,0.0,0.0,0.0,0.0,0.0,0.0,0.0,0.0,0.0,0.0,4.5594,4.521,4.4335,4.3528,4.2681,4.1808,4.0931,4.0496,4.0496,4.0496,4.0112,3.9392,4.0169,4.0092,3.9411,0.0,0.0,0.0,3.9758,3.9527,3.661,4.2143,4.4451,4.4759,4.5364,4.5594,4.5594,4.5594,4.5594,4.5594,4.5594,4.5594,4.5594,4.5594,4.5594,4.5594,4.5594,4.5594,4.5594,4.5594,4.5594,4.5594,4.5594,4.5594,4.5594,4.5594,4.5594,4.5594,4.5594,4.5594,4.5594,4.5594,4.5594,4.541,4.4818,4.4657,4.4364,4.3726,4.3546,4.3515,4.3515,4.3515,4.3515,4.3515,4.3515,4.3515,4.3515,4.3515,4.3515,4.3515,4.3515,4.3515,4.3515,4.3515,4.3515,4.3515,4.3515,4.3515,4.3515,4.3515,4.3515,3.9199,4.0961,4.2513,4.3456,4.3047,4.2207,0.0,0.0,3.8125,3.6367,3.5996,3.5996,3.5996,3.5996,3.6562,3.832,0.0,0.0,0.0,0.0,0.0,0.0,0.0,0.0,0.0,0.0,0.0,0.0,0.0,0.0,0.0,4.5594,4.521,4.4335,4.3528,4.2681,4.1808,4.0931,4.0496,4.0496,4.0496,3.9181,3.6827,3.9354,3.9123,0.0,0.0,0.0,0.0,4.0739,4.1258,4.0689,4.3278,4.4816,4.5594,4.5594,4.5594,4.5594,4.5594,4.5594,4.5594,4.5594,4.5594,4.5594,4.5594,4.5594,4.5594,4.5594,4.5594,4.5594,4.5594,4.5594,4.5594,4.5594,4.5594,4.5594,4.5594,4.5594,4.5594,4.5594,4.5594,4.5594,4.5594,4.5594,4.5485,4.5159,4.4806,4.446,4.4061,4.371,4.3515,4.3515,4.3515,4.3515,4.3515,4.3515,4.3515,4.3515,4.3515,4.3515,4.3515,4.3515,4.3515,4.3515,4.3515,4.3515,4.3515,4.3515,4.3515,4.3515,4.3515,4.3515,3.6706,3.7846,3.9043,4.0525,4.0711,4.0336,3.9477,0.0,3.8105,3.6367,3.5996,3.5996,3.5996,3.5996,3.6562,3.832,3.8594,0.0,0.0,0.0,0.0,0.0,0.0,0.0,0.0,0.0,0.0,0.0,0.0,0.0,0.0,0.0,4.5479,4.521,4.3835,4.297,4.2701,4.1227,4.0496,4.0496,4.0496,3.9161,3.6788,3.9335,0.0,0.0,0.0,0.0,0.0,4.1989,4.2316,4.0804,4.3959,4.5364,4.5594,4.5594,4.5594,4.5594,4.5594,4.5594,4.5594,4.5594,4.5594,4.5594,4.5594,4.5594,4.5594,4.5594,4.5594,4.5594,4.5594,4.5594,4.5594,4.5594,4.5594,4.5594,4.5594,4.5594,4.5594,4.5594,4.5594,4.5594,4.5594,4.5594,4.5495,4.514,4.4806,4.4441,4.4043,4.371,4.3515,4.3515,4.3515,4.3515,4.3515,4.3515,4.3515,4.3515,4.3515,4.3515,4.3515,4.3515,4.3515,4.3515,4.3515,4.3515,4.3515,4.3515,4.3515,4.3515,4.3515,4.3515,0.0,3.6569,3.7806,3.9247,3.9385,0.0,0.0,0.0,3.7261,3.6186,3.6503,3.6777,3.6113,3.6543,3.7129,3.7559,3.8711,0.0,0.0,0.0,0.0,0.0,0.0,0.0,0.0,0.0,0.0,0.0,0.0,0.0,0.0,0.0,4.546,4.5133,4.3797,4.3104,4.3104,4.1381,4.0496,4.0496,4.0496,3.9161,3.6788,3.9335,0.0,0.0,0.0,0.0,0.0,4.3085,4.3547,4.2632,4.4767,4.5594,4.5594,4.5594,4.5627,4.5665,4.562,4.5627,4.5665,4.562,4.5635,4.568,4.568,4.5643,4.5594,4.5594,4.5594,4.5594,4.5594,4.5594,4.5594,4.5594,4.5594,4.5594,4.5594,4.5594,4.5594,4.5594,4.5594,4.5594,4.5594,4.5594,4.5522,4.5322,4.5,4.4657,4.4276,4.3912,4.3629,4.3513,4.3515,4.3515,4.3515,4.3515,4.3515,4.3515,4.3515,4.3515,4.3515,4.3515,4.3515,4.3515,4.3515,4.3515,4.3515,4.3515,4.3515,4.3515,4.3515,4.3515,0.0,0.0,0.0,0.0,0.0,0.0,0.0,0.0,0.0,3.6058,3.7415,3.8105,3.6484,3.7617,3.8203,3.6465,3.9004,0.0,0.0,0.0,0.0,0.0,0.0,0.0,0.0,0.0,0.0,0.0,0.0,0.0,0.0,0.0,4.521,4.4335,4.3528,4.3066,4.3008,4.1343,4.0439,4.0323,4.0439,3.9104,3.6615,3.9277,0.0,0.0,0.0,0.0,0.0,4.4066,4.4874,4.5594,4.5594,4.5594,4.5594,4.5594,4.5677,4.5776,4.5668,4.57,4.579,4.5665,4.5708,4.5803,4.5816,4.573,4.562,4.562,4.5603,4.5594,4.5594,4.5594,4.5594,4.5594,4.5594,4.5594,4.5594,4.5594,4.5594,4.5594,4.5594,4.5594,4.5594,4.5594,4.5594,4.5594,4.5322,4.4996,4.4688,4.4261,4.3881,4.3563,4.3513,4.3515,4.3515,4.3515,4.3515,4.3515,4.3515,4.3515,4.3515,4.3515,4.3515,4.3515,4.3515,4.3515,4.3515,4.3515,4.3515,4.3515,4.3515,4.3515,3.2214,0.0,3.4364,3.5261,3.5852,0.0,0.0,0.0,0.0,0.0,0.0,3.8476,3.8066,3.9414,4.0019,3.8262,3.9805,0.0,0.0,0.0,0.0,0.0,0.0,0.0,0.0,0.0,0.0,0.0,0.0,0.0,0.0,0.0,4.521,4.4335,4.3528,4.2777,4.2104,4.1027,3.9861,3.8604,3.99,3.8496,3.4911,3.8746,0.0,0.0,0.0,0.0,4.4085,4.494,4.5421,4.5594,4.5594,4.5594,4.5594,4.5594,4.5677,4.5796,4.5749,4.5814,4.5872,4.5841,4.5813,4.5803,4.5866,4.5813,4.5754,4.5754,4.5688,4.5594,4.5594,4.5594,4.5594,4.5594,4.5594,4.5594,4.5594,4.5594,4.5594,4.5594,4.5594,4.5594,4.5594,4.5594,4.5594,4.5594,4.5322,4.5074,4.4988,4.4414,4.3971,4.3896,4.3646,4.3515,4.3515,4.3515,4.3515,4.3515,4.3515,4.3515,4.3515,4.3515,4.3515,4.3515,4.3515,4.3515,4.3515,4.3515,4.3515,4.3515,4.3515,4.3515,3.0981,3.1718,3.2833,3.4853,3.5155,3.5261,0.0,0.0,0.0,0.0,0.0,0.0,3.8594,0.0,0.0,0.0,0.0,0.0,0.0,0.0,0.0,0.0,0.0,0.0,0.0,0.0,0.0,0.0,0.0,0.0,0.0,0.0,4.4624,4.3778,4.2951,4.2277,4.1788,4.0931,3.9669,3.8027,3.9708,3.89,3.6045,3.9111,0.0,0.0,0.0,0.0,4.4316,4.4412,4.4921,4.5594,4.5594,4.5635,4.5685,4.5685,4.5803,4.5935,4.5875,4.5862,4.5899,4.5899,4.5914,4.5938,4.5974,4.5975,4.592,4.5821,4.57,4.5594,4.5594,4.5594,4.5594,4.5594,4.5594,4.5594,4.5594,4.5594,4.5594,4.5594,4.5594,4.5594,4.5594,4.5594,4.5594,4.5594,4.5457,4.5263,4.5118,4.4738,4.4387,4.4028,4.3852,4.3679,4.3513,4.3515,4.3515,4.3515,4.3515,4.3515,4.3515,4.3515,4.3515,4.3515,4.3515,4.3515,4.3515,4.3515,4.3515,4.3515,4.3515,4.3515,3.0404,3.1038,3.2487,3.5712,3.5353,3.4879,0.0,0.0,0.0,0.0,0.0,0.0,0.0,0.0,0.0,0.0,0.0,0.0,0.0,0.0,0.0,0.0,0.0,0.0,0.0,0.0,0.0,0.0,0.0,0.0,0.0,0.0,0.0,4.2931,4.22,4.1731,4.1604,4.0873,3.9669,3.8027,3.9708,3.9631,3.8065,3.9873,0.0,0.0,0.0,0.0,4.4459,4.3781,4.4355,4.5627,4.564,4.5725,4.5821,4.5821,4.5948,4.6084,4.5992,4.5959,4.5928,4.5944,4.6011,4.6091,4.6119,4.6115,4.6064,4.5864,4.5725,4.5637,4.5603,4.5594,4.5594,4.5594,4.5594,4.5594,4.5594,4.5594,4.5594,4.5594,4.5594,4.5594,4.5594,4.5594,4.5594,4.5594,4.5594,4.5495,4.5211,4.5129,4.4853,4.4228,4.4117,4.394,4.3614,4.358,4.3546,4.3496,4.3515,4.3515,4.3515,4.3515,4.3515,4.3515,4.3515,4.3515,4.3515,4.3515,4.3515,4.3515,4.3515,4.3515,3.0404,3.1038,3.2333,3.5019,3.4949,3.4879,0.0,0.0,0.0,0.0,0.0,0.0,0.0,0.0,0.0,0.0,0.0,0.0,0.0,0.0,0.0,0.0,0.0,0.0,0.0,0.0,0.0,0.0,0.0,0.0,0.0,0.0,0.0,4.2038,4.1865,4.145,4.0708,4.0573,3.9669,3.8027,3.9708,3.9631,3.8084,4.0508,4.2085,0.0,0.0,4.4355,4.5391,4.5382,4.555,4.5776,4.5834,4.5877,4.5872,4.5872,4.5974,4.6115,4.6201,4.6152,4.6084,4.62,4.6174,4.6117,4.6226,4.6198,4.6075,4.5931,4.583,4.574,4.5627,4.5594,4.5594,4.5594,4.5594,4.5594,4.5594,4.5594,4.5594,4.5594,4.5594,4.5594,4.5594,4.5594,4.5594,4.5594,4.5594,4.5577,4.5522,4.5282,4.5063,4.4943,4.4682,4.435,4.3955,4.3924,4.3804,4.3513,4.3515,4.3515,4.3515,4.3515,4.3515,4.3515,4.3515,4.3515,4.3515,4.3515,4.3515,4.3515,4.3515,4.3515,3.0404,3.1038,3.2526,3.5988,3.5872,3.593,0.0,0.0,0.0,0.0,0.0,0.0,0.0,0.0,0.0,0.0,0.0,0.0,0.0,0.0,0.0,0.0,0.0,0.0,0.0,0.0,0.0,0.0,0.0,0.0,0.0,0.0,0.0,0.0,4.1335,4.0912,4.0496,4.0496,3.9669,3.8027,3.9708,3.9631,3.8084,4.0642,4.2277,4.3094,0.0,4.4066,4.5645,4.4843,4.504,4.5855,4.59,4.5936,4.6027,4.6084,4.6168,4.6223,4.6289,4.6268,4.6223,4.6289,4.6268,4.6223,4.6289,4.6267,4.6171,4.5967,4.5845,4.5775,4.5635,4.5594,4.5594,4.5594,4.5594,4.5594,4.5594,4.5594,4.5594,4.5594,4.5594,4.5594,4.5594,4.5594,4.5594,4.5594,4.5594,4.5594,4.5594,4.5476,4.5302,4.5118,4.4954,4.4625,4.4043,4.4001,4.3849,4.3513,4.3515,4.3515,4.3515,4.3515,4.3515,4.3515,4.3515,4.3515,4.3515,4.3515,4.3515,4.3515,4.3515,4.3515,3.0404,3.1173,3.2852,3.6507,0.0,0.0,0.0,0.0,0.0,0.0,0.0,0.0,0.0,0.0,0.0,0.0,0.0,0.0,0.0,0.0,0.0,0.0,0.0,0.0,0.0,0.0,0.0,0.0,0.0,0.0,0.0,0.0,0.0,0.0,4.0854,4.0496,4.0496,4.0496,3.9861,3.8604,3.99,3.9823,3.8661,4.1027,4.2475,4.3115,4.2963,4.4007,4.5735,4.4522,4.4798,4.594,4.5985,4.6069,4.615,4.6268,4.6308,4.6308,4.6308,4.6308,4.6308,4.6308,4.6308,4.6308,4.6308,4.6308,4.6247,4.6005,4.5891,4.579,4.5643,4.5594,4.5594,4.5594,4.5594,4.5594,4.5594,4.5594,4.5594,4.5594,4.5594,4.5594,4.5594,4.5594,4.5594,4.5594,4.5594,4.5594,4.5594,4.5594,4.5504,4.5243,4.5222,4.4924,4.4204,4.4043,4.3849,4.3513,4.3515,4.3515,4.3515,4.3515,4.3515,4.3515,4.3515,4.3515,4.3515,4.3515,4.3515,4.3515,4.3515,4.3548,3.0404,3.1577,3.3276,3.5192,3.5596,0.0,0.0,0.0,0.0,0.0,0.0,0.0,0.0,0.0,0.0,0.0,0.0,0.0,0.0,0.0,0.0,0.0,0.0,0.0,0.0,0.0,0.0,0.0,0.0,0.0,0.0,0.0,0.0,0.0,0.0,4.0496,4.0496,4.0496,4.0439,4.0323,4.0439,4.0439,4.0381,4.2181,4.3061,4.3273,4.4847,4.5675,4.5899,4.59,4.5987,4.6108,4.6224,4.6288,4.6289,4.6308,4.6308,4.6308,4.6308,4.6308,4.6308,4.6308,4.6308,4.6308,4.6308,4.6308,4.6268,4.6138,4.5988,4.5852,4.5645,4.5594,4.5594,4.5594,4.5594,4.5594,4.5594,4.5594,4.5594,4.5594,4.5594,4.5594,4.5594,4.5594,4.5594,4.5594,4.5594,4.5594,4.5594,4.5594,4.5586,4.5568,4.5568,4.5283,4.4618,4.4204,4.3849,4.3513,4.3515,4.3515,4.3515,4.3515,4.3515,4.3515,4.3515,4.3515,4.3515,4.3515,4.3515,4.3515,4.3515,4.3679,3.1058,3.1679,3.3064,3.6911,0.0,0.0,0.0,0.0,0.0,0.0,0.0,0.0,0.0,0.0,0.0,0.0,0.0,0.0,0.0,0.0,0.0,0.0,0.0,0.0,0.0,0.0,0.0,0.0,0.0,0.0,0.0,0.0,0.0,0.0,0.0,4.0496,4.0496,4.0496,4.0496,4.0496,4.0496,4.0496,4.0562,4.2346,4.3189,4.3303,4.5185,4.6001,4.6036,4.6173,4.6224,4.6225,4.6289,4.6308,4.6308,4.6308,4.6308,4.6308,4.6308,4.6308,4.6308,4.6308,4.6308,4.6308,4.6308,4.6308,4.6268,4.6144,4.6053,4.599,4.577,4.5657,4.5594,4.5594,4.5594,4.5594,4.5594,4.5594,4.5594,4.5594,4.5594,4.5594,4.5594,4.5594,4.5594,4.5594,4.5594,4.5594,4.5594,4.5594,4.5594,4.5594,4.5419,4.5191,4.4931,4.4359,4.394,4.382,4.3631,4.3515,4.3515,4.3515,4.3515,4.3515,4.3515,4.3515,4.3515,4.3515,4.3614,4.382,4.382,4.4001,3.1468,3.2083,3.3449,0.0,0.0,0.0,0.0,0.0,0.0,0.0,0.0,0.0,0.0,0.0,0.0,0.0,0.0,0.0,0.0,0.0,0.0,0.0,0.0,0.0,0.0,0.0,0.0,0.0,0.0,0.0,0.0,0.0,0.0,0.0,0.0,0.0,4.0597,4.0597,4.0597,4.0597,4.0597,4.0584,4.0612,4.2439,4.3291,4.3437,4.5289,4.6119,4.6173,4.6268,4.6308,4.6308,4.6308,4.6308,4.6308,4.6308,4.6308,4.6308,4.6308,4.6308,4.6308,4.6308,4.6308,4.6308,4.6308,4.6308,4.6289,4.6198,4.6122,4.6069,4.5935,4.5777,4.5657,4.5657,4.5627,4.5594,4.5594,4.5594,4.5594,4.5594,4.5594,4.5594,4.5594,4.5594,4.5594,4.5594,4.5594,4.5594,4.5594,4.5594,4.5594,4.5594,4.5381,4.5211,4.5107,4.4638,4.4304,4.419,4.3974,4.3791,4.3662,4.3775,4.3855,4.3855,4.3855,4.3855,4.3855,4.3855,4.3958,4.419,4.419,4.4387,3.1506,3.2929,3.4609,0.0,0.0,0.0,0.0,0.0,0.0,0.0,0.0,0.0,0.0,0.0,0.0,0.0,0.0,0.0,0.0,0.0,0.0,0.0,0.0,0.0,0.0,0.0,0.0,0.0,0.0,0.0,0.0,0.0,0.0,0.0,0.0,0.0,4.0797,4.0797,4.0797,4.0797,4.0801,4.0781,4.0761,4.2578,4.3468,4.3693,4.5369,4.6175,4.6308,4.6308,4.6308,4.6308,4.6308,4.6308,4.6308,4.6308,4.6308,4.6308,4.6308,4.6308,4.6308,4.6308,4.6308,4.6308,4.6308,4.6308,4.6308,4.6308,4.6201,4.6091,4.6091,4.5942,4.5803,4.5803,4.5692,4.5594,4.5594,4.5594,4.5594,4.5594,4.5594,4.5594,4.5594,4.5594,4.5594,4.5594,4.5594,4.5594,4.5594,4.5594,4.5594,4.5594,4.5594,4.5476,4.5129,4.5096,4.4954,4.4637,4.4593,4.4414,4.4013,4.4392,4.4593,4.4593,4.4593,4.4593,4.4593,4.4593,4.4593,4.4593,4.4593,4.4769,3.45,3.4276,0.0,0.0,0.0,0.0,0.0,0.0,0.0,0.0,0.0,0.0,0.0,0.0,0.0,0.0,0.0,0.0,0.0,0.0,0.0,0.0,0.0,0.0,0.0,0.0,0.0,0.0,0.0,0.0,0.0,0.0,0.0,0.0,0.0,0.0,4.0797,4.0797,4.0797,4.0801,4.0905,4.089,4.0829,4.2692,4.3558,4.3695,4.5478,4.6268,4.6308,4.6308,4.6308,4.6308,4.6308,4.6308,4.6308,4.6308,4.6308,4.6308,4.6308,4.6308,4.6308,4.6308,4.6308,4.6308,4.6308,4.6308,4.6308,4.6308,4.6268,4.6246,4.6246,4.6134,4.5987,4.584,4.5782,4.5723,4.5629,4.5594,4.5594,4.5594,4.5594,4.5594,4.5594,4.5594,4.5594,4.5594,4.5594,4.5594,4.5594,4.5594,4.5594,4.5594,4.5594,4.5568,4.5448,4.5232,4.5063,4.4954,4.4943,4.4793,4.4447,4.454,4.4593,4.4593,4.4593,4.4593,4.4593,4.4593,4.4707,4.4943,4.4943,4.5129,3.5122,0.0,0.0,0.0,0.0,0.0,0.0,0.0,0.0,0.0,0.0,0.0,0.0,0.0,0.0,0.0,0.0,0.0,0.0,0.0,0.0,0.0,0.0,0.0,0.0,0.0,0.0,0.0,0.0,0.0,0.0,0.0,0.0,0.0,0.0,0.0,4.0957,4.0957,4.0957,4.0959,4.1049,4.1048,4.1018,4.2829,4.3639,4.3737,4.5526,4.6308,4.6308,4.6308,4.6308,4.6308,4.6308,4.6308,4.6308,4.6308,4.6308,4.6308,4.6308,4.6308,4.6308,4.6308,4.6308,4.6308,4.6308,4.6308,4.6308,4.6308,4.6308,4.6308,4.6308,4.6246,4.6138,4.5966,4.588,4.5814,4.5688,4.5688,4.5657,4.5612,4.5594,4.5594,4.5594,4.5594,4.5594,4.5594,4.5594,4.5594,4.5594,4.5594,4.5594,4.5594,4.5594,4.5594,4.5594,4.5419,4.5302,4.5302,4.5302,4.5211,4.5,4.5,4.5,4.5,4.5,4.5,4.5,4.5,4.5107,4.5302,4.5302,4.541,3.4526,0.0,0.0,0.0,0.0,0.0,0.0,0.0,0.0,0.0,0.0,0.0,0.0,0.0,0.0,0.0,0.0,0.0,0.0,0.0,0.0,0.0,0.0,0.0,0.0,0.0,0.0,0.0,0.0,0.0,0.0,0.0,0.0,0.0,0.0,0.0,4.1191,4.1191,4.1191,0.0,4.1191,4.1191,4.1269,4.2949,4.3789,4.4023,4.5605,4.6308,4.6308,4.6308,4.6308,4.6308,4.6308,4.6308,4.6308,4.6308,4.6308,4.6308,4.6308,4.6308,4.6308,4.6308,4.6308,4.6308,4.6308,4.6308,4.6308,4.6308,4.6308,4.6308,4.6308,4.6308,4.6268,4.6147,4.6024,4.5905,4.582,4.579,4.5749,4.5643,4.5603,4.5594,4.5594,4.5594,4.5594,4.5594,4.5594,4.5594,4.5594,4.5594,4.5594,4.5594,4.5594,4.5594,4.5594,4.5594,4.5594,4.5594,4.5594,4.5594,4.5594,4.5594,4.5594,4.5594,4.5594,4.5594,4.5594,4.5594,4.5594,4.5594,4.5594,4.5594,0.0,3.7031,0.0,0.0,0.0,0.0,0.0,0.0,0.0,0.0,0.0,0.0,0.0,0.0,0.0,0.0,0.0,0.0,0.0,0.0,0.0,0.0,0.0,0.0,0.0,0.0,0.0,0.0,0.0,0.0,0.0,0.0,0.0,0.0,0.0,4.1191,4.1191,4.1191,4.1191,0.0,4.1191,4.1191,4.1269,4.2949,4.4453,4.5762,4.6133,4.6308,4.6308,4.6308,4.6308,4.6308,4.6308,4.6308,4.6308,4.6308,4.6308,4.6308,4.6308,4.6308,4.6308,4.6308,4.6308,4.6308,4.6308,4.6308,4.6308,4.6308,4.6308,4.6308,4.6308,4.6308,4.6289,4.6268,4.6149,4.6027,4.5909,4.583,4.579,4.5768,4.5673,4.5594,4.5594,4.5594,4.5594,4.5594,4.5594,4.5594,4.5594,4.5594,4.5594,4.5594,4.5594,4.5594,4.5594,4.5594,4.5594,4.5594,4.5594,4.5594,4.5594,4.5594,4.5594,4.5594,4.5594,4.5594,4.5594,4.5594,4.5594,4.5594,4.5594,4.5594,0.0,0.0,0.0,0.0,0.0,0.0,0.0,0.0,0.0,0.0,0.0,0.0,0.0,0.0,0.0,0.0,0.0,0.0,0.0,0.0,0.0,0.0,0.0,0.0,0.0,0.0,0.0,0.0,0.0,0.0,0.0,0.0,0.0,0.0,4.1191,4.1191,4.1191,4.1191,4.1191,4.1191,4.1191,4.1406,4.1816,4.3105,4.4414,4.5703,4.6113,4.6308,4.6308,4.6308,4.6308,4.6308,4.6308,4.6308,4.6308,4.6308,4.6308,4.6308,4.6308,4.6308,4.6308,4.6308,4.6308,4.6308,4.6308,4.6308,4.6308,4.6308,4.6308,4.6308,4.6308,4.6308,4.6308,4.6308,4.6247,4.615,4.6011,4.5909,4.5836,4.5816,4.5685,4.5594,4.5594,4.5594,4.5594,4.5594,4.5594,4.5594,4.5594,4.5594,4.5594,4.5594,4.5594,4.5594,4.5594,4.5594,4.5594,4.5594,4.5594,4.5594,4.5594,4.5594,4.5594,4.5594,4.5594,4.5594,4.5594,4.5594,4.5594,4.5594,4.5594,4.5594,0.0,0.0,0.0,0.0,0.0,0.0,0.0,0.0,0.0,0.0,0.0,0.0,0.0,0.0,0.0,0.0,0.0,0.0,0.0,0.0,0.0,0.0,0.0,0.0,0.0,0.0,0.0,0.0,0.0,0.0,0.0,0.0,4.1191,4.1191,4.1191,4.1191,4.1191,4.1191,4.1191,4.1191,4.1191,4.1543,4.2226,4.3086,4.4023,4.5058,4.5918,4.6308,4.6308,4.6308,4.6308,4.6308,4.6308,4.6308,4.6308,4.6308,4.6308,4.6308,4.6308,4.6308,4.6308,4.6308,4.6308,4.6308,4.6308,4.6308,4.6308,4.6308,4.6308,4.6308,4.6308,4.6308,4.6308,4.6308,4.6308,4.6268,4.617,4.6033,4.5914,4.5838,4.5708,4.5594,4.5594,4.5594,4.5594,4.5594,4.5594,4.5594,4.5594,4.5594,4.5594,4.5594,4.5594,4.5594,4.5594,4.5594,4.5594,4.5594,4.5594,4.5594,4.5594,4.5594,4.5612,4.5635,4.5635,4.5635,4.5635,4.5648,4.5645,4.5645,4.5645,4.5648,0.0,0.0,0.0,0.0,0.0,0.0,0.0,0.0,0.0,0.0,0.0,0.0,0.0,0.0,0.0,0.0,0.0,0.0,0.0,0.0,0.0,0.0,0.0,0.0,0.0,0.0,0.0,0.0,0.0,0.0,0.0,4.1191,4.1191,4.1191,4.1191,4.1191,4.1191,4.1191,4.1191,4.1191,4.1191,4.1269,4.1387,4.2207,4.3457,4.5058,4.5918,4.6308,4.6308,4.6308,4.6308,4.6308,4.6308,4.6308,4.6308,4.6308,4.6308,4.6308,4.6308,4.6308,4.6308,4.6308,4.6308,4.6308,4.6308,4.6308,4.6308,4.6308,4.6308,4.6308,4.6308,4.6308,4.6308,4.6308,4.6308,4.6308,4.6288,4.6173,4.6036,4.5918,4.5724,4.5594,4.5594,4.5594,4.5594,4.5594,4.5594,4.5594,4.5594,4.5594,4.5594,4.5594,4.5594,4.5594,4.5594,4.5594,4.5594,4.5594,4.5594,4.5594,4.5594,4.5594,4.5648,4.5763,4.5763,4.5763,4.5763,4.5828,4.5852,4.5852,4.5852,4.5822,0.0,0.0,0.0,0.0,0.0,0.0,0.0,0.0,0.0,0.0,0.0,0.0,0.0,0.0,0.0,0.0,0.0,0.0,0.0,0.0,0.0,0.0,0.0,0.0,0.0,0.0,0.0,0.0,0.0,0.0,4.1191,4.1191,4.1191,4.1191,4.1191,4.1191,4.1191,4.1191,4.1191,4.1191,4.1191,4.1191,4.123,4.2031,4.3086,4.4316,4.5195,4.5859,4.6308,4.6308,4.6308,4.6308,4.6308,4.6308,4.6308,4.6308,4.6308,4.6308,4.6308,4.6308,4.6308,4.6308,4.6308,4.6308,4.6308,4.6308,4.6308,4.6308,4.6308,4.6308,4.6308,4.6308,4.6308,4.6308,4.6308,4.6308,4.6308,4.6199,4.6059,4.5871,4.577,4.5696,4.5612,4.5594,4.5594,4.5594,4.5594,4.5594,4.5594,4.5594,4.5594,4.5594,4.5594,4.5594,4.5594,4.5594,4.5594,4.5594,4.5594,4.5594,4.5594,4.5594,4.5657,4.5796,4.5803,4.5828,4.5855,4.5896,4.5899,4.5899,4.5899,4.5872,0.0,0.0,0.0,0.0,0.0,0.0,0.0,0.0,0.0,0.0,0.0,0.0,0.0,0.0,0.0,0.0,0.0,0.0,0.0,0.0,0.0,0.0,0.0,0.0,0.0,0.0,0.0,0.0,0.0,0.0,4.1191,4.1191,4.1191,4.1191,4.1191,4.1191,4.1191,4.1191,4.1191,4.1191,4.1191,4.1191,4.1211,4.1816,4.2558,4.3437,4.4531,4.5488,4.6308,4.6308,4.6308,4.6308,4.6308,4.6308,4.6308,4.6308,4.6308,4.6308,4.6308,4.6308,4.6308,4.6308,4.6308,4.6308,4.6308,4.6308,4.6308,4.6308,4.6308,4.6308,4.6308,4.6308,4.6308,4.6308,4.6308,4.6308,4.6308,4.6199,4.6059,4.5906,4.584,4.5775,4.5665,4.561,4.5594,4.5594,4.5594,4.5594,4.5594,4.5594,4.5594,4.5594,4.5594,4.5594,4.5594,4.5594,4.5594,4.5594,4.5594,4.5594,4.5594,4.5594,4.5661,4.582,4.5826,4.588,4.594,4.5985,4.5998,4.5998,4.5998,4.5985,0.0,0.0,0.0,0.0,0.0,0.0,0.0,0.0,0.0,0.0,0.0,0.0,0.0,0.0,0.0,0.0,0.0,0.0,0.0,0.0,0.0,0.0,0.0,0.0,0.0,0.0,0.0,0.0,0.0,0.0,4.1191,4.1191,4.1191,4.1191,4.1191,4.1191,4.1191,4.1191,4.1191,4.1191,4.1191,4.1191,4.1191,4.123,4.1699,4.2558,4.4258,4.5488,4.6308,4.6308,4.6308,4.6308,4.6308,4.6308,4.6308,4.6308,4.6308,4.6308,4.6308,4.6308,4.6308,4.6308,4.6308,4.6308,4.6308,4.6308,4.6308,4.6308,4.6308,4.6308,4.6308,4.6308,4.6308,4.6308,4.6308,4.6308,4.6308,4.6199,4.6106,4.6082,4.5935,4.5796,4.579,4.5677,4.5594,4.5594,4.5594,4.5594,4.5594,4.5594,4.5594,4.5594,4.5594,4.5594,4.5594,4.5594,4.5594,4.5594,4.5594,4.5594,4.5594,4.5594,4.5691,4.5885,4.589,4.5963,4.6084,4.6223,4.6289,4.6289,4.6289,4.6202,0.0,0.0,0.0,0.0,0.0,0.0,0.0,0.0,0.0,0.0,0.0,0.0,0.0,0.0,0.0,0.0,0.0,0.0,0.0,0.0,0.0,0.0,0.0,0.0,0.0,0.0,0.0,0.0,0.0,0.0,4.1133,4.0137,4.0039,4.1152,4.1191,4.1191,4.1191,4.1191,4.1191,4.1191,4.1191,4.1191,4.1191,4.1191,4.1641,4.2461,4.3652,4.4668,4.5508,4.6074,4.6308,4.6308,4.6308,4.6308,4.6308,4.6308,4.6308,4.6308,4.6308,4.6308,4.6308,4.6308,4.6308,4.6308,4.6308,4.6308,4.6308,4.6308,4.6308,4.6308,4.6308,4.6308,4.6308,4.6308,4.6308,4.6308,4.6308,4.6268,4.6201,4.6117,4.5963,4.5845,4.5822,4.5677,4.5594,4.5594,4.5594,4.5594,4.5594,4.5594,4.5594,4.5594,4.5594,4.5594,4.5594,4.5594,4.5594,4.5594,4.5594,4.5594,4.5594,4.5594,4.5699,4.5894,4.5899,4.6001,4.6225,4.6288,4.6308,4.6308,4.6308,4.6269,0.0,0.0,0.0,0.0,0.0,0.0,0.0,0.0,0.0,0.0,0.0,0.0,0.0,0.0,0.0,0.0,0.0,0.0,0.0,0.0,0.0,0.0,0.0,0.0,0.0,0.0,0.0,0.0,0.0,0.0,4.1133,4.0098,4.0,4.1152,4.1191,4.1191,4.1191,4.1191,4.1191,4.1191,4.1191,4.1191,4.1191,4.1191,4.1484,4.2051,4.3203,4.4199,4.5078,4.5937,4.6308,4.6308,4.6308,4.6308,4.6308,4.6308,4.6308,4.6308,4.6308,4.6308,4.6308,4.6308,4.6308,4.6308,4.6308,4.6308,4.6308,4.6308,4.6308,4.6308,4.6308,4.6308,4.6308,4.6308,4.6308,4.6308,4.6308,4.6308,4.6269,4.6177,4.6069,4.5939,4.5847,4.5742,4.564,4.5603,4.5594,4.5594,4.5594,4.5594,4.5594,4.5594,4.5594,4.5594,4.5594,4.5594,4.5594,4.5594,4.5594,4.5594,4.5594,4.5643,4.5743,4.5894,4.5936,4.608,4.6308,4.6308,4.6308,4.6308,4.6308,4.6308,0.0,0.0,0.0,0.0,0.0,0.0,0.0,0.0,0.0,0.0,0.0,0.0,0.0,0.0,0.0,0.0,0.0,0.0,0.0,0.0,0.0,0.0,0.0,0.0,0.0,0.0,0.0,0.0,0.0,4.1152,4.1191,4.1191,4.1191,4.1191,4.1191,4.1191,4.1191,4.1191,4.1191,4.1191,4.1191,4.1191,4.1191,4.1191,4.1191,4.1289,4.2949,4.416,4.5039,4.5937,4.6308,4.6308,4.6308,4.6308,4.6308,4.6308,4.6308,4.6308,4.6308,4.6308,4.6308,4.6308,4.6308,4.6308,4.6308,4.6308,4.6308,4.6308,4.6308,4.6308,4.6308,4.6308,4.6308,4.6308,4.6308,4.6308,4.6308,4.6308,4.6308,4.6308,4.6198,4.6047,4.592,4.5847,4.5754,4.5629,4.5594,4.5594,4.5594,4.5594,4.5594,4.5594,4.5594,4.5594,4.5594,4.5594,4.5594,4.5594,4.5594,4.5594,4.5594,4.5718,4.5838,4.5899,4.6036,4.6171,4.6308,4.6308,4.6308,4.6308,4.6308,4.6308,3.0949,0.0,0.0,0.0,0.0,0.0,0.0,0.0,0.0,0.0,0.0,0.0,0.0,0.0,0.0,0.0,0.0,0.0,0.0,0.0,0.0,0.0,0.0,0.0,0.0,0.0,0.0,0.0,4.0039,3.9863,4.1133,4.1191,4.1191,4.1191,4.1191,4.1191,4.1191,4.1191,4.1191,4.1191,4.1191,4.1191,4.1191,4.1191,4.1191,4.1269,4.2305,4.3242,4.418,4.5683,4.6308,4.6308,4.6308,4.6308,4.6308,4.6308,4.6308,4.6308,4.6308,4.6308,4.6308,4.6308,4.6308,4.6308,4.6308,4.6308,4.6308,4.6308,4.6308,4.6308,4.6308,4.6308,4.6308,4.6308,4.6308,4.6308,4.6308,4.6308,4.6308,4.6308,4.6115,4.5936,4.5907,4.5751,4.5643,4.5603,4.5594,4.5594,4.5594,4.5594,4.5594,4.5594,4.5594,4.5594,4.5594,4.5594,4.5594,4.5594,4.5594,4.5594,4.5594,4.5718,4.5838,4.5899,4.6036,4.6171,4.6308,4.6308,4.6308,4.6308,4.6308,4.6308,0.0,0.0,0.0,0.0,0.0,0.0,3.3184,3.4922,0.0,0.0,0.0,0.0,0.0,0.0,0.0,0.0,0.0,0.0,0.0,0.0,0.0,0.0,0.0,0.0,0.0,0.0,0.0,0.0,4.0254,4.0137,4.1152,4.1191,4.1191,4.1191,4.1191,4.1191,4.1191,4.1191,4.1191,4.1191,4.1191,4.1191,4.1191,4.1191,4.1191,4.123,4.2051,4.2891,4.3808,4.5195,4.5976,4.6308,4.6308,4.6308,4.6308,4.6308,4.6308,4.6308,4.6308,4.6308,4.6308,4.6308,4.6308,4.6308,4.6308,4.6308,4.6308,4.6308,4.6308,4.6308,4.6308,4.6308,4.6308,4.6308,4.6308,4.6308,4.6308,4.6308,4.6308,4.6308,4.612,4.5971,4.5907,4.577,4.5665,4.5603,4.5594,4.5594,4.5594,4.5594,4.5594,4.5594,4.5594,4.5594,4.5594,4.5594,4.5594,4.5594,4.5594,4.5594,4.5594,4.5757,4.5861,4.5899,4.6084,4.6224,4.6308,4.6308,4.6308,4.6308,4.6308,4.6268,0.0,0.0,0.0,0.0,0.0,0.0,3.2969,3.5371,3.7226,0.0,0.0,0.0,0.0,0.0,0.0,0.0,0.0,0.0,0.0,0.0,0.0,0.0,0.0,0.0,0.0,0.0,4.1191,4.1191,4.1191,4.1191,4.1191,4.1191,4.1191,4.1191,4.1191,4.1191,4.1191,4.1191,4.1191,4.1191,4.1191,4.1191,4.1191,4.1191,4.1191,4.123,4.1953,4.2812,4.3769,4.4531,4.543,4.6308,4.6308,4.6308,4.6308,4.6308,4.6308,4.6308,4.6308,4.6308,4.6308,4.6308,4.6308,4.6308,4.6308,4.6308,4.6308,4.6308,4.6308,4.6308,4.6308,4.6308,4.6308,4.6308,4.6308,4.6308,4.6308,4.6308,4.6308,4.6308,4.6175,4.6036,4.5903,4.5825,4.5733,4.562,4.5594,4.5594,4.5594,4.5594,4.5594,4.5594,4.5594,4.5594,4.5594,4.5594,4.5594,4.5594,4.5594,4.5594,4.5594,4.5794,4.5899,4.5899,4.6152,4.6308,4.6308,4.6308,4.6308,4.6308,4.6289,4.6203,0.0,0.0,0.0,0.0,0.0,0.0,3.0176,3.0879,3.166,0.0,0.0,0.0,0.0,0.0,0.0,0.0,0.0,0.0,0.0,0.0,0.0,0.0,0.0,0.0,0.0,0.0,4.1191,4.1191,4.1191,4.1191,4.1191,4.1191,4.1191,4.1191,4.1191,4.1191,4.1191,4.1191,4.1191,4.1191,4.1191,4.1191,4.1191,4.1191,4.1191,4.1211,4.1367,4.2305,4.3711,4.3887,4.4883,4.6308,4.6308,4.6308,4.6308,4.6308,4.6308,4.6308,4.6308,4.6308,4.6308,4.6308,4.6308,4.6308,4.6308,4.6308,4.6308,4.6308,4.6308,4.6308,4.6308,4.6308,4.6308,4.6308,4.6308,4.6308,4.6308,4.6308,4.6308,4.6308,4.6091,4.5918,4.5838,4.5718,4.5627,4.5603,4.5594,4.5594,4.5594,4.5594,4.5594,4.5594,4.5594,4.5594,4.5594,4.5594,4.5594,4.5594,4.5594,4.5594,4.5594,4.5794,4.5899,4.5899,4.6152,4.6308,4.6308,4.6308,4.6308,4.6308,4.6198,4.6138,0.0,0.0,0.0,2.8074,0.0,0.0,0.0,3.0273,3.1016,0.0,0.0,0.0,0.0,0.0,0.0,0.0,0.0,0.0,0.0,0.0,0.0,0.0,0.0,0.0,0.0,0.0,4.1191,4.1191,4.1191,4.1191,4.1191,4.1191,4.1191,4.1191,4.1191,4.1191,4.1191,4.1191,4.1191,4.1191,4.1191,4.1191,4.1191,4.1191,4.1191,4.1191,4.1191,4.2148,4.3691,4.3691,4.4726,4.6308,4.6308,4.6308,4.6308,4.6308,4.6308,4.6308,4.6308,4.6308,4.6308,4.6308,4.6308,4.6308,4.6308,4.6308,4.6308,4.6308,4.6308,4.6308,4.6308,4.6308,4.6308,4.6308,4.6308,4.6308,4.6308,4.6308,4.6289,4.6203,4.6039,4.5881,4.5855,4.5706,4.5594,4.5594,4.5594,4.5594,4.5594,4.5594,4.5594,4.5594,4.5594,4.5594,4.5594,4.5594,4.5594,4.5594,4.5594,4.5594,4.5594,4.5751,4.5906,4.5995,4.62,4.6268,4.62,4.62,4.62,4.62,4.6053,4.5971,0.0,0.0,0.0,0.0,0.0,2.8827,0.0,0.0,0.0,3.0039,0.0,0.0,0.0,0.0,0.0,0.0,0.0,0.0,0.0,0.0,0.0,0.0,0.0,0.0,0.0,0.0,4.084,4.1172,4.1191,4.1191,4.1191,4.1191,4.1191,4.1191,4.1191,4.1191,4.1191,4.1191,4.1191,4.1191,4.1191,4.1191,4.1191,4.1191,4.1191,4.1191,4.1191,4.2148,4.3691,4.3691,4.4726,4.6308,4.6308,4.6308,4.6308,4.6308,4.6308,4.6308,4.6308,4.6308,4.6308,4.6308,4.6308,4.6308,4.6308,4.6308,4.6308,4.6308,4.6308,4.6308,4.6308,4.6308,4.6308,4.6308,4.6308,4.6308,4.6308,4.6308,4.6268,4.615,4.6001,4.5894,4.5891,4.5729,4.5594,4.5594,4.5594,4.5594,4.5594,4.5594,4.5594,4.5594,4.5594,4.5594,4.5594,4.5594,4.5594,4.5594,4.5594,4.5594,4.5594,4.5718,4.5875,4.6069,4.6173,4.6173,4.6053,4.6056,4.6059,4.6069,4.5939,4.5845,0.0,0.0,0.0,0.0,2.5931,0.0,0.0,0.0,2.6406,2.6309,0.0,0.0,0.0,0.0,0.0,0.0,0.0,0.0,0.0,0.0,0.0,0.0,0.0,0.0,0.0,0.0,0.0,4.1074,4.1191,4.1191,4.1191,4.1191,4.1191,4.1191,4.1191,4.1191,4.1191,4.1191,4.1191,4.1191,4.1191,4.1191,4.1191,4.1191,4.1191,4.1191,4.1191,4.2148,4.3691,4.3691,4.4726,4.6308,4.6308,4.6308,4.6308,4.6308,4.6308,4.6308,4.6308,4.6308,4.6308,4.6308,4.6308,4.6308,4.6308,4.6308,4.6308,4.6308,4.6308,4.6308,4.6308,4.6308,4.6308,4.6308,4.6308,4.6308,4.6308,4.6308,4.6308,4.6289,4.6077,4.5886,4.5814,4.5692,4.5594,4.5594,4.5594,4.5594,4.5594,4.5594,4.5594,4.5594,4.5594,4.5594,4.5594,4.5594,4.5594,4.5594,4.5594,4.5594,4.5594,4.5718,4.585,4.5916,4.5932,4.5932,4.592,4.5864,4.5869,4.5916,4.5842,4.5816,0.0,0.0,0.0,0.0,0.0,0.0,0.0,0.0,2.5703,0.0,0.0,0.0,0.0,0.0,0.0,0.0,0.0,0.0,0.0,0.0,0.0,0.0,0.0,0.0,0.0,0.0,0.0,0.0,0.0,3.9687,3.9687,4.0644,4.1191,4.1191,4.1191,4.1191,4.1191,4.1191,4.1191,4.1191,4.1191,4.1191,4.1191,4.1191,4.1191,4.1191,4.1191,4.1855,4.2988,4.3496,4.4433,4.5605,4.6094,4.6308,4.6308,4.6308,4.6308,4.6308,4.6308,4.6308,4.6308,4.6308,4.6308,4.6308,4.6308,4.6308,4.6308,4.6308,4.6308,4.6308,4.6308,4.6308,4.6308,4.6308,4.6308,4.6308,4.6308,4.6308,4.6288,4.62,4.6033,4.5881,4.5809,4.5677,4.5594,4.5594,4.5594,4.5594,4.5594,4.5594,4.5594,4.5594,4.5594,4.5594,4.5594,4.5594,4.5594,4.5594,4.5594,4.5594,4.5594,4.5718,4.5815,4.5842,4.5881,4.5886,4.5842,4.5815,4.5764,4.5736,4.5696,4.5669,2.8236,0.0,0.0,0.0,0.0,0.0,0.0,0.0,0.0,0.0,0.0,0.0,0.0,0.0,0.0,0.0,0.0,0.0,0.0,0.0,0.0,0.0,0.0,0.0,0.0,0.0,0.0,0.0,3.832,0.0,3.8594,4.0254,4.1191,4.1191,4.1191,4.1191,4.1191,4.1191,4.1191,4.1191,4.1191,4.1191,4.1191,4.1191,4.1191,4.1191,4.1191,4.166,4.2461,4.334,4.4219,4.5098,4.5957,4.6308,4.6308,4.6308,4.6308,4.6308,4.6308,4.6308,4.6308,4.6308,4.6308,4.6308,4.6308,4.6308,4.6308,4.6308,4.6308,4.6308,4.6308,4.6308,4.6308,4.6308,4.6308,4.6308,4.6308,4.6308,4.6268,4.6174,4.6027,4.5872,4.585,4.5696,4.5594,4.5594,4.5594,4.5594,4.5594,4.5594,4.5594,4.5594,4.5594,4.5594,4.5594,4.5594,4.5594,4.5594,4.5594,4.5594,4.5594,4.5685,4.5747,4.5747,4.5795,4.5795,4.5747,4.5747,4.5712,4.5594,4.5594,4.5594,0.0,0.0,0.0,0.0,0.0,0.0,0.0,0.0,2.561,0.0,0.0,0.0,0.0,0.0,0.0,0.0,0.0,0.0,0.0,0.0,0.0,0.0,0.0,0.0,0.0,0.0,0.0,0.0,3.7656,0.0,3.8594,4.0254,4.1191,4.1191,4.1191,4.1191,4.1191,4.1191,4.1191,4.1191,4.1191,4.1191,4.1191,4.1191,4.1191,4.1191,4.1191,4.166,4.2461,4.334,4.4219,4.5098,4.5957,4.6308,4.6308,4.6308,4.6308,4.6308,4.6308,4.6308,4.6308,4.6308,4.6308,4.6308,4.6308,4.6308,4.6308,4.6308,4.6308,4.6308,4.6308,4.6308,4.6308,4.6308,4.6308,4.6308,4.6308,4.6308,4.6308,4.6289,4.608,4.5899,4.5894,4.5724,4.5594,4.5594,4.5594,4.5594,4.5594,4.5594,4.5594,4.5594,4.5594,4.5594,4.5594,4.5594,4.5594,4.5594,4.5594,4.5594,4.5594,4.5603,4.5603,4.5603,4.5612,4.5612,4.5603,4.5603,4.5603,4.5594,4.5594,4.5594,0.0,0.0,3.1916,3.1386,0.0,0.0,0.0,0.0,0.0,0.0,0.0,0.0,0.0,0.0,0.0,0.0,0.0,0.0,0.0,0.0,0.0,0.0,0.0,0.0,0.0,0.0,0.0,3.4199,3.4824,3.5156,0.0,3.791,3.9473,3.9473,4.0605,4.1191,4.1191,4.1191,4.1191,4.1191,4.1191,4.1191,4.1191,4.1191,4.1191,4.1191,4.1191,4.1348,4.1719,4.3125,4.3867,4.4277,4.5723,4.6308,4.6308,4.6308,4.6308,4.6308,4.6308,4.6308,4.6308,4.6308,4.6308,4.6308,4.6308,4.6308,4.6308,4.6308,4.6308,4.6308,4.6308,4.6308,4.6308,4.6308,4.6308,4.6308,4.6308,4.6308,4.6269,4.6177,4.6011,4.5896,4.5842,4.5703,4.5594,4.5594,4.5594,4.5594,4.5594,4.5594,4.5594,4.5594,4.5594,4.5594,4.5594,4.5594,4.5594,4.5594,4.5594,4.5594,4.5594,4.5594,4.5594,4.5594,4.5594,4.5594,4.5594,4.5594,4.5594,4.5594,4.5594,4.5594,3.3526,3.3814,0.0,0.0,3.2129,0.0,3.0641,0.0,0.0,0.0,0.0,0.0,0.0,0.0,0.0,0.0,0.0,0.0,0.0,0.0,0.0,0.0,0.0,0.0,0.0,0.0,3.1992,3.2461,3.3066,3.3398,0.0,0.0,3.8594,3.8594,4.0293,4.1191,4.1191,4.1191,4.1191,4.1191,4.1191,4.1191,4.1191,4.1191,4.1191,4.1191,4.1191,4.1191,4.1328,4.3008,4.3691,4.3867,4.5625,4.6308,4.6308,4.6308,4.6308,4.6308,4.6308,4.6308,4.6308,4.6308,4.6308,4.6308,4.6308,4.6308,4.6308,4.6308,4.6308,4.6308,4.6308,4.6308,4.6308,4.6308,4.6308,4.6308,4.6308,4.6308,4.6269,4.6198,4.6053,4.5944,4.5853,4.5749,4.5648,4.5603,4.5594,4.5594,4.5594,4.5594,4.5594,4.5594,4.5594,4.5594,4.5594,4.5594,4.5594,4.5594,4.5594,4.5594,4.5594,4.5594,4.5594,4.5594,4.5594,4.5594,4.5594,4.5594,4.5594,4.5614,4.5913,4.6067]}]]